<?xml version="1.0" encoding="UTF-8" standalone="no" ?>
<gpx xmlns="http://www.topografix.com/GPX/1/1" xmlns:xsi="http://www.w3.org/2001/XMLSchema-instance" xsi:schemaLocation="http://www.topografix.com/GPX/1/1 http://www.topografix.com/GPX/1/1/gpx.xsd" version="1.1" creator="VisuGPX - https://www.visugpx.com">
  <metadata>
    <name>Randonnée du 5/02/26 Boucle au-dessus d'Albet 9kms</name>
  </metadata>
  <trk>
    <name><![CDATA[Parcours du 05/02/2026 16h50]]></name>
    <trkseg>
      <trkpt lat="48.46544" lon="7.20803">
        <ele>327.4</ele>
        <time>2026-02-05T13:36:38Z</time>
      </trkpt>
      <trkpt lat="48.46545" lon="7.20803">
        <ele>327.4</ele>
        <time>2026-02-05T13:36:38Z</time>
      </trkpt>
      <trkpt lat="48.46539" lon="7.20803">
        <ele>327.6</ele>
        <time>2026-02-05T13:36:38Z</time>
      </trkpt>
      <trkpt lat="48.46535" lon="7.20796">
        <ele>327.8</ele>
        <time>2026-02-05T13:36:38Z</time>
      </trkpt>
      <trkpt lat="48.4653" lon="7.20794">
        <ele>327.9</ele>
        <time>2026-02-05T13:36:38Z</time>
      </trkpt>
      <trkpt lat="48.46526" lon="7.20791">
        <ele>328</ele>
        <time>2026-02-05T13:36:38Z</time>
      </trkpt>
      <trkpt lat="48.46523" lon="7.20785">
        <ele>328</ele>
        <time>2026-02-05T13:36:38Z</time>
      </trkpt>
      <trkpt lat="48.46521" lon="7.20779">
        <ele>328</ele>
        <time>2026-02-05T13:36:38Z</time>
      </trkpt>
      <trkpt lat="48.46517" lon="7.20774">
        <ele>328</ele>
        <time>2026-02-05T13:36:38Z</time>
      </trkpt>
      <trkpt lat="48.46513" lon="7.20769">
        <ele>328</ele>
        <time>2026-02-05T13:36:38Z</time>
      </trkpt>
      <trkpt lat="48.4651" lon="7.20764">
        <ele>328</ele>
        <time>2026-02-05T13:36:38Z</time>
      </trkpt>
      <trkpt lat="48.46509" lon="7.20757">
        <ele>328</ele>
        <time>2026-02-05T13:36:38Z</time>
      </trkpt>
      <trkpt lat="48.46505" lon="7.20752">
        <ele>328</ele>
        <time>2026-02-05T13:36:38Z</time>
      </trkpt>
      <trkpt lat="48.46501" lon="7.20746">
        <ele>328</ele>
        <time>2026-02-05T13:36:38Z</time>
      </trkpt>
      <trkpt lat="48.46497" lon="7.20742">
        <ele>328</ele>
        <time>2026-02-05T13:36:38Z</time>
      </trkpt>
      <trkpt lat="48.46494" lon="7.20737">
        <ele>328.1</ele>
        <time>2026-02-05T13:36:38Z</time>
      </trkpt>
      <trkpt lat="48.46492" lon="7.20729">
        <ele>328.2</ele>
        <time>2026-02-05T13:36:38Z</time>
      </trkpt>
      <trkpt lat="48.46494" lon="7.20722">
        <ele>328.2</ele>
        <time>2026-02-05T13:36:38Z</time>
      </trkpt>
      <trkpt lat="48.46496" lon="7.20716">
        <ele>328.1</ele>
        <time>2026-02-05T13:36:38Z</time>
      </trkpt>
      <trkpt lat="48.46492" lon="7.2071">
        <ele>328.3</ele>
        <time>2026-02-05T13:36:38Z</time>
      </trkpt>
      <trkpt lat="48.46488" lon="7.20708">
        <ele>328.4</ele>
        <time>2026-02-05T13:36:38Z</time>
      </trkpt>
      <trkpt lat="48.46483" lon="7.20707">
        <ele>328.6</ele>
        <time>2026-02-05T13:36:38Z</time>
      </trkpt>
      <trkpt lat="48.46478" lon="7.20705">
        <ele>328.8</ele>
        <time>2026-02-05T13:36:38Z</time>
      </trkpt>
      <trkpt lat="48.46472" lon="7.20703">
        <ele>329</ele>
        <time>2026-02-05T13:36:38Z</time>
      </trkpt>
      <trkpt lat="48.46467" lon="7.207">
        <ele>329</ele>
        <time>2026-02-05T13:36:38Z</time>
      </trkpt>
      <trkpt lat="48.46463" lon="7.20696">
        <ele>329</ele>
        <time>2026-02-05T13:36:38Z</time>
      </trkpt>
      <trkpt lat="48.46459" lon="7.2069">
        <ele>329</ele>
        <time>2026-02-05T13:36:38Z</time>
      </trkpt>
      <trkpt lat="48.46457" lon="7.20684">
        <ele>329</ele>
        <time>2026-02-05T13:36:38Z</time>
      </trkpt>
      <trkpt lat="48.46454" lon="7.20678">
        <ele>329</ele>
        <time>2026-02-05T13:36:38Z</time>
      </trkpt>
      <trkpt lat="48.4645" lon="7.20673">
        <ele>329</ele>
        <time>2026-02-05T13:36:38Z</time>
      </trkpt>
      <trkpt lat="48.46446" lon="7.20667">
        <ele>329</ele>
        <time>2026-02-05T13:36:38Z</time>
      </trkpt>
      <trkpt lat="48.46442" lon="7.2066">
        <ele>329.3</ele>
        <time>2026-02-05T13:36:38Z</time>
      </trkpt>
      <trkpt lat="48.46439" lon="7.20654">
        <ele>329.5</ele>
        <time>2026-02-05T13:36:38Z</time>
      </trkpt>
      <trkpt lat="48.46436" lon="7.20649">
        <ele>329.8</ele>
        <time>2026-02-05T13:36:38Z</time>
      </trkpt>
      <trkpt lat="48.46433" lon="7.20644">
        <ele>329.9</ele>
        <time>2026-02-05T13:36:38Z</time>
      </trkpt>
      <trkpt lat="48.46429" lon="7.20638">
        <ele>330</ele>
        <time>2026-02-05T13:36:38Z</time>
      </trkpt>
      <trkpt lat="48.46425" lon="7.20633">
        <ele>330.2</ele>
        <time>2026-02-05T13:36:38Z</time>
      </trkpt>
      <trkpt lat="48.46423" lon="7.20626">
        <ele>330.4</ele>
        <time>2026-02-05T13:36:38Z</time>
      </trkpt>
      <trkpt lat="48.46423" lon="7.20619">
        <ele>330.6</ele>
        <time>2026-02-05T13:36:38Z</time>
      </trkpt>
      <trkpt lat="48.46423" lon="7.20612">
        <ele>330.8</ele>
        <time>2026-02-05T13:36:38Z</time>
      </trkpt>
      <trkpt lat="48.46423" lon="7.20604">
        <ele>330.8</ele>
        <time>2026-02-05T13:36:38Z</time>
      </trkpt>
      <trkpt lat="48.46423" lon="7.20597">
        <ele>330.9</ele>
        <time>2026-02-05T13:36:38Z</time>
      </trkpt>
      <trkpt lat="48.46423" lon="7.20588">
        <ele>331</ele>
        <time>2026-02-05T13:36:38Z</time>
      </trkpt>
      <trkpt lat="48.46423" lon="7.20588">
        <ele>331</ele>
        <time>2026-02-05T13:36:38Z</time>
      </trkpt>
      <trkpt lat="48.46473" lon="7.20451">
        <ele>354.9</ele>
        <time>2026-02-05T13:36:38Z</time>
      </trkpt>
      <trkpt lat="48.46478" lon="7.20452">
        <ele>355.2</ele>
        <time>2026-02-05T13:36:38Z</time>
      </trkpt>
      <trkpt lat="48.46482" lon="7.20454">
        <ele>354.9</ele>
        <time>2026-02-05T13:36:38Z</time>
      </trkpt>
      <trkpt lat="48.46487" lon="7.20456">
        <ele>354.8</ele>
        <time>2026-02-05T13:36:38Z</time>
      </trkpt>
      <trkpt lat="48.46491" lon="7.20458">
        <ele>354.7</ele>
        <time>2026-02-05T13:36:38Z</time>
      </trkpt>
      <trkpt lat="48.46496" lon="7.2046">
        <ele>354.6</ele>
        <time>2026-02-05T13:36:38Z</time>
      </trkpt>
      <trkpt lat="48.46501" lon="7.20462">
        <ele>354.1</ele>
        <time>2026-02-05T13:36:38Z</time>
      </trkpt>
      <trkpt lat="48.46505" lon="7.20464">
        <ele>353.1</ele>
        <time>2026-02-05T13:36:38Z</time>
      </trkpt>
      <trkpt lat="48.46505" lon="7.20464">
        <ele>353.1</ele>
        <time>2026-02-05T13:36:38Z</time>
      </trkpt>
      <trkpt lat="48.46498" lon="7.20117">
        <ele>416.7</ele>
        <time>2026-02-05T13:36:38Z</time>
      </trkpt>
      <trkpt lat="48.46498" lon="7.20109">
        <ele>417.8</ele>
        <time>2026-02-05T13:36:38Z</time>
      </trkpt>
      <trkpt lat="48.46497" lon="7.201">
        <ele>418.4</ele>
        <time>2026-02-05T13:36:38Z</time>
      </trkpt>
      <trkpt lat="48.46494" lon="7.20093">
        <ele>418.4</ele>
        <time>2026-02-05T13:36:38Z</time>
      </trkpt>
      <trkpt lat="48.4649" lon="7.20087">
        <ele>418.4</ele>
        <time>2026-02-05T13:36:38Z</time>
      </trkpt>
      <trkpt lat="48.46487" lon="7.20082">
        <ele>418.5</ele>
        <time>2026-02-05T13:36:38Z</time>
      </trkpt>
      <trkpt lat="48.4649" lon="7.20087">
        <ele>418.4</ele>
        <time>2026-02-05T13:36:38Z</time>
      </trkpt>
      <trkpt lat="48.4649" lon="7.20087">
        <ele>418.4</ele>
        <time>2026-02-05T13:36:38Z</time>
      </trkpt>
      <trkpt lat="48.46486" lon="7.20092">
        <ele>416.9</ele>
        <time>2026-02-05T13:36:38Z</time>
      </trkpt>
      <trkpt lat="48.4651" lon="7.19345">
        <ele>86.037155</ele>
        <time>2026-02-05T13:36:39Z</time>
      </trkpt>
      <trkpt lat="48.46515" lon="7.19344">
        <ele>172.07431</ele>
        <time>2026-02-05T13:36:46Z</time>
      </trkpt>
      <trkpt lat="48.4652" lon="7.19341">
        <ele>258.11145</ele>
        <time>2026-02-05T13:36:52Z</time>
      </trkpt>
      <trkpt lat="48.46525" lon="7.19337">
        <ele>344.14862</ele>
        <time>2026-02-05T13:36:58Z</time>
      </trkpt>
      <trkpt lat="48.46529" lon="7.19335">
        <ele>430.18576</ele>
        <time>2026-02-05T13:37:03Z</time>
      </trkpt>
      <trkpt lat="48.46532" lon="7.19329">
        <ele>430.18576</ele>
        <time>2026-02-05T13:37:09Z</time>
      </trkpt>
      <trkpt lat="48.46536" lon="7.19326">
        <ele>430.18576</ele>
        <time>2026-02-05T13:37:14Z</time>
      </trkpt>
      <trkpt lat="48.4654" lon="7.19322">
        <ele>430.18576</ele>
        <time>2026-02-05T13:37:19Z</time>
      </trkpt>
      <trkpt lat="48.46545" lon="7.19319">
        <ele>430.18576</ele>
        <time>2026-02-05T13:37:24Z</time>
      </trkpt>
      <trkpt lat="48.46549" lon="7.19317">
        <ele>430.18576</ele>
        <time>2026-02-05T13:37:29Z</time>
      </trkpt>
      <trkpt lat="48.46553" lon="7.19313">
        <ele>430.18576</ele>
        <time>2026-02-05T13:37:34Z</time>
      </trkpt>
      <trkpt lat="48.46555" lon="7.19306">
        <ele>430.18576</ele>
        <time>2026-02-05T13:37:41Z</time>
      </trkpt>
      <trkpt lat="48.46558" lon="7.19299">
        <ele>430.18576</ele>
        <time>2026-02-05T13:37:47Z</time>
      </trkpt>
      <trkpt lat="48.46561" lon="7.19294">
        <ele>430.18576</ele>
        <time>2026-02-05T13:37:52Z</time>
      </trkpt>
      <trkpt lat="48.46565" lon="7.19289">
        <ele>430.18576</ele>
        <time>2026-02-05T13:37:57Z</time>
      </trkpt>
      <trkpt lat="48.46568" lon="7.19283">
        <ele>430.18576</ele>
        <time>2026-02-05T13:38:02Z</time>
      </trkpt>
      <trkpt lat="48.46571" lon="7.19279">
        <ele>430.18576</ele>
        <time>2026-02-05T13:38:07Z</time>
      </trkpt>
      <trkpt lat="48.46575" lon="7.19274">
        <ele>430.18576</ele>
        <time>2026-02-05T13:38:12Z</time>
      </trkpt>
      <trkpt lat="48.4658" lon="7.19269">
        <ele>430.18576</ele>
        <time>2026-02-05T13:38:17Z</time>
      </trkpt>
      <trkpt lat="48.46583" lon="7.19264">
        <ele>430.18576</ele>
        <time>2026-02-05T13:38:22Z</time>
      </trkpt>
      <trkpt lat="48.46586" lon="7.19258">
        <ele>430.18576</ele>
        <time>2026-02-05T13:38:27Z</time>
      </trkpt>
      <trkpt lat="48.4659" lon="7.19252">
        <ele>430.18576</ele>
        <time>2026-02-05T13:38:33Z</time>
      </trkpt>
      <trkpt lat="48.46594" lon="7.19246">
        <ele>430.18576</ele>
        <time>2026-02-05T13:38:38Z</time>
      </trkpt>
      <trkpt lat="48.46597" lon="7.19241">
        <ele>430.18576</ele>
        <time>2026-02-05T13:38:42Z</time>
      </trkpt>
      <trkpt lat="48.466" lon="7.19235">
        <ele>430.18576</ele>
        <time>2026-02-05T13:38:47Z</time>
      </trkpt>
      <trkpt lat="48.46603" lon="7.19228">
        <ele>430.18576</ele>
        <time>2026-02-05T13:38:52Z</time>
      </trkpt>
      <trkpt lat="48.46606" lon="7.19221">
        <ele>430.18576</ele>
        <time>2026-02-05T13:38:58Z</time>
      </trkpt>
      <trkpt lat="48.46608" lon="7.19215">
        <ele>430.18576</ele>
        <time>2026-02-05T13:39:03Z</time>
      </trkpt>
      <trkpt lat="48.4661" lon="7.19209">
        <ele>430.18576</ele>
        <time>2026-02-05T13:39:08Z</time>
      </trkpt>
      <trkpt lat="48.46613" lon="7.19203">
        <ele>430.18576</ele>
        <time>2026-02-05T13:39:13Z</time>
      </trkpt>
      <trkpt lat="48.46615" lon="7.19197">
        <ele>430.18576</ele>
        <time>2026-02-05T13:39:18Z</time>
      </trkpt>
      <trkpt lat="48.46618" lon="7.1919">
        <ele>430.18576</ele>
        <time>2026-02-05T13:39:23Z</time>
      </trkpt>
      <trkpt lat="48.46619" lon="7.19183">
        <ele>430.18576</ele>
        <time>2026-02-05T13:39:28Z</time>
      </trkpt>
      <trkpt lat="48.46622" lon="7.19176">
        <ele>430.18576</ele>
        <time>2026-02-05T13:39:33Z</time>
      </trkpt>
      <trkpt lat="48.46623" lon="7.1917">
        <ele>430.18576</ele>
        <time>2026-02-05T13:39:37Z</time>
      </trkpt>
      <trkpt lat="48.46624" lon="7.19162">
        <ele>430.18576</ele>
        <time>2026-02-05T13:39:42Z</time>
      </trkpt>
      <trkpt lat="48.46625" lon="7.19154">
        <ele>432.38025</ele>
        <time>2026-02-05T13:39:47Z</time>
      </trkpt>
      <trkpt lat="48.46625" lon="7.19146">
        <ele>434.57477</ele>
        <time>2026-02-05T13:39:52Z</time>
      </trkpt>
      <trkpt lat="48.46626" lon="7.19138">
        <ele>436.76926</ele>
        <time>2026-02-05T13:39:56Z</time>
      </trkpt>
      <trkpt lat="48.46627" lon="7.19131">
        <ele>438.96378</ele>
        <time>2026-02-05T13:40:01Z</time>
      </trkpt>
      <trkpt lat="48.46627" lon="7.19124">
        <ele>441.15826</ele>
        <time>2026-02-05T13:40:05Z</time>
      </trkpt>
      <trkpt lat="48.46628" lon="7.19116">
        <ele>441.15826</ele>
        <time>2026-02-05T13:40:10Z</time>
      </trkpt>
      <trkpt lat="48.4663" lon="7.19109">
        <ele>441.15826</ele>
        <time>2026-02-05T13:40:15Z</time>
      </trkpt>
      <trkpt lat="48.46631" lon="7.19102">
        <ele>441.15826</ele>
        <time>2026-02-05T13:40:20Z</time>
      </trkpt>
      <trkpt lat="48.46632" lon="7.19094">
        <ele>441.15826</ele>
        <time>2026-02-05T13:40:25Z</time>
      </trkpt>
      <trkpt lat="48.46633" lon="7.19087">
        <ele>441.15826</ele>
        <time>2026-02-05T13:40:30Z</time>
      </trkpt>
      <trkpt lat="48.46634" lon="7.1908">
        <ele>441.15826</ele>
        <time>2026-02-05T13:40:35Z</time>
      </trkpt>
      <trkpt lat="48.46635" lon="7.19073">
        <ele>441.15826</ele>
        <time>2026-02-05T13:40:39Z</time>
      </trkpt>
      <trkpt lat="48.46636" lon="7.19063">
        <ele>441.15826</ele>
        <time>2026-02-05T13:40:44Z</time>
      </trkpt>
      <trkpt lat="48.46637" lon="7.19056">
        <ele>441.15826</ele>
        <time>2026-02-05T13:40:49Z</time>
      </trkpt>
      <trkpt lat="48.46639" lon="7.19049">
        <ele>441.15826</ele>
        <time>2026-02-05T13:40:53Z</time>
      </trkpt>
      <trkpt lat="48.4664" lon="7.19042">
        <ele>441.15826</ele>
        <time>2026-02-05T13:40:57Z</time>
      </trkpt>
      <trkpt lat="48.46641" lon="7.19035">
        <ele>441.15826</ele>
        <time>2026-02-05T13:41:02Z</time>
      </trkpt>
      <trkpt lat="48.46642" lon="7.19028">
        <ele>441.15826</ele>
        <time>2026-02-05T13:41:08Z</time>
      </trkpt>
      <trkpt lat="48.46643" lon="7.1902">
        <ele>441.15826</ele>
        <time>2026-02-05T13:41:13Z</time>
      </trkpt>
      <trkpt lat="48.46645" lon="7.19013">
        <ele>441.15826</ele>
        <time>2026-02-05T13:41:18Z</time>
      </trkpt>
      <trkpt lat="48.46646" lon="7.19006">
        <ele>441.15826</ele>
        <time>2026-02-05T13:41:24Z</time>
      </trkpt>
      <trkpt lat="48.46647" lon="7.18998">
        <ele>441.15826</ele>
        <time>2026-02-05T13:41:29Z</time>
      </trkpt>
      <trkpt lat="48.46648" lon="7.18991">
        <ele>441.15826</ele>
        <time>2026-02-05T13:41:34Z</time>
      </trkpt>
      <trkpt lat="48.46649" lon="7.18984">
        <ele>441.15826</ele>
        <time>2026-02-05T13:41:39Z</time>
      </trkpt>
      <trkpt lat="48.4665" lon="7.18976">
        <ele>441.15826</ele>
        <time>2026-02-05T13:41:43Z</time>
      </trkpt>
      <trkpt lat="48.46652" lon="7.18969">
        <ele>441.15826</ele>
        <time>2026-02-05T13:41:49Z</time>
      </trkpt>
      <trkpt lat="48.46652" lon="7.18962">
        <ele>443.22958</ele>
        <time>2026-02-05T13:41:59Z</time>
      </trkpt>
      <trkpt lat="48.46652" lon="7.18954">
        <ele>445.3009</ele>
        <time>2026-02-05T13:43:09Z</time>
      </trkpt>
      <trkpt lat="48.4665" lon="7.18947">
        <ele>447.37225</ele>
        <time>2026-02-05T13:43:21Z</time>
      </trkpt>
      <trkpt lat="48.46647" lon="7.18942">
        <ele>449.44357</ele>
        <time>2026-02-05T13:43:27Z</time>
      </trkpt>
      <trkpt lat="48.46643" lon="7.18939">
        <ele>451.5149</ele>
        <time>2026-02-05T13:43:32Z</time>
      </trkpt>
      <trkpt lat="48.4664" lon="7.18933">
        <ele>451.5149</ele>
        <time>2026-02-05T13:43:39Z</time>
      </trkpt>
      <trkpt lat="48.46635" lon="7.18931">
        <ele>451.5149</ele>
        <time>2026-02-05T13:43:43Z</time>
      </trkpt>
      <trkpt lat="48.46631" lon="7.18928">
        <ele>451.5149</ele>
        <time>2026-02-05T13:43:48Z</time>
      </trkpt>
      <trkpt lat="48.46625" lon="7.1893">
        <ele>451.5149</ele>
        <time>2026-02-05T13:43:52Z</time>
      </trkpt>
      <trkpt lat="48.46621" lon="7.18935">
        <ele>451.5149</ele>
        <time>2026-02-05T13:43:57Z</time>
      </trkpt>
      <trkpt lat="48.46617" lon="7.1894">
        <ele>451.5149</ele>
        <time>2026-02-05T13:44:02Z</time>
      </trkpt>
      <trkpt lat="48.46614" lon="7.18945">
        <ele>451.5149</ele>
        <time>2026-02-05T13:44:07Z</time>
      </trkpt>
      <trkpt lat="48.4661" lon="7.1895">
        <ele>451.5149</ele>
        <time>2026-02-05T13:44:11Z</time>
      </trkpt>
      <trkpt lat="48.46607" lon="7.18955">
        <ele>451.5149</ele>
        <time>2026-02-05T13:44:15Z</time>
      </trkpt>
      <trkpt lat="48.46604" lon="7.1896">
        <ele>451.5149</ele>
        <time>2026-02-05T13:44:19Z</time>
      </trkpt>
      <trkpt lat="48.46601" lon="7.18966">
        <ele>451.5149</ele>
        <time>2026-02-05T13:44:25Z</time>
      </trkpt>
      <trkpt lat="48.46597" lon="7.18972">
        <ele>449.39554</ele>
        <time>2026-02-05T13:44:31Z</time>
      </trkpt>
      <trkpt lat="48.46594" lon="7.18979">
        <ele>447.27618</ele>
        <time>2026-02-05T13:44:35Z</time>
      </trkpt>
      <trkpt lat="48.46592" lon="7.18987">
        <ele>445.1568</ele>
        <time>2026-02-05T13:44:41Z</time>
      </trkpt>
      <trkpt lat="48.4659" lon="7.18995">
        <ele>443.03745</ele>
        <time>2026-02-05T13:44:47Z</time>
      </trkpt>
      <trkpt lat="48.46586" lon="7.18999">
        <ele>440.9181</ele>
        <time>2026-02-05T13:44:52Z</time>
      </trkpt>
      <trkpt lat="48.46584" lon="7.19005">
        <ele>440.9181</ele>
        <time>2026-02-05T13:44:57Z</time>
      </trkpt>
      <trkpt lat="48.46581" lon="7.19011">
        <ele>440.9181</ele>
        <time>2026-02-05T13:45:02Z</time>
      </trkpt>
      <trkpt lat="48.46578" lon="7.19017">
        <ele>440.9181</ele>
        <time>2026-02-05T13:45:06Z</time>
      </trkpt>
      <trkpt lat="48.46576" lon="7.19024">
        <ele>440.9181</ele>
        <time>2026-02-05T13:45:13Z</time>
      </trkpt>
      <trkpt lat="48.46573" lon="7.19031">
        <ele>440.9181</ele>
        <time>2026-02-05T13:45:19Z</time>
      </trkpt>
      <trkpt lat="48.46571" lon="7.19037">
        <ele>440.9181</ele>
        <time>2026-02-05T13:45:23Z</time>
      </trkpt>
      <trkpt lat="48.46569" lon="7.19043">
        <ele>440.9181</ele>
        <time>2026-02-05T13:45:27Z</time>
      </trkpt>
      <trkpt lat="48.46566" lon="7.1905">
        <ele>440.9181</ele>
        <time>2026-02-05T13:45:33Z</time>
      </trkpt>
      <trkpt lat="48.46563" lon="7.19056">
        <ele>438.77628</ele>
        <time>2026-02-05T13:45:38Z</time>
      </trkpt>
      <trkpt lat="48.4656" lon="7.19062">
        <ele>436.63446</ele>
        <time>2026-02-05T13:45:43Z</time>
      </trkpt>
      <trkpt lat="48.46558" lon="7.19068">
        <ele>434.49265</ele>
        <time>2026-02-05T13:45:47Z</time>
      </trkpt>
      <trkpt lat="48.46555" lon="7.19074">
        <ele>432.35083</ele>
        <time>2026-02-05T13:45:52Z</time>
      </trkpt>
      <trkpt lat="48.46552" lon="7.19081">
        <ele>430.209</ele>
        <time>2026-02-05T13:45:57Z</time>
      </trkpt>
      <trkpt lat="48.4655" lon="7.19088">
        <ele>430.209</ele>
        <time>2026-02-05T13:46:02Z</time>
      </trkpt>
      <trkpt lat="48.46547" lon="7.19095">
        <ele>430.209</ele>
        <time>2026-02-05T13:46:08Z</time>
      </trkpt>
      <trkpt lat="48.46544" lon="7.191">
        <ele>428.16864</ele>
        <time>2026-02-05T13:46:13Z</time>
      </trkpt>
      <trkpt lat="48.46542" lon="7.19106">
        <ele>426.1283</ele>
        <time>2026-02-05T13:46:18Z</time>
      </trkpt>
      <trkpt lat="48.46539" lon="7.19113">
        <ele>424.08792</ele>
        <time>2026-02-05T13:46:23Z</time>
      </trkpt>
      <trkpt lat="48.46536" lon="7.1912">
        <ele>422.04758</ele>
        <time>2026-02-05T13:46:29Z</time>
      </trkpt>
      <trkpt lat="48.46533" lon="7.19126">
        <ele>420.0072</ele>
        <time>2026-02-05T13:46:34Z</time>
      </trkpt>
      <trkpt lat="48.46531" lon="7.19132">
        <ele>420.0072</ele>
        <time>2026-02-05T13:46:39Z</time>
      </trkpt>
      <trkpt lat="48.46528" lon="7.19138">
        <ele>420.0072</ele>
        <time>2026-02-05T13:46:43Z</time>
      </trkpt>
      <trkpt lat="48.46525" lon="7.19145">
        <ele>420.0072</ele>
        <time>2026-02-05T13:46:48Z</time>
      </trkpt>
      <trkpt lat="48.46523" lon="7.19152">
        <ele>420.0072</ele>
        <time>2026-02-05T13:46:52Z</time>
      </trkpt>
      <trkpt lat="48.4652" lon="7.19158">
        <ele>420.0072</ele>
        <time>2026-02-05T13:46:57Z</time>
      </trkpt>
      <trkpt lat="48.46517" lon="7.19165">
        <ele>417.80853</ele>
        <time>2026-02-05T13:47:04Z</time>
      </trkpt>
      <trkpt lat="48.46513" lon="7.19173">
        <ele>415.60986</ele>
        <time>2026-02-05T13:47:10Z</time>
      </trkpt>
      <trkpt lat="48.46512" lon="7.1918">
        <ele>413.41122</ele>
        <time>2026-02-05T13:47:15Z</time>
      </trkpt>
      <trkpt lat="48.46506" lon="7.19181">
        <ele>411.21255</ele>
        <time>2026-02-05T13:47:19Z</time>
      </trkpt>
      <trkpt lat="48.46501" lon="7.19182">
        <ele>409.0139</ele>
        <time>2026-02-05T13:47:23Z</time>
      </trkpt>
      <trkpt lat="48.46497" lon="7.19187">
        <ele>409.0139</ele>
        <time>2026-02-05T13:47:28Z</time>
      </trkpt>
      <trkpt lat="48.46493" lon="7.19192">
        <ele>409.0139</ele>
        <time>2026-02-05T13:47:33Z</time>
      </trkpt>
      <trkpt lat="48.46489" lon="7.19196">
        <ele>409.0139</ele>
        <time>2026-02-05T13:47:38Z</time>
      </trkpt>
      <trkpt lat="48.46485" lon="7.192">
        <ele>409.0139</ele>
        <time>2026-02-05T13:47:43Z</time>
      </trkpt>
      <trkpt lat="48.46481" lon="7.19204">
        <ele>409.0139</ele>
        <time>2026-02-05T13:47:48Z</time>
      </trkpt>
      <trkpt lat="48.46477" lon="7.19208">
        <ele>409.0139</ele>
        <time>2026-02-05T13:47:53Z</time>
      </trkpt>
      <trkpt lat="48.46472" lon="7.19206">
        <ele>409.0139</ele>
        <time>2026-02-05T13:47:57Z</time>
      </trkpt>
      <trkpt lat="48.46467" lon="7.19197">
        <ele>409.0139</ele>
        <time>2026-02-05T13:47:59Z</time>
      </trkpt>
      <trkpt lat="48.46462" lon="7.19196">
        <ele>409.0139</ele>
        <time>2026-02-05T13:48:04Z</time>
      </trkpt>
      <trkpt lat="48.46457" lon="7.19197">
        <ele>409.0139</ele>
        <time>2026-02-05T13:48:11Z</time>
      </trkpt>
      <trkpt lat="48.46452" lon="7.19195">
        <ele>409.0139</ele>
        <time>2026-02-05T13:48:17Z</time>
      </trkpt>
      <trkpt lat="48.46448" lon="7.19195">
        <ele>409.0139</ele>
        <time>2026-02-05T13:48:21Z</time>
      </trkpt>
      <trkpt lat="48.46444" lon="7.19192">
        <ele>409.0139</ele>
        <time>2026-02-05T13:48:26Z</time>
      </trkpt>
      <trkpt lat="48.46439" lon="7.19191">
        <ele>409.0139</ele>
        <time>2026-02-05T13:48:30Z</time>
      </trkpt>
      <trkpt lat="48.46434" lon="7.19188">
        <ele>409.0139</ele>
        <time>2026-02-05T13:48:36Z</time>
      </trkpt>
      <trkpt lat="48.46429" lon="7.19185">
        <ele>409.0139</ele>
        <time>2026-02-05T13:48:41Z</time>
      </trkpt>
      <trkpt lat="48.46425" lon="7.19182">
        <ele>409.0139</ele>
        <time>2026-02-05T13:48:46Z</time>
      </trkpt>
      <trkpt lat="48.4642" lon="7.19179">
        <ele>409.0139</ele>
        <time>2026-02-05T13:48:52Z</time>
      </trkpt>
      <trkpt lat="48.46415" lon="7.19176">
        <ele>409.0139</ele>
        <time>2026-02-05T13:48:58Z</time>
      </trkpt>
      <trkpt lat="48.4641" lon="7.19173">
        <ele>409.0139</ele>
        <time>2026-02-05T13:49:03Z</time>
      </trkpt>
      <trkpt lat="48.46406" lon="7.1917">
        <ele>409.0139</ele>
        <time>2026-02-05T13:49:08Z</time>
      </trkpt>
      <trkpt lat="48.46401" lon="7.19168">
        <ele>409.0139</ele>
        <time>2026-02-05T13:49:13Z</time>
      </trkpt>
      <trkpt lat="48.46396" lon="7.19165">
        <ele>409.0139</ele>
        <time>2026-02-05T13:49:18Z</time>
      </trkpt>
      <trkpt lat="48.46392" lon="7.19162">
        <ele>409.0139</ele>
        <time>2026-02-05T13:49:23Z</time>
      </trkpt>
      <trkpt lat="48.46388" lon="7.1916">
        <ele>409.0139</ele>
        <time>2026-02-05T13:49:27Z</time>
      </trkpt>
      <trkpt lat="48.46383" lon="7.19157">
        <ele>409.0139</ele>
        <time>2026-02-05T13:49:32Z</time>
      </trkpt>
      <trkpt lat="48.46378" lon="7.19154">
        <ele>409.0139</ele>
        <time>2026-02-05T13:49:37Z</time>
      </trkpt>
      <trkpt lat="48.46372" lon="7.19151">
        <ele>409.0139</ele>
        <time>2026-02-05T13:49:42Z</time>
      </trkpt>
      <trkpt lat="48.46367" lon="7.19152">
        <ele>409.0139</ele>
        <time>2026-02-05T13:49:49Z</time>
      </trkpt>
      <trkpt lat="48.46362" lon="7.19149">
        <ele>409.0139</ele>
        <time>2026-02-05T13:49:53Z</time>
      </trkpt>
      <trkpt lat="48.46359" lon="7.19144">
        <ele>409.0139</ele>
        <time>2026-02-05T13:49:57Z</time>
      </trkpt>
      <trkpt lat="48.46357" lon="7.19136">
        <ele>409.0139</ele>
        <time>2026-02-05T13:50:02Z</time>
      </trkpt>
      <trkpt lat="48.46356" lon="7.19129">
        <ele>411.08594</ele>
        <time>2026-02-05T13:50:06Z</time>
      </trkpt>
      <trkpt lat="48.46355" lon="7.19122">
        <ele>413.15802</ele>
        <time>2026-02-05T13:50:12Z</time>
      </trkpt>
      <trkpt lat="48.46361" lon="7.19126">
        <ele>415.23007</ele>
        <time>2026-02-05T13:51:50Z</time>
      </trkpt>
      <trkpt lat="48.46358" lon="7.19121">
        <ele>417.30215</ele>
        <time>2026-02-05T13:53:39Z</time>
      </trkpt>
      <trkpt lat="48.46357" lon="7.19113">
        <ele>419.3742</ele>
        <time>2026-02-05T13:53:49Z</time>
      </trkpt>
      <trkpt lat="48.46357" lon="7.19106">
        <ele>419.3742</ele>
        <time>2026-02-05T13:53:55Z</time>
      </trkpt>
      <trkpt lat="48.46356" lon="7.19099">
        <ele>419.3742</ele>
        <time>2026-02-05T13:54:02Z</time>
      </trkpt>
      <trkpt lat="48.46355" lon="7.19091">
        <ele>419.3742</ele>
        <time>2026-02-05T13:54:09Z</time>
      </trkpt>
      <trkpt lat="48.46354" lon="7.19084">
        <ele>419.3742</ele>
        <time>2026-02-05T13:54:15Z</time>
      </trkpt>
      <trkpt lat="48.46354" lon="7.19076">
        <ele>419.3742</ele>
        <time>2026-02-05T13:54:21Z</time>
      </trkpt>
      <trkpt lat="48.46352" lon="7.1907">
        <ele>419.3742</ele>
        <time>2026-02-05T13:54:26Z</time>
      </trkpt>
      <trkpt lat="48.46352" lon="7.19062">
        <ele>421.48148</ele>
        <time>2026-02-05T13:54:31Z</time>
      </trkpt>
      <trkpt lat="48.46351" lon="7.19055">
        <ele>423.58875</ele>
        <time>2026-02-05T13:54:36Z</time>
      </trkpt>
      <trkpt lat="48.4635" lon="7.19048">
        <ele>425.69604</ele>
        <time>2026-02-05T13:54:41Z</time>
      </trkpt>
      <trkpt lat="48.46349" lon="7.1904">
        <ele>427.8033</ele>
        <time>2026-02-05T13:54:49Z</time>
      </trkpt>
      <trkpt lat="48.46347" lon="7.19034">
        <ele>429.91058</ele>
        <time>2026-02-05T13:54:54Z</time>
      </trkpt>
      <trkpt lat="48.46345" lon="7.19027">
        <ele>429.91058</ele>
        <time>2026-02-05T13:54:59Z</time>
      </trkpt>
      <trkpt lat="48.46344" lon="7.1902">
        <ele>429.91058</ele>
        <time>2026-02-05T13:55:04Z</time>
      </trkpt>
      <trkpt lat="48.46343" lon="7.19012">
        <ele>429.91058</ele>
        <time>2026-02-05T13:55:09Z</time>
      </trkpt>
      <trkpt lat="48.46341" lon="7.19005">
        <ele>429.91058</ele>
        <time>2026-02-05T13:55:15Z</time>
      </trkpt>
      <trkpt lat="48.46339" lon="7.18997">
        <ele>429.91058</ele>
        <time>2026-02-05T13:55:21Z</time>
      </trkpt>
      <trkpt lat="48.46338" lon="7.18991">
        <ele>429.91058</ele>
        <time>2026-02-05T13:55:25Z</time>
      </trkpt>
      <trkpt lat="48.46337" lon="7.18983">
        <ele>429.91058</ele>
        <time>2026-02-05T13:55:30Z</time>
      </trkpt>
      <trkpt lat="48.46336" lon="7.18977">
        <ele>432.1612</ele>
        <time>2026-02-05T13:55:35Z</time>
      </trkpt>
      <trkpt lat="48.46334" lon="7.18969">
        <ele>434.4118</ele>
        <time>2026-02-05T13:55:41Z</time>
      </trkpt>
      <trkpt lat="48.46332" lon="7.1896">
        <ele>436.66238</ele>
        <time>2026-02-05T13:55:47Z</time>
      </trkpt>
      <trkpt lat="48.46331" lon="7.18952">
        <ele>438.913</ele>
        <time>2026-02-05T13:55:53Z</time>
      </trkpt>
      <trkpt lat="48.4633" lon="7.18945">
        <ele>441.1636</ele>
        <time>2026-02-05T13:55:58Z</time>
      </trkpt>
      <trkpt lat="48.46328" lon="7.18937">
        <ele>441.1636</ele>
        <time>2026-02-05T13:56:04Z</time>
      </trkpt>
      <trkpt lat="48.46326" lon="7.1893">
        <ele>441.1636</ele>
        <time>2026-02-05T13:56:09Z</time>
      </trkpt>
      <trkpt lat="48.46324" lon="7.18923">
        <ele>441.1636</ele>
        <time>2026-02-05T13:56:16Z</time>
      </trkpt>
      <trkpt lat="48.46322" lon="7.18917">
        <ele>441.1636</ele>
        <time>2026-02-05T13:56:21Z</time>
      </trkpt>
      <trkpt lat="48.4632" lon="7.1891">
        <ele>441.1636</ele>
        <time>2026-02-05T13:56:26Z</time>
      </trkpt>
      <trkpt lat="48.46318" lon="7.18903">
        <ele>441.1636</ele>
        <time>2026-02-05T13:56:32Z</time>
      </trkpt>
      <trkpt lat="48.46315" lon="7.18896">
        <ele>441.1636</ele>
        <time>2026-02-05T13:56:38Z</time>
      </trkpt>
      <trkpt lat="48.46313" lon="7.1889">
        <ele>441.1636</ele>
        <time>2026-02-05T13:56:43Z</time>
      </trkpt>
      <trkpt lat="48.46311" lon="7.18884">
        <ele>441.1636</ele>
        <time>2026-02-05T13:56:47Z</time>
      </trkpt>
      <trkpt lat="48.46309" lon="7.18877">
        <ele>441.1636</ele>
        <time>2026-02-05T13:56:53Z</time>
      </trkpt>
      <trkpt lat="48.46306" lon="7.1887">
        <ele>441.1636</ele>
        <time>2026-02-05T13:56:59Z</time>
      </trkpt>
      <trkpt lat="48.46304" lon="7.18863">
        <ele>443.24158</ele>
        <time>2026-02-05T13:57:04Z</time>
      </trkpt>
      <trkpt lat="48.46301" lon="7.18857">
        <ele>445.31955</ele>
        <time>2026-02-05T13:57:09Z</time>
      </trkpt>
      <trkpt lat="48.46299" lon="7.1885">
        <ele>447.39752</ele>
        <time>2026-02-05T13:57:15Z</time>
      </trkpt>
      <trkpt lat="48.46296" lon="7.18844">
        <ele>449.4755</ele>
        <time>2026-02-05T13:57:21Z</time>
      </trkpt>
      <trkpt lat="48.46294" lon="7.18837">
        <ele>451.55347</ele>
        <time>2026-02-05T13:57:27Z</time>
      </trkpt>
      <trkpt lat="48.46291" lon="7.1883">
        <ele>451.55347</ele>
        <time>2026-02-05T13:57:33Z</time>
      </trkpt>
      <trkpt lat="48.46289" lon="7.18823">
        <ele>451.55347</ele>
        <time>2026-02-05T13:57:39Z</time>
      </trkpt>
      <trkpt lat="48.46287" lon="7.18816">
        <ele>451.55347</ele>
        <time>2026-02-05T13:57:44Z</time>
      </trkpt>
      <trkpt lat="48.46284" lon="7.18809">
        <ele>451.55347</ele>
        <time>2026-02-05T13:57:50Z</time>
      </trkpt>
      <trkpt lat="48.46283" lon="7.18801">
        <ele>451.55347</ele>
        <time>2026-02-05T13:57:57Z</time>
      </trkpt>
      <trkpt lat="48.4628" lon="7.18794">
        <ele>451.55347</ele>
        <time>2026-02-05T13:58:03Z</time>
      </trkpt>
      <trkpt lat="48.46278" lon="7.18787">
        <ele>451.55347</ele>
        <time>2026-02-05T13:58:09Z</time>
      </trkpt>
      <trkpt lat="48.46276" lon="7.1878">
        <ele>451.55347</ele>
        <time>2026-02-05T13:58:13Z</time>
      </trkpt>
      <trkpt lat="48.46273" lon="7.18772">
        <ele>451.55347</ele>
        <time>2026-02-05T13:58:19Z</time>
      </trkpt>
      <trkpt lat="48.46272" lon="7.18765">
        <ele>451.55347</ele>
        <time>2026-02-05T13:58:24Z</time>
      </trkpt>
      <trkpt lat="48.46269" lon="7.18758">
        <ele>451.55347</ele>
        <time>2026-02-05T13:58:29Z</time>
      </trkpt>
      <trkpt lat="48.46267" lon="7.18752">
        <ele>451.55347</ele>
        <time>2026-02-05T13:58:35Z</time>
      </trkpt>
      <trkpt lat="48.46265" lon="7.18744">
        <ele>451.55347</ele>
        <time>2026-02-05T13:58:40Z</time>
      </trkpt>
      <trkpt lat="48.46263" lon="7.18737">
        <ele>451.55347</ele>
        <time>2026-02-05T13:58:45Z</time>
      </trkpt>
      <trkpt lat="48.46261" lon="7.18731">
        <ele>451.55347</ele>
        <time>2026-02-05T13:58:49Z</time>
      </trkpt>
      <trkpt lat="48.46259" lon="7.18724">
        <ele>451.55347</ele>
        <time>2026-02-05T13:58:54Z</time>
      </trkpt>
      <trkpt lat="48.46257" lon="7.18717">
        <ele>451.55347</ele>
        <time>2026-02-05T13:59:00Z</time>
      </trkpt>
      <trkpt lat="48.46256" lon="7.18711">
        <ele>451.55347</ele>
        <time>2026-02-05T13:59:05Z</time>
      </trkpt>
      <trkpt lat="48.46254" lon="7.18705">
        <ele>451.55347</ele>
        <time>2026-02-05T13:59:10Z</time>
      </trkpt>
      <trkpt lat="48.46252" lon="7.18698">
        <ele>451.55347</ele>
        <time>2026-02-05T13:59:16Z</time>
      </trkpt>
      <trkpt lat="48.4625" lon="7.18691">
        <ele>451.55347</ele>
        <time>2026-02-05T13:59:22Z</time>
      </trkpt>
      <trkpt lat="48.46251" lon="7.18697">
        <ele>451.55347</ele>
        <time>2026-02-05T14:00:29Z</time>
      </trkpt>
      <trkpt lat="48.46254" lon="7.18691">
        <ele>451.55347</ele>
        <time>2026-02-05T14:01:58Z</time>
      </trkpt>
      <trkpt lat="48.46254" lon="7.18684">
        <ele>451.55347</ele>
        <time>2026-02-05T14:03:09Z</time>
      </trkpt>
      <trkpt lat="48.46253" lon="7.18677">
        <ele>451.55347</ele>
        <time>2026-02-05T14:03:14Z</time>
      </trkpt>
      <trkpt lat="48.46254" lon="7.1867">
        <ele>451.55347</ele>
        <time>2026-02-05T14:03:19Z</time>
      </trkpt>
      <trkpt lat="48.46251" lon="7.18664">
        <ele>451.55347</ele>
        <time>2026-02-05T14:03:24Z</time>
      </trkpt>
      <trkpt lat="48.46251" lon="7.18656">
        <ele>451.55347</ele>
        <time>2026-02-05T14:03:29Z</time>
      </trkpt>
      <trkpt lat="48.46249" lon="7.18649">
        <ele>451.55347</ele>
        <time>2026-02-05T14:03:33Z</time>
      </trkpt>
      <trkpt lat="48.46249" lon="7.18642">
        <ele>451.55347</ele>
        <time>2026-02-05T14:03:38Z</time>
      </trkpt>
      <trkpt lat="48.46248" lon="7.18634">
        <ele>451.55347</ele>
        <time>2026-02-05T14:03:42Z</time>
      </trkpt>
      <trkpt lat="48.46248" lon="7.18627">
        <ele>451.55347</ele>
        <time>2026-02-05T14:03:47Z</time>
      </trkpt>
      <trkpt lat="48.46249" lon="7.18619">
        <ele>451.55347</ele>
        <time>2026-02-05T14:03:52Z</time>
      </trkpt>
      <trkpt lat="48.46249" lon="7.18611">
        <ele>451.55347</ele>
        <time>2026-02-05T14:03:56Z</time>
      </trkpt>
      <trkpt lat="48.46249" lon="7.18603">
        <ele>451.55347</ele>
        <time>2026-02-05T14:04:01Z</time>
      </trkpt>
      <trkpt lat="48.46249" lon="7.18594">
        <ele>451.55347</ele>
        <time>2026-02-05T14:04:06Z</time>
      </trkpt>
      <trkpt lat="48.4625" lon="7.18588">
        <ele>451.55347</ele>
        <time>2026-02-05T14:04:12Z</time>
      </trkpt>
      <trkpt lat="48.46251" lon="7.18581">
        <ele>451.55347</ele>
        <time>2026-02-05T14:04:15Z</time>
      </trkpt>
      <trkpt lat="48.46252" lon="7.18574">
        <ele>451.55347</ele>
        <time>2026-02-05T14:04:20Z</time>
      </trkpt>
      <trkpt lat="48.46253" lon="7.18565">
        <ele>451.55347</ele>
        <time>2026-02-05T14:04:24Z</time>
      </trkpt>
      <trkpt lat="48.46254" lon="7.18558">
        <ele>451.55347</ele>
        <time>2026-02-05T14:04:31Z</time>
      </trkpt>
      <trkpt lat="48.46255" lon="7.18549">
        <ele>451.55347</ele>
        <time>2026-02-05T14:04:37Z</time>
      </trkpt>
      <trkpt lat="48.46256" lon="7.18543">
        <ele>451.55347</ele>
        <time>2026-02-05T14:04:41Z</time>
      </trkpt>
      <trkpt lat="48.46257" lon="7.18535">
        <ele>453.80716</ele>
        <time>2026-02-05T14:04:46Z</time>
      </trkpt>
      <trkpt lat="48.46258" lon="7.18528">
        <ele>456.06085</ele>
        <time>2026-02-05T14:04:51Z</time>
      </trkpt>
      <trkpt lat="48.46259" lon="7.18521">
        <ele>458.31458</ele>
        <time>2026-02-05T14:04:58Z</time>
      </trkpt>
      <trkpt lat="48.46259" lon="7.18513">
        <ele>460.56827</ele>
        <time>2026-02-05T14:05:02Z</time>
      </trkpt>
      <trkpt lat="48.4626" lon="7.18505">
        <ele>462.82196</ele>
        <time>2026-02-05T14:05:08Z</time>
      </trkpt>
      <trkpt lat="48.4626" lon="7.18498">
        <ele>462.82196</ele>
        <time>2026-02-05T14:05:14Z</time>
      </trkpt>
      <trkpt lat="48.46259" lon="7.18489">
        <ele>462.82196</ele>
        <time>2026-02-05T14:05:19Z</time>
      </trkpt>
      <trkpt lat="48.46259" lon="7.18482">
        <ele>462.82196</ele>
        <time>2026-02-05T14:05:23Z</time>
      </trkpt>
      <trkpt lat="48.46256" lon="7.18476">
        <ele>462.82196</ele>
        <time>2026-02-05T14:05:31Z</time>
      </trkpt>
      <trkpt lat="48.46253" lon="7.18471">
        <ele>462.82196</ele>
        <time>2026-02-05T14:05:34Z</time>
      </trkpt>
      <trkpt lat="48.4625" lon="7.18466">
        <ele>462.82196</ele>
        <time>2026-02-05T14:05:40Z</time>
      </trkpt>
      <trkpt lat="48.46246" lon="7.1846">
        <ele>462.82196</ele>
        <time>2026-02-05T14:05:45Z</time>
      </trkpt>
      <trkpt lat="48.46243" lon="7.18455">
        <ele>462.82196</ele>
        <time>2026-02-05T14:05:50Z</time>
      </trkpt>
      <trkpt lat="48.46239" lon="7.18448">
        <ele>462.82196</ele>
        <time>2026-02-05T14:05:55Z</time>
      </trkpt>
      <trkpt lat="48.46236" lon="7.18442">
        <ele>462.82196</ele>
        <time>2026-02-05T14:06:00Z</time>
      </trkpt>
      <trkpt lat="48.46234" lon="7.18435">
        <ele>462.82196</ele>
        <time>2026-02-05T14:06:04Z</time>
      </trkpt>
      <trkpt lat="48.46232" lon="7.18427">
        <ele>462.82196</ele>
        <time>2026-02-05T14:06:09Z</time>
      </trkpt>
      <trkpt lat="48.46231" lon="7.1842">
        <ele>462.82196</ele>
        <time>2026-02-05T14:06:14Z</time>
      </trkpt>
      <trkpt lat="48.4623" lon="7.18411">
        <ele>462.82196</ele>
        <time>2026-02-05T14:06:16Z</time>
      </trkpt>
      <trkpt lat="48.4623" lon="7.18404">
        <ele>462.82196</ele>
        <time>2026-02-05T14:06:23Z</time>
      </trkpt>
      <trkpt lat="48.4623" lon="7.18396">
        <ele>462.82196</ele>
        <time>2026-02-05T14:06:29Z</time>
      </trkpt>
      <trkpt lat="48.46231" lon="7.18389">
        <ele>462.82196</ele>
        <time>2026-02-05T14:06:35Z</time>
      </trkpt>
      <trkpt lat="48.46232" lon="7.18381">
        <ele>462.82196</ele>
        <time>2026-02-05T14:06:40Z</time>
      </trkpt>
      <trkpt lat="48.46232" lon="7.18373">
        <ele>462.82196</ele>
        <time>2026-02-05T14:06:44Z</time>
      </trkpt>
      <trkpt lat="48.46233" lon="7.18366">
        <ele>462.82196</ele>
        <time>2026-02-05T14:06:52Z</time>
      </trkpt>
      <trkpt lat="48.46233" lon="7.18359">
        <ele>462.82196</ele>
        <time>2026-02-05T14:06:57Z</time>
      </trkpt>
      <trkpt lat="48.46233" lon="7.18351">
        <ele>462.82196</ele>
        <time>2026-02-05T14:07:00Z</time>
      </trkpt>
      <trkpt lat="48.46233" lon="7.18344">
        <ele>462.82196</ele>
        <time>2026-02-05T14:07:04Z</time>
      </trkpt>
      <trkpt lat="48.46233" lon="7.18335">
        <ele>464.94315</ele>
        <time>2026-02-05T14:07:09Z</time>
      </trkpt>
      <trkpt lat="48.46232" lon="7.18326">
        <ele>467.06433</ele>
        <time>2026-02-05T14:07:17Z</time>
      </trkpt>
      <trkpt lat="48.46233" lon="7.18319">
        <ele>469.18555</ele>
        <time>2026-02-05T14:07:23Z</time>
      </trkpt>
      <trkpt lat="48.46233" lon="7.18312">
        <ele>471.30673</ele>
        <time>2026-02-05T14:07:28Z</time>
      </trkpt>
      <trkpt lat="48.4623" lon="7.18305">
        <ele>473.42792</ele>
        <time>2026-02-05T14:07:31Z</time>
      </trkpt>
      <trkpt lat="48.46229" lon="7.18297">
        <ele>473.42792</ele>
        <time>2026-02-05T14:07:40Z</time>
      </trkpt>
      <trkpt lat="48.46226" lon="7.18289">
        <ele>473.42792</ele>
        <time>2026-02-05T14:07:44Z</time>
      </trkpt>
      <trkpt lat="48.46224" lon="7.18281">
        <ele>473.42792</ele>
        <time>2026-02-05T14:07:48Z</time>
      </trkpt>
      <trkpt lat="48.4622" lon="7.18273">
        <ele>473.42792</ele>
        <time>2026-02-05T14:07:58Z</time>
      </trkpt>
      <trkpt lat="48.46217" lon="7.18268">
        <ele>473.42792</ele>
        <time>2026-02-05T14:08:02Z</time>
      </trkpt>
      <trkpt lat="48.46214" lon="7.18264">
        <ele>473.42792</ele>
        <time>2026-02-05T14:08:09Z</time>
      </trkpt>
      <trkpt lat="48.4621" lon="7.18259">
        <ele>473.42792</ele>
        <time>2026-02-05T14:08:14Z</time>
      </trkpt>
      <trkpt lat="48.46205" lon="7.18256">
        <ele>473.42792</ele>
        <time>2026-02-05T14:08:19Z</time>
      </trkpt>
      <trkpt lat="48.46201" lon="7.18251">
        <ele>473.42792</ele>
        <time>2026-02-05T14:08:24Z</time>
      </trkpt>
      <trkpt lat="48.46198" lon="7.18247">
        <ele>473.42792</ele>
        <time>2026-02-05T14:08:29Z</time>
      </trkpt>
      <trkpt lat="48.46194" lon="7.18242">
        <ele>473.42792</ele>
        <time>2026-02-05T14:08:37Z</time>
      </trkpt>
      <trkpt lat="48.4619" lon="7.18237">
        <ele>473.42792</ele>
        <time>2026-02-05T14:08:44Z</time>
      </trkpt>
      <trkpt lat="48.46186" lon="7.18231">
        <ele>473.42792</ele>
        <time>2026-02-05T14:08:50Z</time>
      </trkpt>
      <trkpt lat="48.46182" lon="7.18226">
        <ele>473.42792</ele>
        <time>2026-02-05T14:08:56Z</time>
      </trkpt>
      <trkpt lat="48.46179" lon="7.18221">
        <ele>473.42792</ele>
        <time>2026-02-05T14:09:01Z</time>
      </trkpt>
      <trkpt lat="48.46176" lon="7.18215">
        <ele>475.62912</ele>
        <time>2026-02-05T14:09:06Z</time>
      </trkpt>
      <trkpt lat="48.46173" lon="7.18209">
        <ele>477.83032</ele>
        <time>2026-02-05T14:09:11Z</time>
      </trkpt>
      <trkpt lat="48.4617" lon="7.18203">
        <ele>480.03152</ele>
        <time>2026-02-05T14:09:18Z</time>
      </trkpt>
      <trkpt lat="48.46169" lon="7.18195">
        <ele>482.23273</ele>
        <time>2026-02-05T14:10:03Z</time>
      </trkpt>
      <trkpt lat="48.46177" lon="7.18198">
        <ele>484.43393</ele>
        <time>2026-02-05T14:11:22Z</time>
      </trkpt>
      <trkpt lat="48.46173" lon="7.18192">
        <ele>484.43393</ele>
        <time>2026-02-05T14:13:12Z</time>
      </trkpt>
      <trkpt lat="48.4617" lon="7.18187">
        <ele>484.43393</ele>
        <time>2026-02-05T14:13:17Z</time>
      </trkpt>
      <trkpt lat="48.46172" lon="7.18181">
        <ele>484.43393</ele>
        <time>2026-02-05T14:13:26Z</time>
      </trkpt>
      <trkpt lat="48.46169" lon="7.18176">
        <ele>484.43393</ele>
        <time>2026-02-05T14:13:30Z</time>
      </trkpt>
      <trkpt lat="48.46165" lon="7.1817">
        <ele>484.43393</ele>
        <time>2026-02-05T14:13:37Z</time>
      </trkpt>
      <trkpt lat="48.46161" lon="7.18164">
        <ele>484.43393</ele>
        <time>2026-02-05T14:13:39Z</time>
      </trkpt>
      <trkpt lat="48.46158" lon="7.18155">
        <ele>484.43393</ele>
        <time>2026-02-05T14:13:47Z</time>
      </trkpt>
      <trkpt lat="48.46157" lon="7.18148">
        <ele>484.43393</ele>
        <time>2026-02-05T14:13:52Z</time>
      </trkpt>
      <trkpt lat="48.46156" lon="7.18142">
        <ele>484.43393</ele>
        <time>2026-02-05T14:13:54Z</time>
      </trkpt>
      <trkpt lat="48.46155" lon="7.18135">
        <ele>484.43393</ele>
        <time>2026-02-05T14:13:58Z</time>
      </trkpt>
      <trkpt lat="48.46154" lon="7.18127">
        <ele>484.43393</ele>
        <time>2026-02-05T14:14:04Z</time>
      </trkpt>
      <trkpt lat="48.46153" lon="7.18119">
        <ele>484.43393</ele>
        <time>2026-02-05T14:14:09Z</time>
      </trkpt>
      <trkpt lat="48.46154" lon="7.18111">
        <ele>484.43393</ele>
        <time>2026-02-05T14:14:15Z</time>
      </trkpt>
      <trkpt lat="48.46154" lon="7.18103">
        <ele>484.43393</ele>
        <time>2026-02-05T14:14:23Z</time>
      </trkpt>
      <trkpt lat="48.46156" lon="7.18095">
        <ele>484.43393</ele>
        <time>2026-02-05T14:14:26Z</time>
      </trkpt>
      <trkpt lat="48.46159" lon="7.18087">
        <ele>484.43393</ele>
        <time>2026-02-05T14:14:30Z</time>
      </trkpt>
      <trkpt lat="48.46163" lon="7.18081">
        <ele>484.43393</ele>
        <time>2026-02-05T14:14:36Z</time>
      </trkpt>
      <trkpt lat="48.46166" lon="7.18076">
        <ele>484.43393</ele>
        <time>2026-02-05T14:14:41Z</time>
      </trkpt>
      <trkpt lat="48.4617" lon="7.18071">
        <ele>484.43393</ele>
        <time>2026-02-05T14:14:46Z</time>
      </trkpt>
      <trkpt lat="48.46175" lon="7.18067">
        <ele>484.43393</ele>
        <time>2026-02-05T14:14:52Z</time>
      </trkpt>
      <trkpt lat="48.4618" lon="7.18064">
        <ele>484.43393</ele>
        <time>2026-02-05T14:14:55Z</time>
      </trkpt>
      <trkpt lat="48.46185" lon="7.18061">
        <ele>484.43393</ele>
        <time>2026-02-05T14:15:00Z</time>
      </trkpt>
      <trkpt lat="48.4619" lon="7.18057">
        <ele>484.43393</ele>
        <time>2026-02-05T14:15:08Z</time>
      </trkpt>
      <trkpt lat="48.46194" lon="7.18054">
        <ele>484.43393</ele>
        <time>2026-02-05T14:15:12Z</time>
      </trkpt>
      <trkpt lat="48.46199" lon="7.18052">
        <ele>484.43393</ele>
        <time>2026-02-05T14:15:19Z</time>
      </trkpt>
      <trkpt lat="48.46204" lon="7.1805">
        <ele>486.50067</ele>
        <time>2026-02-05T14:15:25Z</time>
      </trkpt>
      <trkpt lat="48.46209" lon="7.18048">
        <ele>488.56738</ele>
        <time>2026-02-05T14:15:31Z</time>
      </trkpt>
      <trkpt lat="48.46214" lon="7.18046">
        <ele>490.63412</ele>
        <time>2026-02-05T14:15:37Z</time>
      </trkpt>
      <trkpt lat="48.46219" lon="7.18043">
        <ele>492.70084</ele>
        <time>2026-02-05T14:15:42Z</time>
      </trkpt>
      <trkpt lat="48.46223" lon="7.18041">
        <ele>494.76758</ele>
        <time>2026-02-05T14:15:47Z</time>
      </trkpt>
      <trkpt lat="48.46228" lon="7.18039">
        <ele>494.76758</ele>
        <time>2026-02-05T14:15:53Z</time>
      </trkpt>
      <trkpt lat="48.46234" lon="7.18038">
        <ele>494.76758</ele>
        <time>2026-02-05T14:15:59Z</time>
      </trkpt>
      <trkpt lat="48.46239" lon="7.18036">
        <ele>494.76758</ele>
        <time>2026-02-05T14:16:03Z</time>
      </trkpt>
      <trkpt lat="48.46244" lon="7.18035">
        <ele>494.76758</ele>
        <time>2026-02-05T14:16:08Z</time>
      </trkpt>
      <trkpt lat="48.46249" lon="7.18035">
        <ele>494.76758</ele>
        <time>2026-02-05T14:16:13Z</time>
      </trkpt>
      <trkpt lat="48.46254" lon="7.18033">
        <ele>494.76758</ele>
        <time>2026-02-05T14:16:19Z</time>
      </trkpt>
      <trkpt lat="48.46259" lon="7.18032">
        <ele>494.76758</ele>
        <time>2026-02-05T14:16:25Z</time>
      </trkpt>
      <trkpt lat="48.46265" lon="7.18031">
        <ele>494.76758</ele>
        <time>2026-02-05T14:16:32Z</time>
      </trkpt>
      <trkpt lat="48.4627" lon="7.18029">
        <ele>494.76758</ele>
        <time>2026-02-05T14:16:37Z</time>
      </trkpt>
      <trkpt lat="48.46275" lon="7.18028">
        <ele>494.76758</ele>
        <time>2026-02-05T14:16:43Z</time>
      </trkpt>
      <trkpt lat="48.4628" lon="7.18026">
        <ele>494.76758</ele>
        <time>2026-02-05T14:16:48Z</time>
      </trkpt>
      <trkpt lat="48.46285" lon="7.18025">
        <ele>496.79218</ele>
        <time>2026-02-05T14:16:59Z</time>
      </trkpt>
      <trkpt lat="48.46277" lon="7.18029">
        <ele>501.12894</ele>
        <time>2026-02-05T14:17:48Z</time>
      </trkpt>
      <trkpt lat="48.46283" lon="7.18027">
        <ele>503.10886</ele>
        <time>2026-02-05T14:18:20Z</time>
      </trkpt>
      <trkpt lat="48.46288" lon="7.18029">
        <ele>505.08878</ele>
        <time>2026-02-05T14:18:47Z</time>
      </trkpt>
      <trkpt lat="48.4629" lon="7.18022">
        <ele>507.0687</ele>
        <time>2026-02-05T14:18:50Z</time>
      </trkpt>
      <trkpt lat="48.46296" lon="7.18021">
        <ele>507.02402</ele>
        <time>2026-02-05T14:18:56Z</time>
      </trkpt>
      <trkpt lat="48.463" lon="7.18021">
        <ele>504.66718</ele>
        <time>2026-02-05T14:19:01Z</time>
      </trkpt>
      <trkpt lat="48.46306" lon="7.1802">
        <ele>504.66718</ele>
        <time>2026-02-05T14:19:05Z</time>
      </trkpt>
      <trkpt lat="48.4631" lon="7.18014">
        <ele>504.66718</ele>
        <time>2026-02-05T14:19:08Z</time>
      </trkpt>
      <trkpt lat="48.46318" lon="7.1801">
        <ele>504.66718</ele>
        <time>2026-02-05T14:19:16Z</time>
      </trkpt>
      <trkpt lat="48.46322" lon="7.18006">
        <ele>504.66718</ele>
        <time>2026-02-05T14:19:26Z</time>
      </trkpt>
      <trkpt lat="48.46326" lon="7.18003">
        <ele>504.66718</ele>
        <time>2026-02-05T14:19:30Z</time>
      </trkpt>
      <trkpt lat="48.46331" lon="7.17999">
        <ele>504.66718</ele>
        <time>2026-02-05T14:19:37Z</time>
      </trkpt>
      <trkpt lat="48.46337" lon="7.17995">
        <ele>504.66718</ele>
        <time>2026-02-05T14:19:40Z</time>
      </trkpt>
      <trkpt lat="48.46341" lon="7.17992">
        <ele>504.66718</ele>
        <time>2026-02-05T14:19:48Z</time>
      </trkpt>
      <trkpt lat="48.46344" lon="7.17988">
        <ele>504.66718</ele>
        <time>2026-02-05T14:19:53Z</time>
      </trkpt>
      <trkpt lat="48.46349" lon="7.17985">
        <ele>504.66718</ele>
        <time>2026-02-05T14:19:57Z</time>
      </trkpt>
      <trkpt lat="48.46353" lon="7.1798">
        <ele>504.66718</ele>
        <time>2026-02-05T14:20:01Z</time>
      </trkpt>
      <trkpt lat="48.46357" lon="7.17975">
        <ele>504.66718</ele>
        <time>2026-02-05T14:20:06Z</time>
      </trkpt>
      <trkpt lat="48.46362" lon="7.17971">
        <ele>504.66718</ele>
        <time>2026-02-05T14:20:13Z</time>
      </trkpt>
      <trkpt lat="48.46366" lon="7.17966">
        <ele>506.70773</ele>
        <time>2026-02-05T14:20:17Z</time>
      </trkpt>
      <trkpt lat="48.4637" lon="7.17962">
        <ele>508.7483</ele>
        <time>2026-02-05T14:20:23Z</time>
      </trkpt>
      <trkpt lat="48.46374" lon="7.17957">
        <ele>510.78882</ele>
        <time>2026-02-05T14:20:29Z</time>
      </trkpt>
      <trkpt lat="48.46378" lon="7.17953">
        <ele>512.8294</ele>
        <time>2026-02-05T14:20:34Z</time>
      </trkpt>
      <trkpt lat="48.46382" lon="7.17948">
        <ele>514.86993</ele>
        <time>2026-02-05T14:20:39Z</time>
      </trkpt>
      <trkpt lat="48.46386" lon="7.17944">
        <ele>514.86993</ele>
        <time>2026-02-05T14:20:46Z</time>
      </trkpt>
      <trkpt lat="48.46391" lon="7.17937">
        <ele>514.86993</ele>
        <time>2026-02-05T14:20:51Z</time>
      </trkpt>
      <trkpt lat="48.46394" lon="7.17933">
        <ele>514.86993</ele>
        <time>2026-02-05T14:20:56Z</time>
      </trkpt>
      <trkpt lat="48.46398" lon="7.17928">
        <ele>514.86993</ele>
        <time>2026-02-05T14:21:02Z</time>
      </trkpt>
      <trkpt lat="48.46401" lon="7.17923">
        <ele>514.86993</ele>
        <time>2026-02-05T14:21:07Z</time>
      </trkpt>
      <trkpt lat="48.46404" lon="7.17918">
        <ele>514.86993</ele>
        <time>2026-02-05T14:21:11Z</time>
      </trkpt>
      <trkpt lat="48.46407" lon="7.17912">
        <ele>514.86993</ele>
        <time>2026-02-05T14:21:17Z</time>
      </trkpt>
      <trkpt lat="48.4641" lon="7.17904">
        <ele>514.86993</ele>
        <time>2026-02-05T14:21:21Z</time>
      </trkpt>
      <trkpt lat="48.46411" lon="7.17898">
        <ele>514.86993</ele>
        <time>2026-02-05T14:21:26Z</time>
      </trkpt>
      <trkpt lat="48.46412" lon="7.1789">
        <ele>514.86993</ele>
        <time>2026-02-05T14:21:31Z</time>
      </trkpt>
      <trkpt lat="48.46413" lon="7.17882">
        <ele>514.86993</ele>
        <time>2026-02-05T14:21:37Z</time>
      </trkpt>
      <trkpt lat="48.46414" lon="7.17875">
        <ele>514.86993</ele>
        <time>2026-02-05T14:21:41Z</time>
      </trkpt>
      <trkpt lat="48.46415" lon="7.17867">
        <ele>514.86993</ele>
        <time>2026-02-05T14:21:45Z</time>
      </trkpt>
      <trkpt lat="48.46416" lon="7.1786">
        <ele>514.86993</ele>
        <time>2026-02-05T14:21:50Z</time>
      </trkpt>
      <trkpt lat="48.46416" lon="7.17853">
        <ele>514.86993</ele>
        <time>2026-02-05T14:21:55Z</time>
      </trkpt>
      <trkpt lat="48.46416" lon="7.17846">
        <ele>514.86993</ele>
        <time>2026-02-05T14:21:58Z</time>
      </trkpt>
      <trkpt lat="48.46416" lon="7.17837">
        <ele>514.86993</ele>
        <time>2026-02-05T14:22:04Z</time>
      </trkpt>
      <trkpt lat="48.46415" lon="7.17829">
        <ele>514.86993</ele>
        <time>2026-02-05T14:22:12Z</time>
      </trkpt>
      <trkpt lat="48.46413" lon="7.17822">
        <ele>514.86993</ele>
        <time>2026-02-05T14:22:16Z</time>
      </trkpt>
      <trkpt lat="48.46411" lon="7.17815">
        <ele>514.86993</ele>
        <time>2026-02-05T14:22:19Z</time>
      </trkpt>
      <trkpt lat="48.46408" lon="7.17809">
        <ele>517.3957</ele>
        <time>2026-02-05T14:22:35Z</time>
      </trkpt>
      <trkpt lat="48.46405" lon="7.17805">
        <ele>519.9215</ele>
        <time>2026-02-05T14:22:38Z</time>
      </trkpt>
      <trkpt lat="48.46399" lon="7.17802">
        <ele>522.44727</ele>
        <time>2026-02-05T14:22:43Z</time>
      </trkpt>
      <trkpt lat="48.46395" lon="7.17801">
        <ele>524.9731</ele>
        <time>2026-02-05T14:22:46Z</time>
      </trkpt>
      <trkpt lat="48.46389" lon="7.17799">
        <ele>527.49884</ele>
        <time>2026-02-05T14:22:50Z</time>
      </trkpt>
      <trkpt lat="48.46384" lon="7.17799">
        <ele>527.49884</ele>
        <time>2026-02-05T14:22:55Z</time>
      </trkpt>
      <trkpt lat="48.46379" lon="7.17799">
        <ele>527.49884</ele>
        <time>2026-02-05T14:23:02Z</time>
      </trkpt>
      <trkpt lat="48.46374" lon="7.17799">
        <ele>527.49884</ele>
        <time>2026-02-05T14:23:08Z</time>
      </trkpt>
      <trkpt lat="48.46369" lon="7.17799">
        <ele>527.49884</ele>
        <time>2026-02-05T14:23:11Z</time>
      </trkpt>
      <trkpt lat="48.46364" lon="7.178">
        <ele>527.49884</ele>
        <time>2026-02-05T14:23:16Z</time>
      </trkpt>
      <trkpt lat="48.46359" lon="7.17801">
        <ele>527.49884</ele>
        <time>2026-02-05T14:23:22Z</time>
      </trkpt>
      <trkpt lat="48.46354" lon="7.17802">
        <ele>527.49884</ele>
        <time>2026-02-05T14:23:29Z</time>
      </trkpt>
      <trkpt lat="48.46348" lon="7.17804">
        <ele>527.49884</ele>
        <time>2026-02-05T14:23:36Z</time>
      </trkpt>
      <trkpt lat="48.46343" lon="7.17805">
        <ele>527.49884</ele>
        <time>2026-02-05T14:23:41Z</time>
      </trkpt>
      <trkpt lat="48.46338" lon="7.17806">
        <ele>527.49884</ele>
        <time>2026-02-05T14:23:46Z</time>
      </trkpt>
      <trkpt lat="48.46333" lon="7.17807">
        <ele>527.49884</ele>
        <time>2026-02-05T14:23:50Z</time>
      </trkpt>
      <trkpt lat="48.46328" lon="7.17807">
        <ele>527.49884</ele>
        <time>2026-02-05T14:23:57Z</time>
      </trkpt>
      <trkpt lat="48.46323" lon="7.17806">
        <ele>527.49884</ele>
        <time>2026-02-05T14:24:02Z</time>
      </trkpt>
      <trkpt lat="48.46318" lon="7.17807">
        <ele>527.49884</ele>
        <time>2026-02-05T14:24:07Z</time>
      </trkpt>
      <trkpt lat="48.46314" lon="7.17805">
        <ele>527.49884</ele>
        <time>2026-02-05T14:24:13Z</time>
      </trkpt>
      <trkpt lat="48.46308" lon="7.17802">
        <ele>527.49884</ele>
        <time>2026-02-05T14:24:19Z</time>
      </trkpt>
      <trkpt lat="48.46304" lon="7.17796">
        <ele>527.49884</ele>
        <time>2026-02-05T14:24:25Z</time>
      </trkpt>
      <trkpt lat="48.46301" lon="7.1779">
        <ele>527.49884</ele>
        <time>2026-02-05T14:24:32Z</time>
      </trkpt>
      <trkpt lat="48.46298" lon="7.17784">
        <ele>527.49884</ele>
        <time>2026-02-05T14:24:35Z</time>
      </trkpt>
      <trkpt lat="48.46294" lon="7.17775">
        <ele>527.49884</ele>
        <time>2026-02-05T14:24:43Z</time>
      </trkpt>
      <trkpt lat="48.46292" lon="7.17769">
        <ele>527.49884</ele>
        <time>2026-02-05T14:24:48Z</time>
      </trkpt>
      <trkpt lat="48.4629" lon="7.17763">
        <ele>527.49884</ele>
        <time>2026-02-05T14:24:53Z</time>
      </trkpt>
      <trkpt lat="48.46287" lon="7.17756">
        <ele>527.49884</ele>
        <time>2026-02-05T14:24:58Z</time>
      </trkpt>
      <trkpt lat="48.46285" lon="7.17749">
        <ele>527.49884</ele>
        <time>2026-02-05T14:25:04Z</time>
      </trkpt>
      <trkpt lat="48.46283" lon="7.17743">
        <ele>527.49884</ele>
        <time>2026-02-05T14:25:08Z</time>
      </trkpt>
      <trkpt lat="48.46281" lon="7.17736">
        <ele>527.49884</ele>
        <time>2026-02-05T14:25:12Z</time>
      </trkpt>
      <trkpt lat="48.46278" lon="7.17729">
        <ele>527.49884</ele>
        <time>2026-02-05T14:25:20Z</time>
      </trkpt>
      <trkpt lat="48.46274" lon="7.17724">
        <ele>527.49884</ele>
        <time>2026-02-05T14:25:34Z</time>
      </trkpt>
      <trkpt lat="48.46269" lon="7.1772">
        <ele>527.49884</ele>
        <time>2026-02-05T14:25:39Z</time>
      </trkpt>
      <trkpt lat="48.46266" lon="7.17714">
        <ele>527.49884</ele>
        <time>2026-02-05T14:25:42Z</time>
      </trkpt>
      <trkpt lat="48.46262" lon="7.17712">
        <ele>527.49884</ele>
        <time>2026-02-05T14:25:46Z</time>
      </trkpt>
      <trkpt lat="48.46256" lon="7.17709">
        <ele>527.49884</ele>
        <time>2026-02-05T14:25:52Z</time>
      </trkpt>
      <trkpt lat="48.46251" lon="7.17707">
        <ele>527.49884</ele>
        <time>2026-02-05T14:25:56Z</time>
      </trkpt>
      <trkpt lat="48.46244" lon="7.17705">
        <ele>527.49884</ele>
        <time>2026-02-05T14:26:03Z</time>
      </trkpt>
      <trkpt lat="48.46238" lon="7.17705">
        <ele>527.49884</ele>
        <time>2026-02-05T14:26:09Z</time>
      </trkpt>
      <trkpt lat="48.46232" lon="7.17705">
        <ele>527.49884</ele>
        <time>2026-02-05T14:26:15Z</time>
      </trkpt>
      <trkpt lat="48.46227" lon="7.17705">
        <ele>527.49884</ele>
        <time>2026-02-05T14:26:19Z</time>
      </trkpt>
      <trkpt lat="48.46222" lon="7.17706">
        <ele>527.49884</ele>
        <time>2026-02-05T14:26:23Z</time>
      </trkpt>
      <trkpt lat="48.46217" lon="7.17705">
        <ele>527.49884</ele>
        <time>2026-02-05T14:26:28Z</time>
      </trkpt>
      <trkpt lat="48.46212" lon="7.17705">
        <ele>527.49884</ele>
        <time>2026-02-05T14:26:34Z</time>
      </trkpt>
      <trkpt lat="48.46207" lon="7.17703">
        <ele>527.49884</ele>
        <time>2026-02-05T14:26:41Z</time>
      </trkpt>
      <trkpt lat="48.46203" lon="7.17702">
        <ele>527.49884</ele>
        <time>2026-02-05T14:26:44Z</time>
      </trkpt>
      <trkpt lat="48.46197" lon="7.17697">
        <ele>527.49884</ele>
        <time>2026-02-05T14:26:48Z</time>
      </trkpt>
      <trkpt lat="48.46194" lon="7.17691">
        <ele>527.49884</ele>
        <time>2026-02-05T14:26:55Z</time>
      </trkpt>
      <trkpt lat="48.46191" lon="7.17686">
        <ele>527.49884</ele>
        <time>2026-02-05T14:26:58Z</time>
      </trkpt>
      <trkpt lat="48.46189" lon="7.17679">
        <ele>527.49884</ele>
        <time>2026-02-05T14:27:01Z</time>
      </trkpt>
      <trkpt lat="48.46187" lon="7.17671">
        <ele>527.49884</ele>
        <time>2026-02-05T14:27:05Z</time>
      </trkpt>
      <trkpt lat="48.46186" lon="7.17663">
        <ele>527.49884</ele>
        <time>2026-02-05T14:27:10Z</time>
      </trkpt>
      <trkpt lat="48.46186" lon="7.17656">
        <ele>527.49884</ele>
        <time>2026-02-05T14:27:15Z</time>
      </trkpt>
      <trkpt lat="48.46186" lon="7.17649">
        <ele>527.49884</ele>
        <time>2026-02-05T14:27:48Z</time>
      </trkpt>
      <trkpt lat="48.46185" lon="7.17643">
        <ele>527.49884</ele>
        <time>2026-02-05T14:28:17Z</time>
      </trkpt>
      <trkpt lat="48.46185" lon="7.17635">
        <ele>527.49884</ele>
        <time>2026-02-05T14:28:25Z</time>
      </trkpt>
      <trkpt lat="48.46187" lon="7.17628">
        <ele>527.49884</ele>
        <time>2026-02-05T14:28:38Z</time>
      </trkpt>
      <trkpt lat="48.46189" lon="7.17619">
        <ele>527.49884</ele>
        <time>2026-02-05T14:28:41Z</time>
      </trkpt>
      <trkpt lat="48.4619" lon="7.17611">
        <ele>527.49884</ele>
        <time>2026-02-05T14:28:45Z</time>
      </trkpt>
      <trkpt lat="48.46192" lon="7.17603">
        <ele>527.49884</ele>
        <time>2026-02-05T14:28:51Z</time>
      </trkpt>
      <trkpt lat="48.46191" lon="7.17596">
        <ele>527.49884</ele>
        <time>2026-02-05T14:28:54Z</time>
      </trkpt>
      <trkpt lat="48.46191" lon="7.17586">
        <ele>527.49884</ele>
        <time>2026-02-05T14:29:00Z</time>
      </trkpt>
      <trkpt lat="48.46192" lon="7.17578">
        <ele>527.49884</ele>
        <time>2026-02-05T14:29:06Z</time>
      </trkpt>
      <trkpt lat="48.46192" lon="7.17571">
        <ele>527.49884</ele>
        <time>2026-02-05T14:29:08Z</time>
      </trkpt>
      <trkpt lat="48.46193" lon="7.17564">
        <ele>529.62396</ele>
        <time>2026-02-05T14:29:20Z</time>
      </trkpt>
      <trkpt lat="48.46194" lon="7.17557">
        <ele>531.7491</ele>
        <time>2026-02-05T14:29:25Z</time>
      </trkpt>
      <trkpt lat="48.46195" lon="7.17548">
        <ele>533.8742</ele>
        <time>2026-02-05T14:29:30Z</time>
      </trkpt>
      <trkpt lat="48.46196" lon="7.1754">
        <ele>535.9993</ele>
        <time>2026-02-05T14:29:36Z</time>
      </trkpt>
      <trkpt lat="48.46196" lon="7.17533">
        <ele>538.12445</ele>
        <time>2026-02-05T14:29:39Z</time>
      </trkpt>
      <trkpt lat="48.46195" lon="7.17526">
        <ele>538.12445</ele>
        <time>2026-02-05T14:29:45Z</time>
      </trkpt>
      <trkpt lat="48.46194" lon="7.17517">
        <ele>538.12445</ele>
        <time>2026-02-05T14:29:49Z</time>
      </trkpt>
      <trkpt lat="48.46194" lon="7.17509">
        <ele>538.12445</ele>
        <time>2026-02-05T14:29:55Z</time>
      </trkpt>
      <trkpt lat="48.46193" lon="7.175">
        <ele>538.12445</ele>
        <time>2026-02-05T14:30:00Z</time>
      </trkpt>
      <trkpt lat="48.46192" lon="7.17493">
        <ele>538.12445</ele>
        <time>2026-02-05T14:30:05Z</time>
      </trkpt>
      <trkpt lat="48.46191" lon="7.17486">
        <ele>538.12445</ele>
        <time>2026-02-05T14:30:11Z</time>
      </trkpt>
      <trkpt lat="48.4619" lon="7.17478">
        <ele>538.12445</ele>
        <time>2026-02-05T14:30:15Z</time>
      </trkpt>
      <trkpt lat="48.46189" lon="7.1747">
        <ele>538.12445</ele>
        <time>2026-02-05T14:30:19Z</time>
      </trkpt>
      <trkpt lat="48.46188" lon="7.17463">
        <ele>538.12445</ele>
        <time>2026-02-05T14:30:24Z</time>
      </trkpt>
      <trkpt lat="48.46186" lon="7.17456">
        <ele>538.12445</ele>
        <time>2026-02-05T14:30:29Z</time>
      </trkpt>
      <trkpt lat="48.46185" lon="7.17447">
        <ele>538.12445</ele>
        <time>2026-02-05T14:30:33Z</time>
      </trkpt>
      <trkpt lat="48.46183" lon="7.17439">
        <ele>538.12445</ele>
        <time>2026-02-05T14:30:38Z</time>
      </trkpt>
      <trkpt lat="48.46182" lon="7.17431">
        <ele>538.12445</ele>
        <time>2026-02-05T14:30:42Z</time>
      </trkpt>
      <trkpt lat="48.4618" lon="7.17425">
        <ele>538.12445</ele>
        <time>2026-02-05T14:30:46Z</time>
      </trkpt>
      <trkpt lat="48.46179" lon="7.17418">
        <ele>538.12445</ele>
        <time>2026-02-05T14:30:50Z</time>
      </trkpt>
      <trkpt lat="48.46177" lon="7.17411">
        <ele>538.12445</ele>
        <time>2026-02-05T14:30:55Z</time>
      </trkpt>
      <trkpt lat="48.46176" lon="7.17402">
        <ele>538.12445</ele>
        <time>2026-02-05T14:31:00Z</time>
      </trkpt>
      <trkpt lat="48.46174" lon="7.17395">
        <ele>538.12445</ele>
        <time>2026-02-05T14:31:04Z</time>
      </trkpt>
      <trkpt lat="48.46173" lon="7.17388">
        <ele>538.12445</ele>
        <time>2026-02-05T14:31:10Z</time>
      </trkpt>
      <trkpt lat="48.46172" lon="7.1738">
        <ele>538.12445</ele>
        <time>2026-02-05T14:31:14Z</time>
      </trkpt>
      <trkpt lat="48.46171" lon="7.17373">
        <ele>538.12445</ele>
        <time>2026-02-05T14:31:19Z</time>
      </trkpt>
      <trkpt lat="48.46173" lon="7.17366">
        <ele>538.12445</ele>
        <time>2026-02-05T14:31:25Z</time>
      </trkpt>
      <trkpt lat="48.46174" lon="7.1736">
        <ele>538.12445</ele>
        <time>2026-02-05T14:31:30Z</time>
      </trkpt>
      <trkpt lat="48.46176" lon="7.17353">
        <ele>538.12445</ele>
        <time>2026-02-05T14:31:35Z</time>
      </trkpt>
      <trkpt lat="48.46178" lon="7.17346">
        <ele>538.12445</ele>
        <time>2026-02-05T14:31:40Z</time>
      </trkpt>
      <trkpt lat="48.4618" lon="7.1734">
        <ele>538.12445</ele>
        <time>2026-02-05T14:31:46Z</time>
      </trkpt>
      <trkpt lat="48.46182" lon="7.17332">
        <ele>538.12445</ele>
        <time>2026-02-05T14:31:52Z</time>
      </trkpt>
      <trkpt lat="48.46183" lon="7.17325">
        <ele>538.12445</ele>
        <time>2026-02-05T14:31:57Z</time>
      </trkpt>
      <trkpt lat="48.46182" lon="7.17318">
        <ele>538.12445</ele>
        <time>2026-02-05T14:32:03Z</time>
      </trkpt>
      <trkpt lat="48.46182" lon="7.1731">
        <ele>538.12445</ele>
        <time>2026-02-05T14:32:09Z</time>
      </trkpt>
      <trkpt lat="48.46182" lon="7.17301">
        <ele>538.12445</ele>
        <time>2026-02-05T14:32:14Z</time>
      </trkpt>
      <trkpt lat="48.46179" lon="7.17294">
        <ele>538.12445</ele>
        <time>2026-02-05T14:32:19Z</time>
      </trkpt>
      <trkpt lat="48.46177" lon="7.17286">
        <ele>538.12445</ele>
        <time>2026-02-05T14:32:23Z</time>
      </trkpt>
      <trkpt lat="48.46175" lon="7.1728">
        <ele>538.12445</ele>
        <time>2026-02-05T14:32:28Z</time>
      </trkpt>
      <trkpt lat="48.46174" lon="7.17273">
        <ele>540.2392</ele>
        <time>2026-02-05T14:32:32Z</time>
      </trkpt>
      <trkpt lat="48.46172" lon="7.17266">
        <ele>542.354</ele>
        <time>2026-02-05T14:32:36Z</time>
      </trkpt>
      <trkpt lat="48.46169" lon="7.17259">
        <ele>544.46875</ele>
        <time>2026-02-05T14:32:40Z</time>
      </trkpt>
      <trkpt lat="48.46167" lon="7.17251">
        <ele>546.58356</ele>
        <time>2026-02-05T14:32:44Z</time>
      </trkpt>
      <trkpt lat="48.46164" lon="7.17245">
        <ele>548.6983</ele>
        <time>2026-02-05T14:32:50Z</time>
      </trkpt>
      <trkpt lat="48.46161" lon="7.17239">
        <ele>548.6983</ele>
        <time>2026-02-05T14:32:54Z</time>
      </trkpt>
      <trkpt lat="48.46159" lon="7.17233">
        <ele>548.6983</ele>
        <time>2026-02-05T14:32:59Z</time>
      </trkpt>
      <trkpt lat="48.46156" lon="7.17225">
        <ele>548.6983</ele>
        <time>2026-02-05T14:33:03Z</time>
      </trkpt>
      <trkpt lat="48.46155" lon="7.17218">
        <ele>548.6983</ele>
        <time>2026-02-05T14:33:07Z</time>
      </trkpt>
      <trkpt lat="48.46153" lon="7.1721">
        <ele>548.6983</ele>
        <time>2026-02-05T14:33:14Z</time>
      </trkpt>
      <trkpt lat="48.46151" lon="7.17203">
        <ele>548.6983</ele>
        <time>2026-02-05T14:33:18Z</time>
      </trkpt>
      <trkpt lat="48.46149" lon="7.17197">
        <ele>548.6983</ele>
        <time>2026-02-05T14:33:23Z</time>
      </trkpt>
      <trkpt lat="48.46146" lon="7.17191">
        <ele>548.6983</ele>
        <time>2026-02-05T14:33:29Z</time>
      </trkpt>
      <trkpt lat="48.46141" lon="7.17188">
        <ele>548.6983</ele>
        <time>2026-02-05T14:33:36Z</time>
      </trkpt>
      <trkpt lat="48.46137" lon="7.17187">
        <ele>548.6983</ele>
        <time>2026-02-05T14:33:41Z</time>
      </trkpt>
      <trkpt lat="48.46132" lon="7.1719">
        <ele>548.6983</ele>
        <time>2026-02-05T14:33:46Z</time>
      </trkpt>
      <trkpt lat="48.46127" lon="7.17196">
        <ele>548.6983</ele>
        <time>2026-02-05T14:33:51Z</time>
      </trkpt>
      <trkpt lat="48.46124" lon="7.17202">
        <ele>548.6983</ele>
        <time>2026-02-05T14:33:55Z</time>
      </trkpt>
      <trkpt lat="48.46122" lon="7.1721">
        <ele>548.6983</ele>
        <time>2026-02-05T14:34:01Z</time>
      </trkpt>
      <trkpt lat="48.4612" lon="7.17216">
        <ele>548.6983</ele>
        <time>2026-02-05T14:34:05Z</time>
      </trkpt>
      <trkpt lat="48.46117" lon="7.17224">
        <ele>548.6983</ele>
        <time>2026-02-05T14:34:08Z</time>
      </trkpt>
      <trkpt lat="48.46116" lon="7.1723">
        <ele>548.6983</ele>
        <time>2026-02-05T14:34:13Z</time>
      </trkpt>
      <trkpt lat="48.46114" lon="7.17236">
        <ele>548.6983</ele>
        <time>2026-02-05T14:34:21Z</time>
      </trkpt>
      <trkpt lat="48.46111" lon="7.17243">
        <ele>548.6983</ele>
        <time>2026-02-05T14:34:26Z</time>
      </trkpt>
      <trkpt lat="48.46109" lon="7.1725">
        <ele>548.6983</ele>
        <time>2026-02-05T14:34:32Z</time>
      </trkpt>
      <trkpt lat="48.46106" lon="7.17255">
        <ele>548.6983</ele>
        <time>2026-02-05T14:34:37Z</time>
      </trkpt>
      <trkpt lat="48.46102" lon="7.17261">
        <ele>548.6983</ele>
        <time>2026-02-05T14:34:44Z</time>
      </trkpt>
      <trkpt lat="48.46098" lon="7.17267">
        <ele>548.6983</ele>
        <time>2026-02-05T14:34:49Z</time>
      </trkpt>
      <trkpt lat="48.46095" lon="7.17272">
        <ele>548.6983</ele>
        <time>2026-02-05T14:34:54Z</time>
      </trkpt>
      <trkpt lat="48.46091" lon="7.17277">
        <ele>548.6983</ele>
        <time>2026-02-05T14:35:00Z</time>
      </trkpt>
      <trkpt lat="48.46087" lon="7.17281">
        <ele>548.6983</ele>
        <time>2026-02-05T14:35:05Z</time>
      </trkpt>
      <trkpt lat="48.46083" lon="7.17285">
        <ele>548.6983</ele>
        <time>2026-02-05T14:35:27Z</time>
      </trkpt>
      <trkpt lat="48.46078" lon="7.17288">
        <ele>548.6983</ele>
        <time>2026-02-05T14:35:31Z</time>
      </trkpt>
      <trkpt lat="48.46073" lon="7.1729">
        <ele>548.6983</ele>
        <time>2026-02-05T14:35:36Z</time>
      </trkpt>
      <trkpt lat="48.46067" lon="7.17292">
        <ele>550.8677</ele>
        <time>2026-02-05T14:35:42Z</time>
      </trkpt>
      <trkpt lat="48.46063" lon="7.17293">
        <ele>553.03705</ele>
        <time>2026-02-05T14:35:47Z</time>
      </trkpt>
      <trkpt lat="48.46058" lon="7.17294">
        <ele>555.20636</ele>
        <time>2026-02-05T14:35:54Z</time>
      </trkpt>
      <trkpt lat="48.46052" lon="7.17293">
        <ele>557.37573</ele>
        <time>2026-02-05T14:36:12Z</time>
      </trkpt>
      <trkpt lat="48.46048" lon="7.17292">
        <ele>559.5451</ele>
        <time>2026-02-05T14:36:17Z</time>
      </trkpt>
      <trkpt lat="48.46043" lon="7.1729">
        <ele>559.5451</ele>
        <time>2026-02-05T14:36:22Z</time>
      </trkpt>
      <trkpt lat="48.46039" lon="7.17287">
        <ele>559.5451</ele>
        <time>2026-02-05T14:36:28Z</time>
      </trkpt>
      <trkpt lat="48.46034" lon="7.17285">
        <ele>559.5451</ele>
        <time>2026-02-05T14:37:28Z</time>
      </trkpt>
      <trkpt lat="48.46037" lon="7.17278">
        <ele>559.5451</ele>
        <time>2026-02-05T14:39:12Z</time>
      </trkpt>
      <trkpt lat="48.46035" lon="7.17286">
        <ele>559.5451</ele>
        <time>2026-02-05T14:39:20Z</time>
      </trkpt>
      <trkpt lat="48.4603" lon="7.17293">
        <ele>559.5451</ele>
        <time>2026-02-05T14:39:42Z</time>
      </trkpt>
      <trkpt lat="48.46035" lon="7.17288">
        <ele>559.5451</ele>
        <time>2026-02-05T14:39:54Z</time>
      </trkpt>
      <trkpt lat="48.46031" lon="7.17295">
        <ele>559.5451</ele>
        <time>2026-02-05T14:40:25Z</time>
      </trkpt>
      <trkpt lat="48.46034" lon="7.1729">
        <ele>559.5451</ele>
        <time>2026-02-05T14:40:43Z</time>
      </trkpt>
      <trkpt lat="48.46042" lon="7.17284">
        <ele>559.5451</ele>
        <time>2026-02-05T14:40:54Z</time>
      </trkpt>
      <trkpt lat="48.46038" lon="7.1729">
        <ele>559.5451</ele>
        <time>2026-02-05T14:41:23Z</time>
      </trkpt>
      <trkpt lat="48.46041" lon="7.17284">
        <ele>559.5451</ele>
        <time>2026-02-05T14:41:51Z</time>
      </trkpt>
      <trkpt lat="48.46034" lon="7.17281">
        <ele>559.5451</ele>
        <time>2026-02-05T14:42:22Z</time>
      </trkpt>
      <trkpt lat="48.46031" lon="7.17276">
        <ele>559.5451</ele>
        <time>2026-02-05T14:42:33Z</time>
      </trkpt>
      <trkpt lat="48.46028" lon="7.1727">
        <ele>559.5451</ele>
        <time>2026-02-05T14:42:37Z</time>
      </trkpt>
      <trkpt lat="48.46022" lon="7.17264">
        <ele>559.5451</ele>
        <time>2026-02-05T14:42:43Z</time>
      </trkpt>
      <trkpt lat="48.46019" lon="7.1726">
        <ele>559.5451</ele>
        <time>2026-02-05T14:42:47Z</time>
      </trkpt>
      <trkpt lat="48.46015" lon="7.17253">
        <ele>559.5451</ele>
        <time>2026-02-05T14:42:53Z</time>
      </trkpt>
      <trkpt lat="48.46011" lon="7.17248">
        <ele>559.5451</ele>
        <time>2026-02-05T14:42:58Z</time>
      </trkpt>
      <trkpt lat="48.46007" lon="7.17242">
        <ele>559.5451</ele>
        <time>2026-02-05T14:43:03Z</time>
      </trkpt>
      <trkpt lat="48.46004" lon="7.17237">
        <ele>559.5451</ele>
        <time>2026-02-05T14:43:07Z</time>
      </trkpt>
      <trkpt lat="48.46" lon="7.17231">
        <ele>559.5451</ele>
        <time>2026-02-05T14:43:12Z</time>
      </trkpt>
      <trkpt lat="48.45997" lon="7.17225">
        <ele>559.5451</ele>
        <time>2026-02-05T14:43:18Z</time>
      </trkpt>
      <trkpt lat="48.45993" lon="7.1722">
        <ele>559.5451</ele>
        <time>2026-02-05T14:43:22Z</time>
      </trkpt>
      <trkpt lat="48.45989" lon="7.17213">
        <ele>559.5451</ele>
        <time>2026-02-05T14:43:25Z</time>
      </trkpt>
      <trkpt lat="48.45985" lon="7.17208">
        <ele>559.5451</ele>
        <time>2026-02-05T14:43:31Z</time>
      </trkpt>
      <trkpt lat="48.45982" lon="7.17202">
        <ele>559.5451</ele>
        <time>2026-02-05T14:43:38Z</time>
      </trkpt>
      <trkpt lat="48.45979" lon="7.17197">
        <ele>559.5451</ele>
        <time>2026-02-05T14:43:41Z</time>
      </trkpt>
      <trkpt lat="48.45976" lon="7.17192">
        <ele>559.5451</ele>
        <time>2026-02-05T14:43:45Z</time>
      </trkpt>
      <trkpt lat="48.45972" lon="7.17186">
        <ele>559.5451</ele>
        <time>2026-02-05T14:43:50Z</time>
      </trkpt>
      <trkpt lat="48.45969" lon="7.17181">
        <ele>559.5451</ele>
        <time>2026-02-05T14:43:55Z</time>
      </trkpt>
      <trkpt lat="48.45966" lon="7.17175">
        <ele>559.5451</ele>
        <time>2026-02-05T14:43:59Z</time>
      </trkpt>
      <trkpt lat="48.45962" lon="7.1717">
        <ele>559.5451</ele>
        <time>2026-02-05T14:44:04Z</time>
      </trkpt>
      <trkpt lat="48.45958" lon="7.17163">
        <ele>559.5451</ele>
        <time>2026-02-05T14:44:09Z</time>
      </trkpt>
      <trkpt lat="48.45955" lon="7.17158">
        <ele>559.5451</ele>
        <time>2026-02-05T14:44:14Z</time>
      </trkpt>
      <trkpt lat="48.45952" lon="7.17153">
        <ele>559.5451</ele>
        <time>2026-02-05T14:44:19Z</time>
      </trkpt>
      <trkpt lat="48.45948" lon="7.17148">
        <ele>559.5451</ele>
        <time>2026-02-05T14:44:24Z</time>
      </trkpt>
      <trkpt lat="48.45945" lon="7.17142">
        <ele>559.5451</ele>
        <time>2026-02-05T14:44:29Z</time>
      </trkpt>
      <trkpt lat="48.45941" lon="7.17137">
        <ele>559.5451</ele>
        <time>2026-02-05T14:44:33Z</time>
      </trkpt>
      <trkpt lat="48.45937" lon="7.17131">
        <ele>559.5451</ele>
        <time>2026-02-05T14:44:39Z</time>
      </trkpt>
      <trkpt lat="48.45933" lon="7.17127">
        <ele>559.5451</ele>
        <time>2026-02-05T14:44:44Z</time>
      </trkpt>
      <trkpt lat="48.45929" lon="7.17121">
        <ele>559.5451</ele>
        <time>2026-02-05T14:44:49Z</time>
      </trkpt>
      <trkpt lat="48.45926" lon="7.17117">
        <ele>559.5451</ele>
        <time>2026-02-05T14:44:53Z</time>
      </trkpt>
      <trkpt lat="48.45922" lon="7.17112">
        <ele>559.5451</ele>
        <time>2026-02-05T14:44:59Z</time>
      </trkpt>
      <trkpt lat="48.45918" lon="7.17107">
        <ele>561.764</ele>
        <time>2026-02-05T14:45:04Z</time>
      </trkpt>
      <trkpt lat="48.45914" lon="7.17102">
        <ele>563.9829</ele>
        <time>2026-02-05T14:45:11Z</time>
      </trkpt>
      <trkpt lat="48.4591" lon="7.17097">
        <ele>566.2018</ele>
        <time>2026-02-05T14:45:15Z</time>
      </trkpt>
      <trkpt lat="48.45906" lon="7.17092">
        <ele>568.4207</ele>
        <time>2026-02-05T14:45:20Z</time>
      </trkpt>
      <trkpt lat="48.45902" lon="7.17087">
        <ele>570.6396</ele>
        <time>2026-02-05T14:45:31Z</time>
      </trkpt>
      <trkpt lat="48.45898" lon="7.17083">
        <ele>570.6396</ele>
        <time>2026-02-05T14:45:35Z</time>
      </trkpt>
      <trkpt lat="48.45893" lon="7.17084">
        <ele>570.6396</ele>
        <time>2026-02-05T14:45:44Z</time>
      </trkpt>
      <trkpt lat="48.45889" lon="7.17088">
        <ele>570.6396</ele>
        <time>2026-02-05T14:45:47Z</time>
      </trkpt>
      <trkpt lat="48.45883" lon="7.17091">
        <ele>570.6396</ele>
        <time>2026-02-05T14:45:50Z</time>
      </trkpt>
      <trkpt lat="48.45878" lon="7.17091">
        <ele>570.6396</ele>
        <time>2026-02-05T14:45:57Z</time>
      </trkpt>
      <trkpt lat="48.45874" lon="7.17091">
        <ele>570.6396</ele>
        <time>2026-02-05T14:46:03Z</time>
      </trkpt>
      <trkpt lat="48.45871" lon="7.17086">
        <ele>570.6396</ele>
        <time>2026-02-05T14:46:21Z</time>
      </trkpt>
      <trkpt lat="48.45866" lon="7.17085">
        <ele>570.6396</ele>
        <time>2026-02-05T14:46:27Z</time>
      </trkpt>
      <trkpt lat="48.45863" lon="7.1708">
        <ele>570.6396</ele>
        <time>2026-02-05T14:46:32Z</time>
      </trkpt>
      <trkpt lat="48.45858" lon="7.17075">
        <ele>570.6396</ele>
        <time>2026-02-05T14:46:37Z</time>
      </trkpt>
      <trkpt lat="48.45854" lon="7.17072">
        <ele>570.6396</ele>
        <time>2026-02-05T14:46:42Z</time>
      </trkpt>
      <trkpt lat="48.4585" lon="7.17066">
        <ele>570.6396</ele>
        <time>2026-02-05T14:46:47Z</time>
      </trkpt>
      <trkpt lat="48.45847" lon="7.17061">
        <ele>570.6396</ele>
        <time>2026-02-05T14:46:52Z</time>
      </trkpt>
      <trkpt lat="48.45843" lon="7.17056">
        <ele>570.6396</ele>
        <time>2026-02-05T14:46:57Z</time>
      </trkpt>
      <trkpt lat="48.45839" lon="7.17051">
        <ele>570.6396</ele>
        <time>2026-02-05T14:47:04Z</time>
      </trkpt>
      <trkpt lat="48.45834" lon="7.17046">
        <ele>567.9254</ele>
        <time>2026-02-05T14:47:10Z</time>
      </trkpt>
      <trkpt lat="48.45831" lon="7.17041">
        <ele>565.2112</ele>
        <time>2026-02-05T14:47:15Z</time>
      </trkpt>
      <trkpt lat="48.45828" lon="7.17034">
        <ele>562.497</ele>
        <time>2026-02-05T14:47:21Z</time>
      </trkpt>
      <trkpt lat="48.45824" lon="7.1703">
        <ele>559.7828</ele>
        <time>2026-02-05T14:47:25Z</time>
      </trkpt>
      <trkpt lat="48.45829" lon="7.17028">
        <ele>557.0686</ele>
        <time>2026-02-05T14:47:33Z</time>
      </trkpt>
      <trkpt lat="48.45825" lon="7.17024">
        <ele>557.0686</ele>
        <time>2026-02-05T14:47:40Z</time>
      </trkpt>
      <trkpt lat="48.45819" lon="7.17018">
        <ele>557.0686</ele>
        <time>2026-02-05T14:47:45Z</time>
      </trkpt>
      <trkpt lat="48.45816" lon="7.17012">
        <ele>557.0686</ele>
        <time>2026-02-05T14:47:47Z</time>
      </trkpt>
      <trkpt lat="48.45813" lon="7.17006">
        <ele>557.0686</ele>
        <time>2026-02-05T14:47:55Z</time>
      </trkpt>
      <trkpt lat="48.45812" lon="7.16998">
        <ele>557.0686</ele>
        <time>2026-02-05T14:48:05Z</time>
      </trkpt>
      <trkpt lat="48.45809" lon="7.16991">
        <ele>557.0686</ele>
        <time>2026-02-05T14:48:11Z</time>
      </trkpt>
      <trkpt lat="48.45805" lon="7.16985">
        <ele>557.0686</ele>
        <time>2026-02-05T14:48:15Z</time>
      </trkpt>
      <trkpt lat="48.45803" lon="7.16979">
        <ele>557.0686</ele>
        <time>2026-02-05T14:48:21Z</time>
      </trkpt>
      <trkpt lat="48.458" lon="7.16974">
        <ele>557.0686</ele>
        <time>2026-02-05T14:48:25Z</time>
      </trkpt>
      <trkpt lat="48.45797" lon="7.16967">
        <ele>554.59564</ele>
        <time>2026-02-05T14:48:35Z</time>
      </trkpt>
      <trkpt lat="48.45796" lon="7.16961">
        <ele>552.1227</ele>
        <time>2026-02-05T14:48:43Z</time>
      </trkpt>
      <trkpt lat="48.45795" lon="7.16954">
        <ele>549.6498</ele>
        <time>2026-02-05T14:48:50Z</time>
      </trkpt>
      <trkpt lat="48.45791" lon="7.16948">
        <ele>547.1768</ele>
        <time>2026-02-05T14:48:57Z</time>
      </trkpt>
      <trkpt lat="48.45786" lon="7.16942">
        <ele>544.70386</ele>
        <time>2026-02-05T14:49:01Z</time>
      </trkpt>
      <trkpt lat="48.45783" lon="7.16937">
        <ele>544.70386</ele>
        <time>2026-02-05T14:49:08Z</time>
      </trkpt>
      <trkpt lat="48.45779" lon="7.16933">
        <ele>544.70386</ele>
        <time>2026-02-05T14:49:12Z</time>
      </trkpt>
      <trkpt lat="48.45776" lon="7.16928">
        <ele>544.70386</ele>
        <time>2026-02-05T14:49:18Z</time>
      </trkpt>
      <trkpt lat="48.45772" lon="7.16925">
        <ele>544.70386</ele>
        <time>2026-02-05T14:49:22Z</time>
      </trkpt>
      <trkpt lat="48.4577" lon="7.16917">
        <ele>544.70386</ele>
        <time>2026-02-05T14:49:30Z</time>
      </trkpt>
      <trkpt lat="48.45767" lon="7.16911">
        <ele>544.70386</ele>
        <time>2026-02-05T14:49:35Z</time>
      </trkpt>
      <trkpt lat="48.45764" lon="7.16904">
        <ele>544.70386</ele>
        <time>2026-02-05T14:49:39Z</time>
      </trkpt>
      <trkpt lat="48.45763" lon="7.16897">
        <ele>544.70386</ele>
        <time>2026-02-05T14:49:47Z</time>
      </trkpt>
      <trkpt lat="48.45758" lon="7.16893">
        <ele>544.70386</ele>
        <time>2026-02-05T14:49:54Z</time>
      </trkpt>
      <trkpt lat="48.45755" lon="7.16887">
        <ele>544.70386</ele>
        <time>2026-02-05T14:49:59Z</time>
      </trkpt>
      <trkpt lat="48.45753" lon="7.16881">
        <ele>544.70386</ele>
        <time>2026-02-05T14:50:04Z</time>
      </trkpt>
      <trkpt lat="48.4575" lon="7.16874">
        <ele>542.3647</ele>
        <time>2026-02-05T14:50:11Z</time>
      </trkpt>
      <trkpt lat="48.45747" lon="7.16867">
        <ele>540.0255</ele>
        <time>2026-02-05T14:50:18Z</time>
      </trkpt>
      <trkpt lat="48.45743" lon="7.16861">
        <ele>537.6864</ele>
        <time>2026-02-05T14:50:25Z</time>
      </trkpt>
      <trkpt lat="48.45739" lon="7.16856">
        <ele>535.3472</ele>
        <time>2026-02-05T14:50:30Z</time>
      </trkpt>
      <trkpt lat="48.45735" lon="7.1685">
        <ele>533.00806</ele>
        <time>2026-02-05T14:50:37Z</time>
      </trkpt>
      <trkpt lat="48.45733" lon="7.16843">
        <ele>533.00806</ele>
        <time>2026-02-05T14:50:42Z</time>
      </trkpt>
      <trkpt lat="48.45729" lon="7.16836">
        <ele>533.00806</ele>
        <time>2026-02-05T14:50:46Z</time>
      </trkpt>
      <trkpt lat="48.45725" lon="7.16833">
        <ele>533.00806</ele>
        <time>2026-02-05T14:50:53Z</time>
      </trkpt>
      <trkpt lat="48.45721" lon="7.16827">
        <ele>533.00806</ele>
        <time>2026-02-05T14:50:58Z</time>
      </trkpt>
      <trkpt lat="48.45717" lon="7.16826">
        <ele>533.00806</ele>
        <time>2026-02-05T14:51:13Z</time>
      </trkpt>
      <trkpt lat="48.45716" lon="7.16819">
        <ele>533.00806</ele>
        <time>2026-02-05T14:51:16Z</time>
      </trkpt>
      <trkpt lat="48.45712" lon="7.16813">
        <ele>533.00806</ele>
        <time>2026-02-05T14:51:25Z</time>
      </trkpt>
      <trkpt lat="48.45708" lon="7.16813">
        <ele>533.00806</ele>
        <time>2026-02-05T14:51:54Z</time>
      </trkpt>
      <trkpt lat="48.45704" lon="7.16807">
        <ele>533.00806</ele>
        <time>2026-02-05T14:52:00Z</time>
      </trkpt>
      <trkpt lat="48.45699" lon="7.16803">
        <ele>533.00806</ele>
        <time>2026-02-05T14:52:05Z</time>
      </trkpt>
      <trkpt lat="48.45695" lon="7.168">
        <ele>533.00806</ele>
        <time>2026-02-05T14:52:12Z</time>
      </trkpt>
      <trkpt lat="48.45691" lon="7.16795">
        <ele>533.00806</ele>
        <time>2026-02-05T14:52:18Z</time>
      </trkpt>
      <trkpt lat="48.45688" lon="7.1679">
        <ele>530.72</ele>
        <time>2026-02-05T14:52:26Z</time>
      </trkpt>
      <trkpt lat="48.45684" lon="7.16784">
        <ele>528.4319</ele>
        <time>2026-02-05T14:52:31Z</time>
      </trkpt>
      <trkpt lat="48.45679" lon="7.16779">
        <ele>526.14386</ele>
        <time>2026-02-05T14:52:37Z</time>
      </trkpt>
      <trkpt lat="48.45675" lon="7.16774">
        <ele>523.8558</ele>
        <time>2026-02-05T14:52:43Z</time>
      </trkpt>
      <trkpt lat="48.45672" lon="7.1677">
        <ele>521.5677</ele>
        <time>2026-02-05T14:52:47Z</time>
      </trkpt>
      <trkpt lat="48.45669" lon="7.16763">
        <ele>521.5677</ele>
        <time>2026-02-05T14:52:53Z</time>
      </trkpt>
      <trkpt lat="48.45665" lon="7.16759">
        <ele>521.5677</ele>
        <time>2026-02-05T14:52:57Z</time>
      </trkpt>
      <trkpt lat="48.45662" lon="7.16753">
        <ele>521.5677</ele>
        <time>2026-02-05T14:53:02Z</time>
      </trkpt>
      <trkpt lat="48.45658" lon="7.16751">
        <ele>521.5677</ele>
        <time>2026-02-05T14:53:07Z</time>
      </trkpt>
      <trkpt lat="48.45654" lon="7.16748">
        <ele>521.5677</ele>
        <time>2026-02-05T14:53:13Z</time>
      </trkpt>
      <trkpt lat="48.45648" lon="7.16748">
        <ele>521.5677</ele>
        <time>2026-02-05T14:53:18Z</time>
      </trkpt>
      <trkpt lat="48.45644" lon="7.16748">
        <ele>521.5677</ele>
        <time>2026-02-05T14:53:23Z</time>
      </trkpt>
      <trkpt lat="48.4564" lon="7.16753">
        <ele>521.5677</ele>
        <time>2026-02-05T14:53:29Z</time>
      </trkpt>
      <trkpt lat="48.45642" lon="7.1676">
        <ele>519.315</ele>
        <time>2026-02-05T14:53:34Z</time>
      </trkpt>
      <trkpt lat="48.45641" lon="7.16768">
        <ele>517.0623</ele>
        <time>2026-02-05T14:53:39Z</time>
      </trkpt>
      <trkpt lat="48.45642" lon="7.16776">
        <ele>514.8096</ele>
        <time>2026-02-05T14:53:44Z</time>
      </trkpt>
      <trkpt lat="48.45641" lon="7.16784">
        <ele>512.5569</ele>
        <time>2026-02-05T14:53:49Z</time>
      </trkpt>
      <trkpt lat="48.45639" lon="7.16791">
        <ele>510.3042</ele>
        <time>2026-02-05T14:53:53Z</time>
      </trkpt>
      <trkpt lat="48.45642" lon="7.16797">
        <ele>510.3042</ele>
        <time>2026-02-05T14:53:58Z</time>
      </trkpt>
      <trkpt lat="48.45642" lon="7.16804">
        <ele>510.3042</ele>
        <time>2026-02-05T14:54:04Z</time>
      </trkpt>
      <trkpt lat="48.4564" lon="7.16811">
        <ele>510.3042</ele>
        <time>2026-02-05T14:54:09Z</time>
      </trkpt>
      <trkpt lat="48.45639" lon="7.16818">
        <ele>510.3042</ele>
        <time>2026-02-05T14:54:13Z</time>
      </trkpt>
      <trkpt lat="48.45636" lon="7.16828">
        <ele>510.3042</ele>
        <time>2026-02-05T14:54:18Z</time>
      </trkpt>
      <trkpt lat="48.45639" lon="7.16835">
        <ele>510.3042</ele>
        <time>2026-02-05T14:54:22Z</time>
      </trkpt>
      <trkpt lat="48.45639" lon="7.16843">
        <ele>510.3042</ele>
        <time>2026-02-05T14:54:26Z</time>
      </trkpt>
      <trkpt lat="48.45639" lon="7.1685">
        <ele>510.3042</ele>
        <time>2026-02-05T14:54:29Z</time>
      </trkpt>
      <trkpt lat="48.45641" lon="7.16858">
        <ele>510.3042</ele>
        <time>2026-02-05T14:54:34Z</time>
      </trkpt>
      <trkpt lat="48.4564" lon="7.16865">
        <ele>510.3042</ele>
        <time>2026-02-05T14:54:38Z</time>
      </trkpt>
      <trkpt lat="48.45639" lon="7.16872">
        <ele>510.3042</ele>
        <time>2026-02-05T14:54:45Z</time>
      </trkpt>
      <trkpt lat="48.45641" lon="7.16879">
        <ele>508.06244</ele>
        <time>2026-02-05T14:54:51Z</time>
      </trkpt>
      <trkpt lat="48.45643" lon="7.16886">
        <ele>505.82068</ele>
        <time>2026-02-05T14:54:56Z</time>
      </trkpt>
      <trkpt lat="48.45643" lon="7.16893">
        <ele>503.57892</ele>
        <time>2026-02-05T14:55:00Z</time>
      </trkpt>
      <trkpt lat="48.45643" lon="7.169">
        <ele>501.33716</ele>
        <time>2026-02-05T14:55:05Z</time>
      </trkpt>
      <trkpt lat="48.45644" lon="7.16908">
        <ele>499.0954</ele>
        <time>2026-02-05T14:55:11Z</time>
      </trkpt>
      <trkpt lat="48.45644" lon="7.16916">
        <ele>499.0954</ele>
        <time>2026-02-05T14:55:16Z</time>
      </trkpt>
      <trkpt lat="48.45644" lon="7.16923">
        <ele>499.0954</ele>
        <time>2026-02-05T14:55:21Z</time>
      </trkpt>
      <trkpt lat="48.45643" lon="7.1693">
        <ele>499.0954</ele>
        <time>2026-02-05T14:55:26Z</time>
      </trkpt>
      <trkpt lat="48.45644" lon="7.16937">
        <ele>499.0954</ele>
        <time>2026-02-05T14:55:30Z</time>
      </trkpt>
      <trkpt lat="48.45644" lon="7.16945">
        <ele>499.0954</ele>
        <time>2026-02-05T14:55:35Z</time>
      </trkpt>
      <trkpt lat="48.45645" lon="7.16952">
        <ele>499.0954</ele>
        <time>2026-02-05T14:55:39Z</time>
      </trkpt>
      <trkpt lat="48.45646" lon="7.1696">
        <ele>499.0954</ele>
        <time>2026-02-05T14:55:45Z</time>
      </trkpt>
      <trkpt lat="48.45647" lon="7.16967">
        <ele>496.9662</ele>
        <time>2026-02-05T14:55:50Z</time>
      </trkpt>
      <trkpt lat="48.45647" lon="7.16974">
        <ele>494.83694</ele>
        <time>2026-02-05T14:55:55Z</time>
      </trkpt>
      <trkpt lat="48.45649" lon="7.16981">
        <ele>492.70773</ele>
        <time>2026-02-05T14:56:00Z</time>
      </trkpt>
      <trkpt lat="48.45649" lon="7.16988">
        <ele>490.5785</ele>
        <time>2026-02-05T14:56:05Z</time>
      </trkpt>
      <trkpt lat="48.45651" lon="7.16995">
        <ele>488.44928</ele>
        <time>2026-02-05T14:56:09Z</time>
      </trkpt>
      <trkpt lat="48.45651" lon="7.17003">
        <ele>488.44928</ele>
        <time>2026-02-05T14:56:15Z</time>
      </trkpt>
      <trkpt lat="48.45652" lon="7.17009">
        <ele>488.44928</ele>
        <time>2026-02-05T14:56:20Z</time>
      </trkpt>
      <trkpt lat="48.45652" lon="7.17016">
        <ele>488.44928</ele>
        <time>2026-02-05T14:56:24Z</time>
      </trkpt>
      <trkpt lat="48.45653" lon="7.17024">
        <ele>488.44928</ele>
        <time>2026-02-05T14:56:29Z</time>
      </trkpt>
      <trkpt lat="48.45653" lon="7.17031">
        <ele>488.44928</ele>
        <time>2026-02-05T14:56:34Z</time>
      </trkpt>
      <trkpt lat="48.45653" lon="7.17039">
        <ele>488.44928</ele>
        <time>2026-02-05T14:56:39Z</time>
      </trkpt>
      <trkpt lat="48.45653" lon="7.17046">
        <ele>488.44928</ele>
        <time>2026-02-05T14:56:44Z</time>
      </trkpt>
      <trkpt lat="48.45653" lon="7.17054">
        <ele>488.44928</ele>
        <time>2026-02-05T14:56:48Z</time>
      </trkpt>
      <trkpt lat="48.45652" lon="7.17061">
        <ele>488.44928</ele>
        <time>2026-02-05T14:56:52Z</time>
      </trkpt>
      <trkpt lat="48.45651" lon="7.17069">
        <ele>488.44928</ele>
        <time>2026-02-05T14:56:58Z</time>
      </trkpt>
      <trkpt lat="48.45651" lon="7.17076">
        <ele>488.44928</ele>
        <time>2026-02-05T14:57:04Z</time>
      </trkpt>
      <trkpt lat="48.45651" lon="7.17083">
        <ele>488.44928</ele>
        <time>2026-02-05T14:57:08Z</time>
      </trkpt>
      <trkpt lat="48.4565" lon="7.17091">
        <ele>486.33508</ele>
        <time>2026-02-05T14:57:14Z</time>
      </trkpt>
      <trkpt lat="48.4565" lon="7.17098">
        <ele>484.2209</ele>
        <time>2026-02-05T14:57:20Z</time>
      </trkpt>
      <trkpt lat="48.45649" lon="7.17105">
        <ele>482.10666</ele>
        <time>2026-02-05T14:57:26Z</time>
      </trkpt>
      <trkpt lat="48.45649" lon="7.17112">
        <ele>479.99246</ele>
        <time>2026-02-05T14:57:31Z</time>
      </trkpt>
      <trkpt lat="48.45648" lon="7.17121">
        <ele>477.87827</ele>
        <time>2026-02-05T14:57:36Z</time>
      </trkpt>
      <trkpt lat="48.45648" lon="7.17128">
        <ele>477.87827</ele>
        <time>2026-02-05T14:57:42Z</time>
      </trkpt>
      <trkpt lat="48.45647" lon="7.17136">
        <ele>477.87827</ele>
        <time>2026-02-05T14:57:47Z</time>
      </trkpt>
      <trkpt lat="48.45647" lon="7.17145">
        <ele>477.87827</ele>
        <time>2026-02-05T14:57:53Z</time>
      </trkpt>
      <trkpt lat="48.45646" lon="7.17152">
        <ele>477.87827</ele>
        <time>2026-02-05T14:57:58Z</time>
      </trkpt>
      <trkpt lat="48.45646" lon="7.1716">
        <ele>477.87827</ele>
        <time>2026-02-05T14:58:02Z</time>
      </trkpt>
      <trkpt lat="48.45646" lon="7.17168">
        <ele>475.86432</ele>
        <time>2026-02-05T14:58:07Z</time>
      </trkpt>
      <trkpt lat="48.45646" lon="7.17176">
        <ele>473.85037</ele>
        <time>2026-02-05T14:58:13Z</time>
      </trkpt>
      <trkpt lat="48.45646" lon="7.17183">
        <ele>471.83643</ele>
        <time>2026-02-05T14:58:18Z</time>
      </trkpt>
      <trkpt lat="48.45646" lon="7.17191">
        <ele>469.82248</ele>
        <time>2026-02-05T14:58:22Z</time>
      </trkpt>
      <trkpt lat="48.45647" lon="7.17198">
        <ele>467.80853</ele>
        <time>2026-02-05T14:58:27Z</time>
      </trkpt>
      <trkpt lat="48.45647" lon="7.17206">
        <ele>467.80853</ele>
        <time>2026-02-05T14:58:33Z</time>
      </trkpt>
      <trkpt lat="48.45648" lon="7.17214">
        <ele>467.80853</ele>
        <time>2026-02-05T14:58:39Z</time>
      </trkpt>
      <trkpt lat="48.45649" lon="7.17222">
        <ele>467.80853</ele>
        <time>2026-02-05T14:58:43Z</time>
      </trkpt>
      <trkpt lat="48.45651" lon="7.1723">
        <ele>467.80853</ele>
        <time>2026-02-05T14:58:47Z</time>
      </trkpt>
      <trkpt lat="48.45652" lon="7.17237">
        <ele>467.80853</ele>
        <time>2026-02-05T14:58:54Z</time>
      </trkpt>
      <trkpt lat="48.45654" lon="7.17244">
        <ele>467.80853</ele>
        <time>2026-02-05T14:58:59Z</time>
      </trkpt>
      <trkpt lat="48.45655" lon="7.17251">
        <ele>467.80853</ele>
        <time>2026-02-05T14:59:03Z</time>
      </trkpt>
      <trkpt lat="48.45656" lon="7.17258">
        <ele>467.80853</ele>
        <time>2026-02-05T14:59:08Z</time>
      </trkpt>
      <trkpt lat="48.45657" lon="7.17265">
        <ele>467.80853</ele>
        <time>2026-02-05T14:59:13Z</time>
      </trkpt>
      <trkpt lat="48.4566" lon="7.17274">
        <ele>467.80853</ele>
        <time>2026-02-05T14:59:19Z</time>
      </trkpt>
      <trkpt lat="48.45662" lon="7.17281">
        <ele>467.80853</ele>
        <time>2026-02-05T14:59:23Z</time>
      </trkpt>
      <trkpt lat="48.45664" lon="7.17288">
        <ele>467.80853</ele>
        <time>2026-02-05T14:59:27Z</time>
      </trkpt>
      <trkpt lat="48.45665" lon="7.17295">
        <ele>465.1758</ele>
        <time>2026-02-05T14:59:33Z</time>
      </trkpt>
      <trkpt lat="48.45667" lon="7.17302">
        <ele>462.54306</ele>
        <time>2026-02-05T14:59:38Z</time>
      </trkpt>
      <trkpt lat="48.45669" lon="7.17311">
        <ele>459.91034</ele>
        <time>2026-02-05T14:59:44Z</time>
      </trkpt>
      <trkpt lat="48.45671" lon="7.17317">
        <ele>457.2776</ele>
        <time>2026-02-05T14:59:49Z</time>
      </trkpt>
      <trkpt lat="48.45673" lon="7.17325">
        <ele>454.64487</ele>
        <time>2026-02-05T14:59:54Z</time>
      </trkpt>
      <trkpt lat="48.45675" lon="7.17332">
        <ele>454.64487</ele>
        <time>2026-02-05T15:00:00Z</time>
      </trkpt>
      <trkpt lat="48.45676" lon="7.17339">
        <ele>454.64487</ele>
        <time>2026-02-05T15:00:05Z</time>
      </trkpt>
      <trkpt lat="48.45679" lon="7.17346">
        <ele>454.64487</ele>
        <time>2026-02-05T15:00:08Z</time>
      </trkpt>
      <trkpt lat="48.45681" lon="7.17352">
        <ele>454.64487</ele>
        <time>2026-02-05T15:00:14Z</time>
      </trkpt>
      <trkpt lat="48.45683" lon="7.1736">
        <ele>454.64487</ele>
        <time>2026-02-05T15:00:18Z</time>
      </trkpt>
      <trkpt lat="48.45686" lon="7.17367">
        <ele>454.64487</ele>
        <time>2026-02-05T15:00:25Z</time>
      </trkpt>
      <trkpt lat="48.45689" lon="7.17375">
        <ele>454.64487</ele>
        <time>2026-02-05T15:00:30Z</time>
      </trkpt>
      <trkpt lat="48.45692" lon="7.17382">
        <ele>454.64487</ele>
        <time>2026-02-05T15:00:35Z</time>
      </trkpt>
      <trkpt lat="48.45694" lon="7.17388">
        <ele>454.64487</ele>
        <time>2026-02-05T15:00:40Z</time>
      </trkpt>
      <trkpt lat="48.45697" lon="7.17393">
        <ele>452.3663</ele>
        <time>2026-02-05T15:00:46Z</time>
      </trkpt>
      <trkpt lat="48.457" lon="7.174">
        <ele>450.08777</ele>
        <time>2026-02-05T15:00:52Z</time>
      </trkpt>
      <trkpt lat="48.45702" lon="7.17406">
        <ele>447.8092</ele>
        <time>2026-02-05T15:00:56Z</time>
      </trkpt>
      <trkpt lat="48.45706" lon="7.17413">
        <ele>445.53067</ele>
        <time>2026-02-05T15:01:01Z</time>
      </trkpt>
      <trkpt lat="48.45709" lon="7.17419">
        <ele>443.2521</ele>
        <time>2026-02-05T15:01:07Z</time>
      </trkpt>
      <trkpt lat="48.45711" lon="7.17425">
        <ele>443.2521</ele>
        <time>2026-02-05T15:01:12Z</time>
      </trkpt>
      <trkpt lat="48.45714" lon="7.17431">
        <ele>443.2521</ele>
        <time>2026-02-05T15:01:17Z</time>
      </trkpt>
      <trkpt lat="48.45717" lon="7.17437">
        <ele>443.2521</ele>
        <time>2026-02-05T15:01:22Z</time>
      </trkpt>
      <trkpt lat="48.4572" lon="7.17442">
        <ele>443.2521</ele>
        <time>2026-02-05T15:01:26Z</time>
      </trkpt>
      <trkpt lat="48.45723" lon="7.1745">
        <ele>443.2521</ele>
        <time>2026-02-05T15:01:31Z</time>
      </trkpt>
      <trkpt lat="48.45726" lon="7.17456">
        <ele>443.2521</ele>
        <time>2026-02-05T15:01:36Z</time>
      </trkpt>
      <trkpt lat="48.45728" lon="7.17462">
        <ele>441.1911</ele>
        <time>2026-02-05T15:01:42Z</time>
      </trkpt>
      <trkpt lat="48.45731" lon="7.17468">
        <ele>439.1301</ele>
        <time>2026-02-05T15:01:47Z</time>
      </trkpt>
      <trkpt lat="48.45733" lon="7.17475">
        <ele>437.0691</ele>
        <time>2026-02-05T15:01:53Z</time>
      </trkpt>
      <trkpt lat="48.45736" lon="7.17482">
        <ele>435.0081</ele>
        <time>2026-02-05T15:01:58Z</time>
      </trkpt>
      <trkpt lat="48.45738" lon="7.1749">
        <ele>432.94708</ele>
        <time>2026-02-05T15:02:03Z</time>
      </trkpt>
      <trkpt lat="48.4574" lon="7.17496">
        <ele>432.94708</ele>
        <time>2026-02-05T15:02:08Z</time>
      </trkpt>
      <trkpt lat="48.45742" lon="7.17503">
        <ele>432.94708</ele>
        <time>2026-02-05T15:02:14Z</time>
      </trkpt>
      <trkpt lat="48.45744" lon="7.1751">
        <ele>432.94708</ele>
        <time>2026-02-05T15:02:18Z</time>
      </trkpt>
      <trkpt lat="48.45747" lon="7.17518">
        <ele>432.94708</ele>
        <time>2026-02-05T15:02:26Z</time>
      </trkpt>
      <trkpt lat="48.45749" lon="7.17525">
        <ele>432.94708</ele>
        <time>2026-02-05T15:02:32Z</time>
      </trkpt>
      <trkpt lat="48.45752" lon="7.17531">
        <ele>430.87094</ele>
        <time>2026-02-05T15:02:39Z</time>
      </trkpt>
      <trkpt lat="48.45754" lon="7.17537">
        <ele>428.79483</ele>
        <time>2026-02-05T15:02:51Z</time>
      </trkpt>
      <trkpt lat="48.45756" lon="7.17543">
        <ele>426.7187</ele>
        <time>2026-02-05T15:02:55Z</time>
      </trkpt>
      <trkpt lat="48.45759" lon="7.1755">
        <ele>424.64258</ele>
        <time>2026-02-05T15:03:00Z</time>
      </trkpt>
      <trkpt lat="48.45761" lon="7.17557">
        <ele>422.56644</ele>
        <time>2026-02-05T15:03:05Z</time>
      </trkpt>
      <trkpt lat="48.45766" lon="7.17557">
        <ele>422.56644</ele>
        <time>2026-02-05T15:03:07Z</time>
      </trkpt>
      <trkpt lat="48.4577" lon="7.17561">
        <ele>422.56644</ele>
        <time>2026-02-05T15:03:12Z</time>
      </trkpt>
      <trkpt lat="48.45773" lon="7.17565">
        <ele>422.56644</ele>
        <time>2026-02-05T15:03:17Z</time>
      </trkpt>
      <trkpt lat="48.45778" lon="7.17569">
        <ele>422.56644</ele>
        <time>2026-02-05T15:03:22Z</time>
      </trkpt>
      <trkpt lat="48.45782" lon="7.17572">
        <ele>422.56644</ele>
        <time>2026-02-05T15:03:27Z</time>
      </trkpt>
      <trkpt lat="48.45786" lon="7.17576">
        <ele>422.56644</ele>
        <time>2026-02-05T15:03:33Z</time>
      </trkpt>
      <trkpt lat="48.45791" lon="7.17577">
        <ele>422.56644</ele>
        <time>2026-02-05T15:03:38Z</time>
      </trkpt>
      <trkpt lat="48.45795" lon="7.1758">
        <ele>422.56644</ele>
        <time>2026-02-05T15:03:46Z</time>
      </trkpt>
      <trkpt lat="48.45799" lon="7.17583">
        <ele>422.56644</ele>
        <time>2026-02-05T15:03:52Z</time>
      </trkpt>
      <trkpt lat="48.45804" lon="7.17584">
        <ele>422.56644</ele>
        <time>2026-02-05T15:03:56Z</time>
      </trkpt>
      <trkpt lat="48.4581" lon="7.17587">
        <ele>422.56644</ele>
        <time>2026-02-05T15:04:01Z</time>
      </trkpt>
      <trkpt lat="48.45815" lon="7.17589">
        <ele>422.56644</ele>
        <time>2026-02-05T15:04:07Z</time>
      </trkpt>
      <trkpt lat="48.4582" lon="7.17592">
        <ele>420.5471</ele>
        <time>2026-02-05T15:04:12Z</time>
      </trkpt>
      <trkpt lat="48.45825" lon="7.17593">
        <ele>418.52774</ele>
        <time>2026-02-05T15:04:16Z</time>
      </trkpt>
      <trkpt lat="48.4583" lon="7.17597">
        <ele>416.50842</ele>
        <time>2026-02-05T15:04:21Z</time>
      </trkpt>
      <trkpt lat="48.45834" lon="7.17599">
        <ele>414.48907</ele>
        <time>2026-02-05T15:04:25Z</time>
      </trkpt>
      <trkpt lat="48.45838" lon="7.17603">
        <ele>412.46973</ele>
        <time>2026-02-05T15:04:29Z</time>
      </trkpt>
      <trkpt lat="48.45842" lon="7.17605">
        <ele>412.46973</ele>
        <time>2026-02-05T15:04:33Z</time>
      </trkpt>
      <trkpt lat="48.45848" lon="7.17608">
        <ele>412.46973</ele>
        <time>2026-02-05T15:04:38Z</time>
      </trkpt>
      <trkpt lat="48.45852" lon="7.17611">
        <ele>412.46973</ele>
        <time>2026-02-05T15:04:42Z</time>
      </trkpt>
      <trkpt lat="48.45856" lon="7.17617">
        <ele>412.46973</ele>
        <time>2026-02-05T15:04:48Z</time>
      </trkpt>
      <trkpt lat="48.45861" lon="7.1762">
        <ele>412.46973</ele>
        <time>2026-02-05T15:04:53Z</time>
      </trkpt>
      <trkpt lat="48.45865" lon="7.17622">
        <ele>412.46973</ele>
        <time>2026-02-05T15:04:57Z</time>
      </trkpt>
      <trkpt lat="48.4587" lon="7.17625">
        <ele>412.46973</ele>
        <time>2026-02-05T15:05:02Z</time>
      </trkpt>
      <trkpt lat="48.45874" lon="7.17627">
        <ele>412.46973</ele>
        <time>2026-02-05T15:05:06Z</time>
      </trkpt>
      <trkpt lat="48.45879" lon="7.1763">
        <ele>412.46973</ele>
        <time>2026-02-05T15:05:11Z</time>
      </trkpt>
      <trkpt lat="48.45884" lon="7.17633">
        <ele>412.46973</ele>
        <time>2026-02-05T15:05:15Z</time>
      </trkpt>
      <trkpt lat="48.45889" lon="7.17636">
        <ele>412.46973</ele>
        <time>2026-02-05T15:05:20Z</time>
      </trkpt>
      <trkpt lat="48.45893" lon="7.17639">
        <ele>412.46973</ele>
        <time>2026-02-05T15:05:25Z</time>
      </trkpt>
      <trkpt lat="48.45897" lon="7.17643">
        <ele>412.46973</ele>
        <time>2026-02-05T15:05:29Z</time>
      </trkpt>
      <trkpt lat="48.45902" lon="7.17646">
        <ele>412.46973</ele>
        <time>2026-02-05T15:05:34Z</time>
      </trkpt>
      <trkpt lat="48.45905" lon="7.17651">
        <ele>412.46973</ele>
        <time>2026-02-05T15:05:38Z</time>
      </trkpt>
      <trkpt lat="48.4591" lon="7.17653">
        <ele>412.46973</ele>
        <time>2026-02-05T15:05:42Z</time>
      </trkpt>
      <trkpt lat="48.45914" lon="7.17658">
        <ele>412.46973</ele>
        <time>2026-02-05T15:05:47Z</time>
      </trkpt>
      <trkpt lat="48.45918" lon="7.17661">
        <ele>412.46973</ele>
        <time>2026-02-05T15:05:52Z</time>
      </trkpt>
      <trkpt lat="48.45922" lon="7.17664">
        <ele>412.46973</ele>
        <time>2026-02-05T15:05:56Z</time>
      </trkpt>
      <trkpt lat="48.45925" lon="7.17669">
        <ele>412.46973</ele>
        <time>2026-02-05T15:06:01Z</time>
      </trkpt>
      <trkpt lat="48.45926" lon="7.17677">
        <ele>412.46973</ele>
        <time>2026-02-05T15:06:06Z</time>
      </trkpt>
      <trkpt lat="48.45929" lon="7.17683">
        <ele>412.46973</ele>
        <time>2026-02-05T15:06:10Z</time>
      </trkpt>
      <trkpt lat="48.45933" lon="7.17689">
        <ele>412.46973</ele>
        <time>2026-02-05T15:06:16Z</time>
      </trkpt>
      <trkpt lat="48.45936" lon="7.17696">
        <ele>412.46973</ele>
        <time>2026-02-05T15:06:20Z</time>
      </trkpt>
      <trkpt lat="48.45938" lon="7.17703">
        <ele>412.46973</ele>
        <time>2026-02-05T15:06:26Z</time>
      </trkpt>
      <trkpt lat="48.4594" lon="7.17709">
        <ele>412.46973</ele>
        <time>2026-02-05T15:06:30Z</time>
      </trkpt>
      <trkpt lat="48.45942" lon="7.17716">
        <ele>412.46973</ele>
        <time>2026-02-05T15:06:35Z</time>
      </trkpt>
      <trkpt lat="48.45946" lon="7.17722">
        <ele>412.46973</ele>
        <time>2026-02-05T15:06:40Z</time>
      </trkpt>
      <trkpt lat="48.45946" lon="7.1773">
        <ele>412.46973</ele>
        <time>2026-02-05T15:06:44Z</time>
      </trkpt>
      <trkpt lat="48.45948" lon="7.17737">
        <ele>412.46973</ele>
        <time>2026-02-05T15:06:48Z</time>
      </trkpt>
      <trkpt lat="48.45951" lon="7.17742">
        <ele>412.46973</ele>
        <time>2026-02-05T15:06:53Z</time>
      </trkpt>
      <trkpt lat="48.45952" lon="7.17751">
        <ele>412.46973</ele>
        <time>2026-02-05T15:06:57Z</time>
      </trkpt>
      <trkpt lat="48.45953" lon="7.17757">
        <ele>412.46973</ele>
        <time>2026-02-05T15:07:01Z</time>
      </trkpt>
      <trkpt lat="48.45954" lon="7.17765">
        <ele>412.46973</ele>
        <time>2026-02-05T15:07:06Z</time>
      </trkpt>
      <trkpt lat="48.45955" lon="7.17774">
        <ele>412.46973</ele>
        <time>2026-02-05T15:07:10Z</time>
      </trkpt>
      <trkpt lat="48.45956" lon="7.17781">
        <ele>412.46973</ele>
        <time>2026-02-05T15:07:15Z</time>
      </trkpt>
      <trkpt lat="48.45959" lon="7.17787">
        <ele>412.46973</ele>
        <time>2026-02-05T15:07:23Z</time>
      </trkpt>
      <trkpt lat="48.4596" lon="7.17794">
        <ele>410.4467</ele>
        <time>2026-02-05T15:07:29Z</time>
      </trkpt>
      <trkpt lat="48.45961" lon="7.17803">
        <ele>408.42365</ele>
        <time>2026-02-05T15:07:33Z</time>
      </trkpt>
      <trkpt lat="48.45963" lon="7.17809">
        <ele>406.40063</ele>
        <time>2026-02-05T15:07:38Z</time>
      </trkpt>
      <trkpt lat="48.45965" lon="7.17816">
        <ele>404.3776</ele>
        <time>2026-02-05T15:07:42Z</time>
      </trkpt>
      <trkpt lat="48.45969" lon="7.17821">
        <ele>402.35455</ele>
        <time>2026-02-05T15:07:47Z</time>
      </trkpt>
      <trkpt lat="48.45972" lon="7.17827">
        <ele>402.35455</ele>
        <time>2026-02-05T15:07:52Z</time>
      </trkpt>
      <trkpt lat="48.45975" lon="7.17833">
        <ele>402.35455</ele>
        <time>2026-02-05T15:07:57Z</time>
      </trkpt>
      <trkpt lat="48.45978" lon="7.17838">
        <ele>402.35455</ele>
        <time>2026-02-05T15:08:01Z</time>
      </trkpt>
      <trkpt lat="48.4598" lon="7.17844">
        <ele>402.35455</ele>
        <time>2026-02-05T15:08:04Z</time>
      </trkpt>
      <trkpt lat="48.45981" lon="7.17852">
        <ele>402.35455</ele>
        <time>2026-02-05T15:08:09Z</time>
      </trkpt>
      <trkpt lat="48.45984" lon="7.17857">
        <ele>402.35455</ele>
        <time>2026-02-05T15:08:15Z</time>
      </trkpt>
      <trkpt lat="48.45989" lon="7.1786">
        <ele>402.35455</ele>
        <time>2026-02-05T15:08:20Z</time>
      </trkpt>
      <trkpt lat="48.45992" lon="7.17865">
        <ele>402.35455</ele>
        <time>2026-02-05T15:08:25Z</time>
      </trkpt>
      <trkpt lat="48.45994" lon="7.17873">
        <ele>402.35455</ele>
        <time>2026-02-05T15:08:30Z</time>
      </trkpt>
      <trkpt lat="48.45996" lon="7.17879">
        <ele>402.35455</ele>
        <time>2026-02-05T15:08:34Z</time>
      </trkpt>
      <trkpt lat="48.45999" lon="7.17886">
        <ele>402.35455</ele>
        <time>2026-02-05T15:08:38Z</time>
      </trkpt>
      <trkpt lat="48.46002" lon="7.17892">
        <ele>402.35455</ele>
        <time>2026-02-05T15:08:44Z</time>
      </trkpt>
      <trkpt lat="48.46005" lon="7.17898">
        <ele>402.35455</ele>
        <time>2026-02-05T15:08:50Z</time>
      </trkpt>
      <trkpt lat="48.46006" lon="7.17906">
        <ele>402.35455</ele>
        <time>2026-02-05T15:08:54Z</time>
      </trkpt>
      <trkpt lat="48.46007" lon="7.17914">
        <ele>402.35455</ele>
        <time>2026-02-05T15:08:59Z</time>
      </trkpt>
      <trkpt lat="48.46007" lon="7.1792">
        <ele>402.35455</ele>
        <time>2026-02-05T15:09:02Z</time>
      </trkpt>
      <trkpt lat="48.46006" lon="7.17929">
        <ele>402.35455</ele>
        <time>2026-02-05T15:09:06Z</time>
      </trkpt>
      <trkpt lat="48.46004" lon="7.17936">
        <ele>402.35455</ele>
        <time>2026-02-05T15:09:12Z</time>
      </trkpt>
      <trkpt lat="48.46002" lon="7.17942">
        <ele>402.35455</ele>
        <time>2026-02-05T15:09:16Z</time>
      </trkpt>
      <trkpt lat="48.46001" lon="7.1795">
        <ele>402.35455</ele>
        <time>2026-02-05T15:09:22Z</time>
      </trkpt>
      <trkpt lat="48.45999" lon="7.17958">
        <ele>402.35455</ele>
        <time>2026-02-05T15:09:27Z</time>
      </trkpt>
      <trkpt lat="48.45997" lon="7.17965">
        <ele>402.35455</ele>
        <time>2026-02-05T15:09:32Z</time>
      </trkpt>
      <trkpt lat="48.45997" lon="7.17972">
        <ele>402.35455</ele>
        <time>2026-02-05T15:09:37Z</time>
      </trkpt>
      <trkpt lat="48.45994" lon="7.17978">
        <ele>402.35455</ele>
        <time>2026-02-05T15:09:41Z</time>
      </trkpt>
      <trkpt lat="48.45993" lon="7.17984">
        <ele>402.35455</ele>
        <time>2026-02-05T15:09:45Z</time>
      </trkpt>
      <trkpt lat="48.4599" lon="7.17992">
        <ele>402.35455</ele>
        <time>2026-02-05T15:09:50Z</time>
      </trkpt>
      <trkpt lat="48.45989" lon="7.18">
        <ele>402.35455</ele>
        <time>2026-02-05T15:09:55Z</time>
      </trkpt>
      <trkpt lat="48.45986" lon="7.18008">
        <ele>402.35455</ele>
        <time>2026-02-05T15:10:00Z</time>
      </trkpt>
      <trkpt lat="48.45985" lon="7.18016">
        <ele>402.35455</ele>
        <time>2026-02-05T15:10:05Z</time>
      </trkpt>
      <trkpt lat="48.45984" lon="7.18024">
        <ele>402.35455</ele>
        <time>2026-02-05T15:10:11Z</time>
      </trkpt>
      <trkpt lat="48.45982" lon="7.18031">
        <ele>402.35455</ele>
        <time>2026-02-05T15:10:15Z</time>
      </trkpt>
      <trkpt lat="48.45979" lon="7.18038">
        <ele>402.35455</ele>
        <time>2026-02-05T15:10:20Z</time>
      </trkpt>
      <trkpt lat="48.45978" lon="7.18045">
        <ele>400.2436</ele>
        <time>2026-02-05T15:10:25Z</time>
      </trkpt>
      <trkpt lat="48.45976" lon="7.18052">
        <ele>398.13263</ele>
        <time>2026-02-05T15:10:29Z</time>
      </trkpt>
      <trkpt lat="48.45974" lon="7.18059">
        <ele>396.02167</ele>
        <time>2026-02-05T15:10:34Z</time>
      </trkpt>
      <trkpt lat="48.45973" lon="7.18067">
        <ele>393.9107</ele>
        <time>2026-02-05T15:10:39Z</time>
      </trkpt>
      <trkpt lat="48.45972" lon="7.18074">
        <ele>391.79974</ele>
        <time>2026-02-05T15:10:43Z</time>
      </trkpt>
      <trkpt lat="48.45972" lon="7.18082">
        <ele>391.79974</ele>
        <time>2026-02-05T15:10:49Z</time>
      </trkpt>
      <trkpt lat="48.45972" lon="7.18089">
        <ele>391.79974</ele>
        <time>2026-02-05T15:10:53Z</time>
      </trkpt>
      <trkpt lat="48.45972" lon="7.18096">
        <ele>391.79974</ele>
        <time>2026-02-05T15:10:57Z</time>
      </trkpt>
      <trkpt lat="48.45971" lon="7.18103">
        <ele>391.79974</ele>
        <time>2026-02-05T15:11:01Z</time>
      </trkpt>
      <trkpt lat="48.45972" lon="7.1811">
        <ele>391.79974</ele>
        <time>2026-02-05T15:11:06Z</time>
      </trkpt>
      <trkpt lat="48.45972" lon="7.18117">
        <ele>391.79974</ele>
        <time>2026-02-05T15:11:10Z</time>
      </trkpt>
      <trkpt lat="48.45972" lon="7.18126">
        <ele>391.79974</ele>
        <time>2026-02-05T15:11:15Z</time>
      </trkpt>
      <trkpt lat="48.45972" lon="7.18134">
        <ele>391.79974</ele>
        <time>2026-02-05T15:11:20Z</time>
      </trkpt>
      <trkpt lat="48.45972" lon="7.18141">
        <ele>391.79974</ele>
        <time>2026-02-05T15:11:25Z</time>
      </trkpt>
      <trkpt lat="48.45973" lon="7.18149">
        <ele>391.79974</ele>
        <time>2026-02-05T15:11:29Z</time>
      </trkpt>
      <trkpt lat="48.45973" lon="7.18156">
        <ele>391.79974</ele>
        <time>2026-02-05T15:11:33Z</time>
      </trkpt>
      <trkpt lat="48.45973" lon="7.18163">
        <ele>391.79974</ele>
        <time>2026-02-05T15:11:38Z</time>
      </trkpt>
      <trkpt lat="48.45974" lon="7.18171">
        <ele>391.79974</ele>
        <time>2026-02-05T15:11:43Z</time>
      </trkpt>
      <trkpt lat="48.45975" lon="7.18178">
        <ele>391.79974</ele>
        <time>2026-02-05T15:11:47Z</time>
      </trkpt>
      <trkpt lat="48.45976" lon="7.18187">
        <ele>391.79974</ele>
        <time>2026-02-05T15:11:53Z</time>
      </trkpt>
      <trkpt lat="48.45978" lon="7.18194">
        <ele>389.77765</ele>
        <time>2026-02-05T15:11:58Z</time>
      </trkpt>
      <trkpt lat="48.4598" lon="7.18201">
        <ele>387.75555</ele>
        <time>2026-02-05T15:12:03Z</time>
      </trkpt>
      <trkpt lat="48.45981" lon="7.18208">
        <ele>385.73346</ele>
        <time>2026-02-05T15:12:07Z</time>
      </trkpt>
      <trkpt lat="48.45982" lon="7.18215">
        <ele>383.71136</ele>
        <time>2026-02-05T15:12:12Z</time>
      </trkpt>
      <trkpt lat="48.45982" lon="7.18223">
        <ele>381.68927</ele>
        <time>2026-02-05T15:12:16Z</time>
      </trkpt>
      <trkpt lat="48.45984" lon="7.18231">
        <ele>381.68927</ele>
        <time>2026-02-05T15:12:21Z</time>
      </trkpt>
      <trkpt lat="48.45985" lon="7.18238">
        <ele>381.68927</ele>
        <time>2026-02-05T15:12:26Z</time>
      </trkpt>
      <trkpt lat="48.45986" lon="7.18246">
        <ele>381.68927</ele>
        <time>2026-02-05T15:12:29Z</time>
      </trkpt>
      <trkpt lat="48.45988" lon="7.18253">
        <ele>381.68927</ele>
        <time>2026-02-05T15:12:34Z</time>
      </trkpt>
      <trkpt lat="48.45989" lon="7.18261">
        <ele>381.68927</ele>
        <time>2026-02-05T15:12:39Z</time>
      </trkpt>
      <trkpt lat="48.4599" lon="7.18268">
        <ele>381.68927</ele>
        <time>2026-02-05T15:12:44Z</time>
      </trkpt>
      <trkpt lat="48.45991" lon="7.18275">
        <ele>381.68927</ele>
        <time>2026-02-05T15:12:48Z</time>
      </trkpt>
      <trkpt lat="48.45992" lon="7.18282">
        <ele>381.68927</ele>
        <time>2026-02-05T15:12:53Z</time>
      </trkpt>
      <trkpt lat="48.45993" lon="7.1829">
        <ele>381.68927</ele>
        <time>2026-02-05T15:12:57Z</time>
      </trkpt>
      <trkpt lat="48.45995" lon="7.18296">
        <ele>381.68927</ele>
        <time>2026-02-05T15:13:01Z</time>
      </trkpt>
      <trkpt lat="48.45996" lon="7.18305">
        <ele>381.68927</ele>
        <time>2026-02-05T15:13:07Z</time>
      </trkpt>
      <trkpt lat="48.45998" lon="7.18312">
        <ele>381.68927</ele>
        <time>2026-02-05T15:13:11Z</time>
      </trkpt>
      <trkpt lat="48.46" lon="7.1832">
        <ele>381.68927</ele>
        <time>2026-02-05T15:13:17Z</time>
      </trkpt>
      <trkpt lat="48.46002" lon="7.18326">
        <ele>381.68927</ele>
        <time>2026-02-05T15:13:21Z</time>
      </trkpt>
      <trkpt lat="48.46004" lon="7.18334">
        <ele>381.68927</ele>
        <time>2026-02-05T15:13:26Z</time>
      </trkpt>
      <trkpt lat="48.46005" lon="7.1834">
        <ele>381.68927</ele>
        <time>2026-02-05T15:13:30Z</time>
      </trkpt>
      <trkpt lat="48.46008" lon="7.18346">
        <ele>381.68927</ele>
        <time>2026-02-05T15:13:35Z</time>
      </trkpt>
      <trkpt lat="48.46005" lon="7.18353">
        <ele>381.68927</ele>
        <time>2026-02-05T15:14:52Z</time>
      </trkpt>
      <trkpt lat="48.4601" lon="7.18354">
        <ele>381.68927</ele>
        <time>2026-02-05T15:16:35Z</time>
      </trkpt>
      <trkpt lat="48.46013" lon="7.1836">
        <ele>381.68927</ele>
        <time>2026-02-05T15:16:43Z</time>
      </trkpt>
      <trkpt lat="48.46014" lon="7.18368">
        <ele>381.68927</ele>
        <time>2026-02-05T15:16:47Z</time>
      </trkpt>
      <trkpt lat="48.46015" lon="7.18374">
        <ele>381.68927</ele>
        <time>2026-02-05T15:16:52Z</time>
      </trkpt>
      <trkpt lat="48.46016" lon="7.18381">
        <ele>381.68927</ele>
        <time>2026-02-05T15:16:57Z</time>
      </trkpt>
      <trkpt lat="48.46018" lon="7.18388">
        <ele>381.68927</ele>
        <time>2026-02-05T15:17:02Z</time>
      </trkpt>
      <trkpt lat="48.46018" lon="7.18395">
        <ele>381.68927</ele>
        <time>2026-02-05T15:17:06Z</time>
      </trkpt>
      <trkpt lat="48.46017" lon="7.18402">
        <ele>381.68927</ele>
        <time>2026-02-05T15:17:13Z</time>
      </trkpt>
      <trkpt lat="48.46018" lon="7.1841">
        <ele>381.68927</ele>
        <time>2026-02-05T15:17:17Z</time>
      </trkpt>
      <trkpt lat="48.46019" lon="7.18417">
        <ele>381.68927</ele>
        <time>2026-02-05T15:17:21Z</time>
      </trkpt>
      <trkpt lat="48.46018" lon="7.18425">
        <ele>381.68927</ele>
        <time>2026-02-05T15:17:24Z</time>
      </trkpt>
      <trkpt lat="48.46019" lon="7.18432">
        <ele>381.68927</ele>
        <time>2026-02-05T15:17:29Z</time>
      </trkpt>
      <trkpt lat="48.46018" lon="7.18439">
        <ele>381.68927</ele>
        <time>2026-02-05T15:17:33Z</time>
      </trkpt>
      <trkpt lat="48.46021" lon="7.18446">
        <ele>381.68927</ele>
        <time>2026-02-05T15:17:39Z</time>
      </trkpt>
      <trkpt lat="48.46024" lon="7.18454">
        <ele>381.68927</ele>
        <time>2026-02-05T15:17:43Z</time>
      </trkpt>
      <trkpt lat="48.46024" lon="7.18462">
        <ele>381.68927</ele>
        <time>2026-02-05T15:17:47Z</time>
      </trkpt>
      <trkpt lat="48.46023" lon="7.18469">
        <ele>381.68927</ele>
        <time>2026-02-05T15:17:51Z</time>
      </trkpt>
      <trkpt lat="48.46024" lon="7.18476">
        <ele>381.68927</ele>
        <time>2026-02-05T15:17:55Z</time>
      </trkpt>
      <trkpt lat="48.46027" lon="7.18483">
        <ele>381.68927</ele>
        <time>2026-02-05T15:18:00Z</time>
      </trkpt>
      <trkpt lat="48.46028" lon="7.1849">
        <ele>381.68927</ele>
        <time>2026-02-05T15:18:03Z</time>
      </trkpt>
      <trkpt lat="48.46032" lon="7.18496">
        <ele>381.68927</ele>
        <time>2026-02-05T15:18:07Z</time>
      </trkpt>
      <trkpt lat="48.46031" lon="7.18503">
        <ele>381.68927</ele>
        <time>2026-02-05T15:18:12Z</time>
      </trkpt>
      <trkpt lat="48.4603" lon="7.18514">
        <ele>381.68927</ele>
        <time>2026-02-05T15:18:18Z</time>
      </trkpt>
      <trkpt lat="48.46031" lon="7.18524">
        <ele>381.68927</ele>
        <time>2026-02-05T15:18:22Z</time>
      </trkpt>
      <trkpt lat="48.46034" lon="7.18531">
        <ele>381.68927</ele>
        <time>2026-02-05T15:18:27Z</time>
      </trkpt>
      <trkpt lat="48.46032" lon="7.18539">
        <ele>381.68927</ele>
        <time>2026-02-05T15:18:34Z</time>
      </trkpt>
      <trkpt lat="48.46034" lon="7.18545">
        <ele>381.68927</ele>
        <time>2026-02-05T15:18:39Z</time>
      </trkpt>
      <trkpt lat="48.46037" lon="7.18551">
        <ele>381.68927</ele>
        <time>2026-02-05T15:18:44Z</time>
      </trkpt>
      <trkpt lat="48.46038" lon="7.18557">
        <ele>381.68927</ele>
        <time>2026-02-05T15:18:49Z</time>
      </trkpt>
      <trkpt lat="48.46038" lon="7.18564">
        <ele>381.68927</ele>
        <time>2026-02-05T15:18:51Z</time>
      </trkpt>
      <trkpt lat="48.4604" lon="7.18572">
        <ele>381.68927</ele>
        <time>2026-02-05T15:18:56Z</time>
      </trkpt>
      <trkpt lat="48.4604" lon="7.18579">
        <ele>381.68927</ele>
        <time>2026-02-05T15:18:59Z</time>
      </trkpt>
      <trkpt lat="48.46044" lon="7.18582">
        <ele>381.68927</ele>
        <time>2026-02-05T15:19:06Z</time>
      </trkpt>
      <trkpt lat="48.46046" lon="7.1859">
        <ele>379.60983</ele>
        <time>2026-02-05T15:19:11Z</time>
      </trkpt>
      <trkpt lat="48.46051" lon="7.18594">
        <ele>377.53036</ele>
        <time>2026-02-05T15:19:18Z</time>
      </trkpt>
      <trkpt lat="48.46053" lon="7.186">
        <ele>375.45093</ele>
        <time>2026-02-05T15:19:23Z</time>
      </trkpt>
      <trkpt lat="48.46054" lon="7.18608">
        <ele>373.37146</ele>
        <time>2026-02-05T15:19:26Z</time>
      </trkpt>
      <trkpt lat="48.46055" lon="7.18617">
        <ele>371.29202</ele>
        <time>2026-02-05T15:19:33Z</time>
      </trkpt>
      <trkpt lat="48.46056" lon="7.18625">
        <ele>371.29202</ele>
        <time>2026-02-05T15:19:37Z</time>
      </trkpt>
      <trkpt lat="48.46055" lon="7.18633">
        <ele>371.29202</ele>
        <time>2026-02-05T15:19:41Z</time>
      </trkpt>
      <trkpt lat="48.46054" lon="7.18642">
        <ele>371.29202</ele>
        <time>2026-02-05T15:19:46Z</time>
      </trkpt>
      <trkpt lat="48.46054" lon="7.18649">
        <ele>371.29202</ele>
        <time>2026-02-05T15:19:51Z</time>
      </trkpt>
      <trkpt lat="48.46052" lon="7.18656">
        <ele>371.29202</ele>
        <time>2026-02-05T15:19:56Z</time>
      </trkpt>
      <trkpt lat="48.46051" lon="7.18663">
        <ele>371.29202</ele>
        <time>2026-02-05T15:20:00Z</time>
      </trkpt>
      <trkpt lat="48.46049" lon="7.18669">
        <ele>371.29202</ele>
        <time>2026-02-05T15:20:05Z</time>
      </trkpt>
      <trkpt lat="48.46047" lon="7.18677">
        <ele>371.29202</ele>
        <time>2026-02-05T15:20:10Z</time>
      </trkpt>
      <trkpt lat="48.46045" lon="7.18684">
        <ele>371.29202</ele>
        <time>2026-02-05T15:20:14Z</time>
      </trkpt>
      <trkpt lat="48.46043" lon="7.18691">
        <ele>371.29202</ele>
        <time>2026-02-05T15:20:19Z</time>
      </trkpt>
      <trkpt lat="48.4604" lon="7.18699">
        <ele>371.29202</ele>
        <time>2026-02-05T15:20:24Z</time>
      </trkpt>
      <trkpt lat="48.46038" lon="7.18705">
        <ele>371.29202</ele>
        <time>2026-02-05T15:20:29Z</time>
      </trkpt>
      <trkpt lat="48.46036" lon="7.18712">
        <ele>371.29202</ele>
        <time>2026-02-05T15:20:33Z</time>
      </trkpt>
      <trkpt lat="48.46034" lon="7.18719">
        <ele>371.29202</ele>
        <time>2026-02-05T15:20:38Z</time>
      </trkpt>
      <trkpt lat="48.46032" lon="7.18726">
        <ele>371.29202</ele>
        <time>2026-02-05T15:20:43Z</time>
      </trkpt>
      <trkpt lat="48.4603" lon="7.18733">
        <ele>371.29202</ele>
        <time>2026-02-05T15:20:48Z</time>
      </trkpt>
      <trkpt lat="48.46027" lon="7.18741">
        <ele>371.29202</ele>
        <time>2026-02-05T15:20:53Z</time>
      </trkpt>
      <trkpt lat="48.46025" lon="7.18748">
        <ele>371.29202</ele>
        <time>2026-02-05T15:20:58Z</time>
      </trkpt>
      <trkpt lat="48.46023" lon="7.18754">
        <ele>371.29202</ele>
        <time>2026-02-05T15:21:02Z</time>
      </trkpt>
      <trkpt lat="48.46021" lon="7.18761">
        <ele>371.29202</ele>
        <time>2026-02-05T15:21:06Z</time>
      </trkpt>
      <trkpt lat="48.46018" lon="7.18767">
        <ele>371.29202</ele>
        <time>2026-02-05T15:21:11Z</time>
      </trkpt>
      <trkpt lat="48.46016" lon="7.18774">
        <ele>371.29202</ele>
        <time>2026-02-05T15:21:15Z</time>
      </trkpt>
      <trkpt lat="48.46013" lon="7.18779">
        <ele>371.29202</ele>
        <time>2026-02-05T15:21:20Z</time>
      </trkpt>
      <trkpt lat="48.46011" lon="7.18786">
        <ele>371.29202</ele>
        <time>2026-02-05T15:21:25Z</time>
      </trkpt>
      <trkpt lat="48.46008" lon="7.18793">
        <ele>371.29202</ele>
        <time>2026-02-05T15:21:29Z</time>
      </trkpt>
      <trkpt lat="48.46006" lon="7.18799">
        <ele>371.29202</ele>
        <time>2026-02-05T15:21:33Z</time>
      </trkpt>
      <trkpt lat="48.46004" lon="7.18806">
        <ele>371.29202</ele>
        <time>2026-02-05T15:21:36Z</time>
      </trkpt>
      <trkpt lat="48.46002" lon="7.18815">
        <ele>371.29202</ele>
        <time>2026-02-05T15:21:41Z</time>
      </trkpt>
      <trkpt lat="48.46" lon="7.18822">
        <ele>371.29202</ele>
        <time>2026-02-05T15:21:46Z</time>
      </trkpt>
      <trkpt lat="48.45998" lon="7.18832">
        <ele>371.29202</ele>
        <time>2026-02-05T15:21:51Z</time>
      </trkpt>
      <trkpt lat="48.45997" lon="7.18838">
        <ele>371.29202</ele>
        <time>2026-02-05T15:21:58Z</time>
      </trkpt>
      <trkpt lat="48.45995" lon="7.18846">
        <ele>371.29202</ele>
        <time>2026-02-05T15:22:03Z</time>
      </trkpt>
      <trkpt lat="48.45994" lon="7.18853">
        <ele>371.29202</ele>
        <time>2026-02-05T15:22:07Z</time>
      </trkpt>
      <trkpt lat="48.45993" lon="7.18861">
        <ele>371.29202</ele>
        <time>2026-02-05T15:22:11Z</time>
      </trkpt>
      <trkpt lat="48.45991" lon="7.18867">
        <ele>371.29202</ele>
        <time>2026-02-05T15:22:15Z</time>
      </trkpt>
      <trkpt lat="48.45991" lon="7.18876">
        <ele>371.29202</ele>
        <time>2026-02-05T15:22:20Z</time>
      </trkpt>
      <trkpt lat="48.45989" lon="7.18883">
        <ele>371.29202</ele>
        <time>2026-02-05T15:22:24Z</time>
      </trkpt>
      <trkpt lat="48.45989" lon="7.18891">
        <ele>371.29202</ele>
        <time>2026-02-05T15:22:29Z</time>
      </trkpt>
      <trkpt lat="48.45988" lon="7.18898">
        <ele>371.29202</ele>
        <time>2026-02-05T15:22:33Z</time>
      </trkpt>
      <trkpt lat="48.45987" lon="7.18905">
        <ele>371.29202</ele>
        <time>2026-02-05T15:22:37Z</time>
      </trkpt>
      <trkpt lat="48.45987" lon="7.18913">
        <ele>371.29202</ele>
        <time>2026-02-05T15:22:42Z</time>
      </trkpt>
      <trkpt lat="48.45987" lon="7.18921">
        <ele>371.29202</ele>
        <time>2026-02-05T15:22:47Z</time>
      </trkpt>
      <trkpt lat="48.45987" lon="7.18928">
        <ele>371.29202</ele>
        <time>2026-02-05T15:22:52Z</time>
      </trkpt>
      <trkpt lat="48.45987" lon="7.18935">
        <ele>369.132</ele>
        <time>2026-02-05T15:22:57Z</time>
      </trkpt>
      <trkpt lat="48.45987" lon="7.18942">
        <ele>366.97195</ele>
        <time>2026-02-05T15:23:01Z</time>
      </trkpt>
      <trkpt lat="48.45987" lon="7.1895">
        <ele>364.81195</ele>
        <time>2026-02-05T15:23:06Z</time>
      </trkpt>
      <trkpt lat="48.45987" lon="7.18958">
        <ele>362.65192</ele>
        <time>2026-02-05T15:23:11Z</time>
      </trkpt>
      <trkpt lat="48.45987" lon="7.18967">
        <ele>360.49188</ele>
        <time>2026-02-05T15:23:16Z</time>
      </trkpt>
      <trkpt lat="48.45987" lon="7.18974">
        <ele>360.49188</ele>
        <time>2026-02-05T15:23:20Z</time>
      </trkpt>
      <trkpt lat="48.45987" lon="7.18983">
        <ele>360.49188</ele>
        <time>2026-02-05T15:23:25Z</time>
      </trkpt>
      <trkpt lat="48.45987" lon="7.1899">
        <ele>360.49188</ele>
        <time>2026-02-05T15:23:28Z</time>
      </trkpt>
      <trkpt lat="48.45987" lon="7.18998">
        <ele>360.49188</ele>
        <time>2026-02-05T15:23:33Z</time>
      </trkpt>
      <trkpt lat="48.45987" lon="7.19006">
        <ele>360.49188</ele>
        <time>2026-02-05T15:23:38Z</time>
      </trkpt>
      <trkpt lat="48.45988" lon="7.19014">
        <ele>360.49188</ele>
        <time>2026-02-05T15:23:42Z</time>
      </trkpt>
      <trkpt lat="48.45988" lon="7.19021">
        <ele>360.49188</ele>
        <time>2026-02-05T15:23:45Z</time>
      </trkpt>
      <trkpt lat="48.45989" lon="7.19028">
        <ele>360.49188</ele>
        <time>2026-02-05T15:23:49Z</time>
      </trkpt>
      <trkpt lat="48.4599" lon="7.19037">
        <ele>360.49188</ele>
        <time>2026-02-05T15:23:54Z</time>
      </trkpt>
      <trkpt lat="48.45991" lon="7.19045">
        <ele>360.49188</ele>
        <time>2026-02-05T15:23:59Z</time>
      </trkpt>
      <trkpt lat="48.45993" lon="7.19052">
        <ele>360.49188</ele>
        <time>2026-02-05T15:24:03Z</time>
      </trkpt>
      <trkpt lat="48.45995" lon="7.1906">
        <ele>360.49188</ele>
        <time>2026-02-05T15:24:07Z</time>
      </trkpt>
      <trkpt lat="48.45996" lon="7.1907">
        <ele>360.49188</ele>
        <time>2026-02-05T15:24:15Z</time>
      </trkpt>
      <trkpt lat="48.45998" lon="7.19076">
        <ele>360.49188</ele>
        <time>2026-02-05T15:24:19Z</time>
      </trkpt>
      <trkpt lat="48.46" lon="7.19082">
        <ele>360.49188</ele>
        <time>2026-02-05T15:24:24Z</time>
      </trkpt>
      <trkpt lat="48.46001" lon="7.19089">
        <ele>360.49188</ele>
        <time>2026-02-05T15:24:28Z</time>
      </trkpt>
      <trkpt lat="48.46003" lon="7.19096">
        <ele>360.49188</ele>
        <time>2026-02-05T15:24:33Z</time>
      </trkpt>
      <trkpt lat="48.46006" lon="7.19102">
        <ele>360.49188</ele>
        <time>2026-02-05T15:24:37Z</time>
      </trkpt>
      <trkpt lat="48.46008" lon="7.1911">
        <ele>360.49188</ele>
        <time>2026-02-05T15:24:42Z</time>
      </trkpt>
      <trkpt lat="48.46011" lon="7.19116">
        <ele>360.49188</ele>
        <time>2026-02-05T15:24:46Z</time>
      </trkpt>
      <trkpt lat="48.46013" lon="7.19122">
        <ele>360.49188</ele>
        <time>2026-02-05T15:24:51Z</time>
      </trkpt>
      <trkpt lat="48.46016" lon="7.19128">
        <ele>360.49188</ele>
        <time>2026-02-05T15:24:55Z</time>
      </trkpt>
      <trkpt lat="48.46018" lon="7.19135">
        <ele>360.49188</ele>
        <time>2026-02-05T15:24:59Z</time>
      </trkpt>
      <trkpt lat="48.46021" lon="7.19142">
        <ele>360.49188</ele>
        <time>2026-02-05T15:25:04Z</time>
      </trkpt>
      <trkpt lat="48.46024" lon="7.19147">
        <ele>360.49188</ele>
        <time>2026-02-05T15:25:08Z</time>
      </trkpt>
      <trkpt lat="48.46027" lon="7.19153">
        <ele>360.49188</ele>
        <time>2026-02-05T15:25:12Z</time>
      </trkpt>
      <trkpt lat="48.4603" lon="7.19161">
        <ele>360.49188</ele>
        <time>2026-02-05T15:25:17Z</time>
      </trkpt>
      <trkpt lat="48.46032" lon="7.19167">
        <ele>360.49188</ele>
        <time>2026-02-05T15:25:21Z</time>
      </trkpt>
      <trkpt lat="48.46035" lon="7.19174">
        <ele>360.49188</ele>
        <time>2026-02-05T15:25:26Z</time>
      </trkpt>
      <trkpt lat="48.46038" lon="7.1918">
        <ele>360.49188</ele>
        <time>2026-02-05T15:25:31Z</time>
      </trkpt>
      <trkpt lat="48.46041" lon="7.19186">
        <ele>360.49188</ele>
        <time>2026-02-05T15:25:36Z</time>
      </trkpt>
      <trkpt lat="48.46044" lon="7.19192">
        <ele>360.49188</ele>
        <time>2026-02-05T15:25:40Z</time>
      </trkpt>
      <trkpt lat="48.46048" lon="7.19197">
        <ele>360.49188</ele>
        <time>2026-02-05T15:25:45Z</time>
      </trkpt>
      <trkpt lat="48.46051" lon="7.19203">
        <ele>360.49188</ele>
        <time>2026-02-05T15:25:49Z</time>
      </trkpt>
      <trkpt lat="48.46054" lon="7.19208">
        <ele>360.49188</ele>
        <time>2026-02-05T15:25:53Z</time>
      </trkpt>
      <trkpt lat="48.46057" lon="7.19214">
        <ele>360.49188</ele>
        <time>2026-02-05T15:25:58Z</time>
      </trkpt>
      <trkpt lat="48.4606" lon="7.19219">
        <ele>360.49188</ele>
        <time>2026-02-05T15:26:02Z</time>
      </trkpt>
      <trkpt lat="48.46064" lon="7.19226">
        <ele>360.49188</ele>
        <time>2026-02-05T15:26:07Z</time>
      </trkpt>
      <trkpt lat="48.46067" lon="7.19232">
        <ele>360.49188</ele>
        <time>2026-02-05T15:26:12Z</time>
      </trkpt>
      <trkpt lat="48.46069" lon="7.19238">
        <ele>360.49188</ele>
        <time>2026-02-05T15:26:16Z</time>
      </trkpt>
      <trkpt lat="48.46072" lon="7.19243">
        <ele>360.49188</ele>
        <time>2026-02-05T15:26:20Z</time>
      </trkpt>
      <trkpt lat="48.46075" lon="7.19249">
        <ele>360.49188</ele>
        <time>2026-02-05T15:26:25Z</time>
      </trkpt>
      <trkpt lat="48.46079" lon="7.19256">
        <ele>360.49188</ele>
        <time>2026-02-05T15:26:31Z</time>
      </trkpt>
      <trkpt lat="48.46082" lon="7.19262">
        <ele>360.49188</ele>
        <time>2026-02-05T15:26:35Z</time>
      </trkpt>
      <trkpt lat="48.46082" lon="7.19271">
        <ele>360.49188</ele>
        <time>2026-02-05T15:26:40Z</time>
      </trkpt>
      <trkpt lat="48.46084" lon="7.19278">
        <ele>358.3907</ele>
        <time>2026-02-05T15:26:45Z</time>
      </trkpt>
      <trkpt lat="48.46085" lon="7.19285">
        <ele>356.2895</ele>
        <time>2026-02-05T15:26:50Z</time>
      </trkpt>
      <trkpt lat="48.46087" lon="7.19294">
        <ele>354.18832</ele>
        <time>2026-02-05T15:26:55Z</time>
      </trkpt>
      <trkpt lat="48.46089" lon="7.19301">
        <ele>352.08713</ele>
        <time>2026-02-05T15:27:01Z</time>
      </trkpt>
      <trkpt lat="48.4609" lon="7.19311">
        <ele>349.98593</ele>
        <time>2026-02-05T15:27:05Z</time>
      </trkpt>
      <trkpt lat="48.46092" lon="7.19318">
        <ele>349.98593</ele>
        <time>2026-02-05T15:27:09Z</time>
      </trkpt>
      <trkpt lat="48.46093" lon="7.19325">
        <ele>349.98593</ele>
        <time>2026-02-05T15:27:14Z</time>
      </trkpt>
      <trkpt lat="48.46095" lon="7.19332">
        <ele>349.98593</ele>
        <time>2026-02-05T15:27:19Z</time>
      </trkpt>
      <trkpt lat="48.46096" lon="7.19339">
        <ele>349.98593</ele>
        <time>2026-02-05T15:27:23Z</time>
      </trkpt>
      <trkpt lat="48.46097" lon="7.19346">
        <ele>349.98593</ele>
        <time>2026-02-05T15:27:27Z</time>
      </trkpt>
      <trkpt lat="48.46098" lon="7.19353">
        <ele>349.98593</ele>
        <time>2026-02-05T15:27:32Z</time>
      </trkpt>
      <trkpt lat="48.46099" lon="7.1936">
        <ele>349.98593</ele>
        <time>2026-02-05T15:27:37Z</time>
      </trkpt>
      <trkpt lat="48.461" lon="7.19368">
        <ele>349.98593</ele>
        <time>2026-02-05T15:27:41Z</time>
      </trkpt>
      <trkpt lat="48.46101" lon="7.19376">
        <ele>349.98593</ele>
        <time>2026-02-05T15:27:46Z</time>
      </trkpt>
      <trkpt lat="48.46102" lon="7.19383">
        <ele>349.98593</ele>
        <time>2026-02-05T15:27:50Z</time>
      </trkpt>
      <trkpt lat="48.46103" lon="7.19389">
        <ele>349.98593</ele>
        <time>2026-02-05T15:27:54Z</time>
      </trkpt>
      <trkpt lat="48.46106" lon="7.19396">
        <ele>349.98593</ele>
        <time>2026-02-05T15:27:58Z</time>
      </trkpt>
      <trkpt lat="48.46109" lon="7.19404">
        <ele>349.98593</ele>
        <time>2026-02-05T15:28:03Z</time>
      </trkpt>
      <trkpt lat="48.46111" lon="7.1941">
        <ele>349.98593</ele>
        <time>2026-02-05T15:28:07Z</time>
      </trkpt>
      <trkpt lat="48.46114" lon="7.19417">
        <ele>349.98593</ele>
        <time>2026-02-05T15:28:12Z</time>
      </trkpt>
      <trkpt lat="48.46118" lon="7.19421">
        <ele>349.98593</ele>
        <time>2026-02-05T15:28:17Z</time>
      </trkpt>
      <trkpt lat="48.4612" lon="7.19427">
        <ele>349.98593</ele>
        <time>2026-02-05T15:28:21Z</time>
      </trkpt>
      <trkpt lat="48.46123" lon="7.19434">
        <ele>349.98593</ele>
        <time>2026-02-05T15:28:26Z</time>
      </trkpt>
      <trkpt lat="48.46126" lon="7.1944">
        <ele>349.98593</ele>
        <time>2026-02-05T15:28:31Z</time>
      </trkpt>
      <trkpt lat="48.46129" lon="7.19446">
        <ele>349.98593</ele>
        <time>2026-02-05T15:28:35Z</time>
      </trkpt>
      <trkpt lat="48.46132" lon="7.19452">
        <ele>349.98593</ele>
        <time>2026-02-05T15:28:39Z</time>
      </trkpt>
      <trkpt lat="48.46137" lon="7.19456">
        <ele>349.98593</ele>
        <time>2026-02-05T15:28:46Z</time>
      </trkpt>
      <trkpt lat="48.46139" lon="7.19464">
        <ele>349.98593</ele>
        <time>2026-02-05T15:28:51Z</time>
      </trkpt>
      <trkpt lat="48.46142" lon="7.1947">
        <ele>349.98593</ele>
        <time>2026-02-05T15:28:55Z</time>
      </trkpt>
      <trkpt lat="48.46145" lon="7.19477">
        <ele>349.98593</ele>
        <time>2026-02-05T15:28:59Z</time>
      </trkpt>
      <trkpt lat="48.46149" lon="7.19483">
        <ele>349.98593</ele>
        <time>2026-02-05T15:29:03Z</time>
      </trkpt>
      <trkpt lat="48.46151" lon="7.1949">
        <ele>349.98593</ele>
        <time>2026-02-05T15:29:07Z</time>
      </trkpt>
      <trkpt lat="48.46153" lon="7.19496">
        <ele>349.98593</ele>
        <time>2026-02-05T15:29:12Z</time>
      </trkpt>
      <trkpt lat="48.46154" lon="7.19502">
        <ele>349.98593</ele>
        <time>2026-02-05T15:29:15Z</time>
      </trkpt>
      <trkpt lat="48.46157" lon="7.19509">
        <ele>349.98593</ele>
        <time>2026-02-05T15:29:20Z</time>
      </trkpt>
      <trkpt lat="48.4616" lon="7.19515">
        <ele>349.98593</ele>
        <time>2026-02-05T15:29:25Z</time>
      </trkpt>
      <trkpt lat="48.46162" lon="7.19522">
        <ele>349.98593</ele>
        <time>2026-02-05T15:29:28Z</time>
      </trkpt>
      <trkpt lat="48.46165" lon="7.19528">
        <ele>349.98593</ele>
        <time>2026-02-05T15:29:33Z</time>
      </trkpt>
      <trkpt lat="48.46168" lon="7.19534">
        <ele>349.98593</ele>
        <time>2026-02-05T15:29:38Z</time>
      </trkpt>
      <trkpt lat="48.46171" lon="7.1954">
        <ele>349.98593</ele>
        <time>2026-02-05T15:29:43Z</time>
      </trkpt>
      <trkpt lat="48.46174" lon="7.19551">
        <ele>349.98593</ele>
        <time>2026-02-05T15:29:48Z</time>
      </trkpt>
      <trkpt lat="48.46174" lon="7.19558">
        <ele>349.98593</ele>
        <time>2026-02-05T15:29:51Z</time>
      </trkpt>
      <trkpt lat="48.46176" lon="7.19564">
        <ele>349.98593</ele>
        <time>2026-02-05T15:29:57Z</time>
      </trkpt>
      <trkpt lat="48.46178" lon="7.1957">
        <ele>349.98593</ele>
        <time>2026-02-05T15:30:01Z</time>
      </trkpt>
      <trkpt lat="48.46178" lon="7.19577">
        <ele>349.98593</ele>
        <time>2026-02-05T15:30:05Z</time>
      </trkpt>
      <trkpt lat="48.4618" lon="7.19584">
        <ele>349.98593</ele>
        <time>2026-02-05T15:30:10Z</time>
      </trkpt>
      <trkpt lat="48.46182" lon="7.19592">
        <ele>349.98593</ele>
        <time>2026-02-05T15:30:15Z</time>
      </trkpt>
      <trkpt lat="48.46184" lon="7.19598">
        <ele>349.98593</ele>
        <time>2026-02-05T15:30:20Z</time>
      </trkpt>
      <trkpt lat="48.46184" lon="7.19605">
        <ele>349.98593</ele>
        <time>2026-02-05T15:30:24Z</time>
      </trkpt>
      <trkpt lat="48.46184" lon="7.19612">
        <ele>349.98593</ele>
        <time>2026-02-05T15:30:28Z</time>
      </trkpt>
      <trkpt lat="48.46185" lon="7.1962">
        <ele>349.98593</ele>
        <time>2026-02-05T15:30:42Z</time>
      </trkpt>
      <trkpt lat="48.46188" lon="7.19614">
        <ele>349.98593</ele>
        <time>2026-02-05T15:32:03Z</time>
      </trkpt>
      <trkpt lat="48.4619" lon="7.19621">
        <ele>349.98593</ele>
        <time>2026-02-05T15:32:57Z</time>
      </trkpt>
      <trkpt lat="48.46194" lon="7.19628">
        <ele>349.98593</ele>
        <time>2026-02-05T15:33:02Z</time>
      </trkpt>
      <trkpt lat="48.46195" lon="7.19636">
        <ele>349.98593</ele>
        <time>2026-02-05T15:33:08Z</time>
      </trkpt>
      <trkpt lat="48.46196" lon="7.19643">
        <ele>349.98593</ele>
        <time>2026-02-05T15:33:12Z</time>
      </trkpt>
      <trkpt lat="48.46198" lon="7.19651">
        <ele>349.98593</ele>
        <time>2026-02-05T15:33:18Z</time>
      </trkpt>
      <trkpt lat="48.46201" lon="7.19657">
        <ele>349.98593</ele>
        <time>2026-02-05T15:33:24Z</time>
      </trkpt>
      <trkpt lat="48.46204" lon="7.19663">
        <ele>349.98593</ele>
        <time>2026-02-05T15:33:30Z</time>
      </trkpt>
      <trkpt lat="48.46207" lon="7.19668">
        <ele>349.98593</ele>
        <time>2026-02-05T15:33:35Z</time>
      </trkpt>
      <trkpt lat="48.4621" lon="7.19675">
        <ele>349.98593</ele>
        <time>2026-02-05T15:33:40Z</time>
      </trkpt>
      <trkpt lat="48.46213" lon="7.19681">
        <ele>349.98593</ele>
        <time>2026-02-05T15:33:46Z</time>
      </trkpt>
      <trkpt lat="48.46215" lon="7.19688">
        <ele>349.98593</ele>
        <time>2026-02-05T15:33:52Z</time>
      </trkpt>
      <trkpt lat="48.46217" lon="7.19694">
        <ele>349.98593</ele>
        <time>2026-02-05T15:33:58Z</time>
      </trkpt>
      <trkpt lat="48.46218" lon="7.19702">
        <ele>349.98593</ele>
        <time>2026-02-05T15:34:02Z</time>
      </trkpt>
      <trkpt lat="48.46219" lon="7.19709">
        <ele>349.98593</ele>
        <time>2026-02-05T15:34:07Z</time>
      </trkpt>
      <trkpt lat="48.4622" lon="7.19717">
        <ele>349.98593</ele>
        <time>2026-02-05T15:34:13Z</time>
      </trkpt>
      <trkpt lat="48.4622" lon="7.19724">
        <ele>349.98593</ele>
        <time>2026-02-05T15:34:19Z</time>
      </trkpt>
      <trkpt lat="48.4622" lon="7.19732">
        <ele>349.98593</ele>
        <time>2026-02-05T15:34:22Z</time>
      </trkpt>
      <trkpt lat="48.46221" lon="7.19739">
        <ele>349.98593</ele>
        <time>2026-02-05T15:34:28Z</time>
      </trkpt>
      <trkpt lat="48.46222" lon="7.19746">
        <ele>349.98593</ele>
        <time>2026-02-05T15:34:37Z</time>
      </trkpt>
      <trkpt lat="48.46222" lon="7.19754">
        <ele>349.98593</ele>
        <time>2026-02-05T15:34:42Z</time>
      </trkpt>
      <trkpt lat="48.46222" lon="7.19762">
        <ele>349.98593</ele>
        <time>2026-02-05T15:34:47Z</time>
      </trkpt>
      <trkpt lat="48.46223" lon="7.19769">
        <ele>349.98593</ele>
        <time>2026-02-05T15:34:52Z</time>
      </trkpt>
      <trkpt lat="48.46223" lon="7.19776">
        <ele>349.98593</ele>
        <time>2026-02-05T15:34:56Z</time>
      </trkpt>
      <trkpt lat="48.46223" lon="7.19783">
        <ele>349.98593</ele>
        <time>2026-02-05T15:35:01Z</time>
      </trkpt>
      <trkpt lat="48.46224" lon="7.1979">
        <ele>349.98593</ele>
        <time>2026-02-05T15:35:06Z</time>
      </trkpt>
      <trkpt lat="48.46224" lon="7.19798">
        <ele>349.98593</ele>
        <time>2026-02-05T15:35:11Z</time>
      </trkpt>
      <trkpt lat="48.46225" lon="7.19805">
        <ele>349.98593</ele>
        <time>2026-02-05T15:35:15Z</time>
      </trkpt>
      <trkpt lat="48.46225" lon="7.19811">
        <ele>349.98593</ele>
        <time>2026-02-05T15:35:21Z</time>
      </trkpt>
      <trkpt lat="48.46226" lon="7.19819">
        <ele>349.98593</ele>
        <time>2026-02-05T15:35:26Z</time>
      </trkpt>
      <trkpt lat="48.46226" lon="7.19826">
        <ele>349.98593</ele>
        <time>2026-02-05T15:35:32Z</time>
      </trkpt>
      <trkpt lat="48.46226" lon="7.19834">
        <ele>349.98593</ele>
        <time>2026-02-05T15:35:37Z</time>
      </trkpt>
      <trkpt lat="48.46227" lon="7.19842">
        <ele>349.98593</ele>
        <time>2026-02-05T15:35:44Z</time>
      </trkpt>
      <trkpt lat="48.46226" lon="7.1985">
        <ele>349.98593</ele>
        <time>2026-02-05T15:35:49Z</time>
      </trkpt>
      <trkpt lat="48.46225" lon="7.19857">
        <ele>349.98593</ele>
        <time>2026-02-05T15:35:53Z</time>
      </trkpt>
      <trkpt lat="48.46225" lon="7.19864">
        <ele>349.98593</ele>
        <time>2026-02-05T15:35:58Z</time>
      </trkpt>
      <trkpt lat="48.46225" lon="7.19871">
        <ele>349.98593</ele>
        <time>2026-02-05T15:36:03Z</time>
      </trkpt>
      <trkpt lat="48.46226" lon="7.19879">
        <ele>349.98593</ele>
        <time>2026-02-05T15:36:08Z</time>
      </trkpt>
      <trkpt lat="48.46226" lon="7.19887">
        <ele>349.98593</ele>
        <time>2026-02-05T15:36:13Z</time>
      </trkpt>
      <trkpt lat="48.46227" lon="7.19895">
        <ele>349.98593</ele>
        <time>2026-02-05T15:36:18Z</time>
      </trkpt>
      <trkpt lat="48.46227" lon="7.19902">
        <ele>349.98593</ele>
        <time>2026-02-05T15:36:23Z</time>
      </trkpt>
      <trkpt lat="48.46227" lon="7.19909">
        <ele>349.98593</ele>
        <time>2026-02-05T15:36:28Z</time>
      </trkpt>
      <trkpt lat="48.46228" lon="7.19917">
        <ele>349.98593</ele>
        <time>2026-02-05T15:36:34Z</time>
      </trkpt>
      <trkpt lat="48.46229" lon="7.19924">
        <ele>349.98593</ele>
        <time>2026-02-05T15:36:39Z</time>
      </trkpt>
      <trkpt lat="48.4623" lon="7.19931">
        <ele>349.98593</ele>
        <time>2026-02-05T15:36:44Z</time>
      </trkpt>
      <trkpt lat="48.46231" lon="7.19939">
        <ele>349.98593</ele>
        <time>2026-02-05T15:36:49Z</time>
      </trkpt>
      <trkpt lat="48.46232" lon="7.19946">
        <ele>349.98593</ele>
        <time>2026-02-05T15:36:54Z</time>
      </trkpt>
      <trkpt lat="48.46232" lon="7.19953">
        <ele>349.98593</ele>
        <time>2026-02-05T15:37:30Z</time>
      </trkpt>
      <trkpt lat="48.46233" lon="7.19961">
        <ele>349.98593</ele>
        <time>2026-02-05T15:37:35Z</time>
      </trkpt>
      <trkpt lat="48.46233" lon="7.19968">
        <ele>349.98593</ele>
        <time>2026-02-05T15:37:39Z</time>
      </trkpt>
      <trkpt lat="48.46235" lon="7.19976">
        <ele>349.98593</ele>
        <time>2026-02-05T15:37:44Z</time>
      </trkpt>
      <trkpt lat="48.46236" lon="7.19984">
        <ele>349.98593</ele>
        <time>2026-02-05T15:37:49Z</time>
      </trkpt>
      <trkpt lat="48.46238" lon="7.19992">
        <ele>349.98593</ele>
        <time>2026-02-05T15:37:54Z</time>
      </trkpt>
      <trkpt lat="48.4624" lon="7.19999">
        <ele>349.98593</ele>
        <time>2026-02-05T15:37:59Z</time>
      </trkpt>
      <trkpt lat="48.46242" lon="7.20006">
        <ele>349.98593</ele>
        <time>2026-02-05T15:38:05Z</time>
      </trkpt>
      <trkpt lat="48.46244" lon="7.20012">
        <ele>349.98593</ele>
        <time>2026-02-05T15:38:11Z</time>
      </trkpt>
      <trkpt lat="48.46244" lon="7.2002">
        <ele>349.98593</ele>
        <time>2026-02-05T15:38:46Z</time>
      </trkpt>
      <trkpt lat="48.46245" lon="7.20028">
        <ele>349.98593</ele>
        <time>2026-02-05T15:38:50Z</time>
      </trkpt>
      <trkpt lat="48.46248" lon="7.20035">
        <ele>349.98593</ele>
        <time>2026-02-05T15:38:55Z</time>
      </trkpt>
      <trkpt lat="48.4625" lon="7.20044">
        <ele>349.98593</ele>
        <time>2026-02-05T15:39:01Z</time>
      </trkpt>
      <trkpt lat="48.46252" lon="7.20051">
        <ele>349.98593</ele>
        <time>2026-02-05T15:39:06Z</time>
      </trkpt>
      <trkpt lat="48.46254" lon="7.20059">
        <ele>349.98593</ele>
        <time>2026-02-05T15:39:11Z</time>
      </trkpt>
      <trkpt lat="48.46256" lon="7.20066">
        <ele>349.98593</ele>
        <time>2026-02-05T15:39:16Z</time>
      </trkpt>
      <trkpt lat="48.46259" lon="7.20073">
        <ele>349.98593</ele>
        <time>2026-02-05T15:39:21Z</time>
      </trkpt>
      <trkpt lat="48.4626" lon="7.20081">
        <ele>349.98593</ele>
        <time>2026-02-05T15:39:25Z</time>
      </trkpt>
      <trkpt lat="48.46262" lon="7.20087">
        <ele>349.98593</ele>
        <time>2026-02-05T15:39:29Z</time>
      </trkpt>
      <trkpt lat="48.46264" lon="7.20095">
        <ele>349.98593</ele>
        <time>2026-02-05T15:39:35Z</time>
      </trkpt>
      <trkpt lat="48.46266" lon="7.20102">
        <ele>349.98593</ele>
        <time>2026-02-05T15:39:41Z</time>
      </trkpt>
      <trkpt lat="48.46268" lon="7.20109">
        <ele>349.98593</ele>
        <time>2026-02-05T15:39:46Z</time>
      </trkpt>
      <trkpt lat="48.4627" lon="7.20117">
        <ele>349.98593</ele>
        <time>2026-02-05T15:39:51Z</time>
      </trkpt>
      <trkpt lat="48.46273" lon="7.20124">
        <ele>349.98593</ele>
        <time>2026-02-05T15:39:56Z</time>
      </trkpt>
      <trkpt lat="48.46275" lon="7.2013">
        <ele>349.98593</ele>
        <time>2026-02-05T15:40:00Z</time>
      </trkpt>
      <trkpt lat="48.46277" lon="7.20137">
        <ele>347.6758</ele>
        <time>2026-02-05T15:40:05Z</time>
      </trkpt>
      <trkpt lat="48.46279" lon="7.20144">
        <ele>345.36566</ele>
        <time>2026-02-05T15:40:09Z</time>
      </trkpt>
      <trkpt lat="48.46281" lon="7.20152">
        <ele>343.05554</ele>
        <time>2026-02-05T15:40:15Z</time>
      </trkpt>
      <trkpt lat="48.46283" lon="7.20158">
        <ele>340.7454</ele>
        <time>2026-02-05T15:40:19Z</time>
      </trkpt>
      <trkpt lat="48.46286" lon="7.20165">
        <ele>338.43527</ele>
        <time>2026-02-05T15:40:24Z</time>
      </trkpt>
      <trkpt lat="48.46288" lon="7.20172">
        <ele>338.43527</ele>
        <time>2026-02-05T15:40:28Z</time>
      </trkpt>
      <trkpt lat="48.46289" lon="7.20179">
        <ele>338.43527</ele>
        <time>2026-02-05T15:40:32Z</time>
      </trkpt>
      <trkpt lat="48.46292" lon="7.20186">
        <ele>338.43527</ele>
        <time>2026-02-05T15:40:37Z</time>
      </trkpt>
      <trkpt lat="48.46295" lon="7.20192">
        <ele>338.43527</ele>
        <time>2026-02-05T15:40:44Z</time>
      </trkpt>
      <trkpt lat="48.46296" lon="7.20199">
        <ele>338.43527</ele>
        <time>2026-02-05T15:40:47Z</time>
      </trkpt>
      <trkpt lat="48.46299" lon="7.20205">
        <ele>338.43527</ele>
        <time>2026-02-05T15:40:52Z</time>
      </trkpt>
      <trkpt lat="48.46302" lon="7.20212">
        <ele>338.43527</ele>
        <time>2026-02-05T15:40:57Z</time>
      </trkpt>
      <trkpt lat="48.46304" lon="7.20218">
        <ele>338.43527</ele>
        <time>2026-02-05T15:41:03Z</time>
      </trkpt>
      <trkpt lat="48.46307" lon="7.20225">
        <ele>338.43527</ele>
        <time>2026-02-05T15:41:08Z</time>
      </trkpt>
      <trkpt lat="48.4631" lon="7.20232">
        <ele>338.43527</ele>
        <time>2026-02-05T15:41:14Z</time>
      </trkpt>
      <trkpt lat="48.46314" lon="7.20236">
        <ele>338.43527</ele>
        <time>2026-02-05T15:41:23Z</time>
      </trkpt>
      <trkpt lat="48.46317" lon="7.20242">
        <ele>338.43527</ele>
        <time>2026-02-05T15:41:27Z</time>
      </trkpt>
      <trkpt lat="48.4632" lon="7.20248">
        <ele>338.43527</ele>
        <time>2026-02-05T15:41:32Z</time>
      </trkpt>
      <trkpt lat="48.46323" lon="7.20254">
        <ele>338.43527</ele>
        <time>2026-02-05T15:41:37Z</time>
      </trkpt>
      <trkpt lat="48.46326" lon="7.20261">
        <ele>338.43527</ele>
        <time>2026-02-05T15:41:46Z</time>
      </trkpt>
      <trkpt lat="48.46329" lon="7.20266">
        <ele>338.43527</ele>
        <time>2026-02-05T15:41:50Z</time>
      </trkpt>
      <trkpt lat="48.46333" lon="7.20272">
        <ele>338.43527</ele>
        <time>2026-02-05T15:41:55Z</time>
      </trkpt>
      <trkpt lat="48.46334" lon="7.20281">
        <ele>338.43527</ele>
        <time>2026-02-05T15:42:02Z</time>
      </trkpt>
      <trkpt lat="48.46336" lon="7.20287">
        <ele>338.43527</ele>
        <time>2026-02-05T15:42:06Z</time>
      </trkpt>
      <trkpt lat="48.46338" lon="7.20294">
        <ele>338.43527</ele>
        <time>2026-02-05T15:42:12Z</time>
      </trkpt>
      <trkpt lat="48.46338" lon="7.20302">
        <ele>338.43527</ele>
        <time>2026-02-05T15:42:16Z</time>
      </trkpt>
      <trkpt lat="48.46339" lon="7.20311">
        <ele>338.43527</ele>
        <time>2026-02-05T15:42:22Z</time>
      </trkpt>
      <trkpt lat="48.46341" lon="7.20318">
        <ele>338.43527</ele>
        <time>2026-02-05T15:42:27Z</time>
      </trkpt>
      <trkpt lat="48.46342" lon="7.20324">
        <ele>338.43527</ele>
        <time>2026-02-05T15:42:31Z</time>
      </trkpt>
      <trkpt lat="48.46345" lon="7.20331">
        <ele>338.43527</ele>
        <time>2026-02-05T15:42:36Z</time>
      </trkpt>
      <trkpt lat="48.46348" lon="7.20337">
        <ele>338.43527</ele>
        <time>2026-02-05T15:42:41Z</time>
      </trkpt>
      <trkpt lat="48.46349" lon="7.20344">
        <ele>338.43527</ele>
        <time>2026-02-05T15:42:45Z</time>
      </trkpt>
      <trkpt lat="48.46353" lon="7.20349">
        <ele>338.43527</ele>
        <time>2026-02-05T15:42:48Z</time>
      </trkpt>
      <trkpt lat="48.46355" lon="7.20356">
        <ele>338.43527</ele>
        <time>2026-02-05T15:42:53Z</time>
      </trkpt>
      <trkpt lat="48.46359" lon="7.20362">
        <ele>338.43527</ele>
        <time>2026-02-05T15:43:00Z</time>
      </trkpt>
      <trkpt lat="48.4636" lon="7.2037">
        <ele>338.43527</ele>
        <time>2026-02-05T15:43:05Z</time>
      </trkpt>
      <trkpt lat="48.46364" lon="7.20374">
        <ele>338.43527</ele>
        <time>2026-02-05T15:43:09Z</time>
      </trkpt>
      <trkpt lat="48.46367" lon="7.20381">
        <ele>338.43527</ele>
        <time>2026-02-05T15:43:14Z</time>
      </trkpt>
      <trkpt lat="48.46371" lon="7.20386">
        <ele>338.43527</ele>
        <time>2026-02-05T15:43:18Z</time>
      </trkpt>
      <trkpt lat="48.46374" lon="7.20394">
        <ele>338.43527</ele>
        <time>2026-02-05T15:43:25Z</time>
      </trkpt>
      <trkpt lat="48.46377" lon="7.20399">
        <ele>338.43527</ele>
        <time>2026-02-05T15:43:31Z</time>
      </trkpt>
      <trkpt lat="48.4638" lon="7.20405">
        <ele>338.43527</ele>
        <time>2026-02-05T15:43:36Z</time>
      </trkpt>
      <trkpt lat="48.46383" lon="7.20412">
        <ele>338.43527</ele>
        <time>2026-02-05T15:43:41Z</time>
      </trkpt>
      <trkpt lat="48.46386" lon="7.20418">
        <ele>338.43527</ele>
        <time>2026-02-05T15:43:46Z</time>
      </trkpt>
      <trkpt lat="48.4639" lon="7.20424">
        <ele>338.43527</ele>
        <time>2026-02-05T15:43:51Z</time>
      </trkpt>
      <trkpt lat="48.46395" lon="7.20426">
        <ele>338.43527</ele>
        <time>2026-02-05T15:43:56Z</time>
      </trkpt>
      <trkpt lat="48.46399" lon="7.20429">
        <ele>338.43527</ele>
        <time>2026-02-05T15:44:00Z</time>
      </trkpt>
      <trkpt lat="48.46403" lon="7.20432">
        <ele>338.43527</ele>
        <time>2026-02-05T15:44:06Z</time>
      </trkpt>
      <trkpt lat="48.46405" lon="7.20439">
        <ele>338.43527</ele>
        <time>2026-02-05T15:44:12Z</time>
      </trkpt>
      <trkpt lat="48.46405" lon="7.20446">
        <ele>338.43527</ele>
        <time>2026-02-05T15:44:16Z</time>
      </trkpt>
      <trkpt lat="48.46408" lon="7.20454">
        <ele>338.43527</ele>
        <time>2026-02-05T15:44:20Z</time>
      </trkpt>
      <trkpt lat="48.46412" lon="7.20458">
        <ele>338.43527</ele>
        <time>2026-02-05T15:44:25Z</time>
      </trkpt>
      <trkpt lat="48.46416" lon="7.20462">
        <ele>338.43527</ele>
        <time>2026-02-05T15:44:29Z</time>
      </trkpt>
      <trkpt lat="48.46421" lon="7.20465">
        <ele>338.43527</ele>
        <time>2026-02-05T15:44:39Z</time>
      </trkpt>
      <trkpt lat="48.46426" lon="7.20469">
        <ele>338.43527</ele>
        <time>2026-02-05T15:44:47Z</time>
      </trkpt>
      <trkpt lat="48.4643" lon="7.20474">
        <ele>338.43527</ele>
        <time>2026-02-05T15:44:52Z</time>
      </trkpt>
      <trkpt lat="48.46435" lon="7.20476">
        <ele>338.43527</ele>
        <time>2026-02-05T15:44:58Z</time>
      </trkpt>
      <trkpt lat="48.4644" lon="7.2048">
        <ele>338.43527</ele>
        <time>2026-02-05T15:45:05Z</time>
      </trkpt>
      <trkpt lat="48.46445" lon="7.20483">
        <ele>338.43527</ele>
        <time>2026-02-05T15:45:08Z</time>
      </trkpt>
      <trkpt lat="48.46449" lon="7.20487">
        <ele>338.43527</ele>
        <time>2026-02-05T15:45:14Z</time>
      </trkpt>
      <trkpt lat="48.46452" lon="7.20493">
        <ele>338.43527</ele>
        <time>2026-02-05T15:45:23Z</time>
      </trkpt>
      <trkpt lat="48.46456" lon="7.20498">
        <ele>338.43527</ele>
        <time>2026-02-05T15:45:31Z</time>
      </trkpt>
      <trkpt lat="48.46462" lon="7.205">
        <ele>338.43527</ele>
        <time>2026-02-05T15:45:34Z</time>
      </trkpt>
      <trkpt lat="48.46466" lon="7.20501">
        <ele>338.43527</ele>
        <time>2026-02-05T15:45:36Z</time>
      </trkpt>
      <trkpt lat="48.4647" lon="7.20504">
        <ele>338.43527</ele>
        <time>2026-02-05T15:45:39Z</time>
      </trkpt>
      <trkpt lat="48.46475" lon="7.20506">
        <ele>338.43527</ele>
        <time>2026-02-05T15:45:44Z</time>
      </trkpt>
      <trkpt lat="48.46479" lon="7.20509">
        <ele>338.43527</ele>
        <time>2026-02-05T15:45:49Z</time>
      </trkpt>
      <trkpt lat="48.46485" lon="7.20509">
        <ele>338.43527</ele>
        <time>2026-02-05T15:45:54Z</time>
      </trkpt>
      <trkpt lat="48.46489" lon="7.20513">
        <ele>338.43527</ele>
        <time>2026-02-05T15:45:59Z</time>
      </trkpt>
      <trkpt lat="48.46493" lon="7.20514">
        <ele>338.43527</ele>
        <time>2026-02-05T15:46:03Z</time>
      </trkpt>
      <trkpt lat="48.46499" lon="7.20517">
        <ele>338.43527</ele>
        <time>2026-02-05T15:46:08Z</time>
      </trkpt>
      <trkpt lat="48.46502" lon="7.20522">
        <ele>338.43527</ele>
        <time>2026-02-05T15:46:14Z</time>
      </trkpt>
      <trkpt lat="48.46503" lon="7.20529">
        <ele>338.43527</ele>
        <time>2026-02-05T15:46:24Z</time>
      </trkpt>
      <trkpt lat="48.46498" lon="7.20527">
        <ele>338.43527</ele>
        <time>2026-02-05T15:46:32Z</time>
      </trkpt>
      <trkpt lat="48.46495" lon="7.20533">
        <ele>338.43527</ele>
        <time>2026-02-05T15:46:40Z</time>
      </trkpt>
      <trkpt lat="48.46497" lon="7.2054">
        <ele>338.43527</ele>
        <time>2026-02-05T15:46:42Z</time>
      </trkpt>
      <trkpt lat="48.46492" lon="7.20544">
        <ele>338.43527</ele>
        <time>2026-02-05T15:46:44Z</time>
      </trkpt>
      <trkpt lat="48.4649" lon="7.20552">
        <ele>338.43527</ele>
        <time>2026-02-05T15:46:46Z</time>
      </trkpt>
      <trkpt lat="48.46488" lon="7.20559">
        <ele>338.43527</ele>
        <time>2026-02-05T15:46:50Z</time>
      </trkpt>
      <trkpt lat="48.46488" lon="7.20567">
        <ele>338.43527</ele>
        <time>2026-02-05T15:46:55Z</time>
      </trkpt>
      <trkpt lat="48.46488" lon="7.20575">
        <ele>338.43527</ele>
        <time>2026-02-05T15:47:00Z</time>
      </trkpt>
      <trkpt lat="48.4649" lon="7.20583">
        <ele>336.17688</ele>
        <time>2026-02-05T15:47:06Z</time>
      </trkpt>
      <trkpt lat="48.46492" lon="7.20589">
        <ele>333.91852</ele>
        <time>2026-02-05T15:47:14Z</time>
      </trkpt>
      <trkpt lat="48.46495" lon="7.20595">
        <ele>331.66013</ele>
        <time>2026-02-05T15:47:19Z</time>
      </trkpt>
      <trkpt lat="48.46499" lon="7.20601">
        <ele>329.40176</ele>
        <time>2026-02-05T15:47:24Z</time>
      </trkpt>
      <trkpt lat="48.46502" lon="7.20608">
        <ele>327.14337</ele>
        <time>2026-02-05T15:47:29Z</time>
      </trkpt>
      <trkpt lat="48.46504" lon="7.20614">
        <ele>327.14337</ele>
        <time>2026-02-05T15:47:34Z</time>
      </trkpt>
      <trkpt lat="48.46507" lon="7.2062">
        <ele>327.14337</ele>
        <time>2026-02-05T15:47:41Z</time>
      </trkpt>
      <trkpt lat="48.4651" lon="7.20626">
        <ele>327.14337</ele>
        <time>2026-02-05T15:47:46Z</time>
      </trkpt>
      <trkpt lat="48.46512" lon="7.20632">
        <ele>327.14337</ele>
        <time>2026-02-05T15:47:52Z</time>
      </trkpt>
      <trkpt lat="48.46513" lon="7.20639">
        <ele>327.14337</ele>
        <time>2026-02-05T15:47:56Z</time>
      </trkpt>
      <trkpt lat="48.46514" lon="7.20647">
        <ele>327.14337</ele>
        <time>2026-02-05T15:48:01Z</time>
      </trkpt>
      <trkpt lat="48.46514" lon="7.20654">
        <ele>327.14337</ele>
        <time>2026-02-05T15:48:06Z</time>
      </trkpt>
      <trkpt lat="48.46513" lon="7.20661">
        <ele>327.14337</ele>
        <time>2026-02-05T15:48:11Z</time>
      </trkpt>
      <trkpt lat="48.46511" lon="7.20668">
        <ele>327.14337</ele>
        <time>2026-02-05T15:48:16Z</time>
      </trkpt>
      <trkpt lat="48.46509" lon="7.20674">
        <ele>327.14337</ele>
        <time>2026-02-05T15:48:21Z</time>
      </trkpt>
      <trkpt lat="48.46507" lon="7.20681">
        <ele>327.14337</ele>
        <time>2026-02-05T15:48:26Z</time>
      </trkpt>
      <trkpt lat="48.46503" lon="7.20686">
        <ele>327.14337</ele>
        <time>2026-02-05T15:48:31Z</time>
      </trkpt>
      <trkpt lat="48.46499" lon="7.20691">
        <ele>327.14337</ele>
        <time>2026-02-05T15:48:36Z</time>
      </trkpt>
      <trkpt lat="48.46495" lon="7.20695">
        <ele>327.14337</ele>
        <time>2026-02-05T15:48:40Z</time>
      </trkpt>
      <trkpt lat="48.46492" lon="7.207">
        <ele>327.14337</ele>
        <time>2026-02-05T15:48:44Z</time>
      </trkpt>
      <trkpt lat="48.4649" lon="7.20706">
        <ele>327.14337</ele>
        <time>2026-02-05T15:48:49Z</time>
      </trkpt>
      <trkpt lat="48.46492" lon="7.20712">
        <ele>327.14337</ele>
        <time>2026-02-05T15:48:53Z</time>
      </trkpt>
      <trkpt lat="48.46496" lon="7.20717">
        <ele>327.14337</ele>
        <time>2026-02-05T15:48:56Z</time>
      </trkpt>
      <trkpt lat="48.465" lon="7.20724">
        <ele>327.14337</ele>
        <time>2026-02-05T15:48:59Z</time>
      </trkpt>
      <trkpt lat="48.465" lon="7.20731">
        <ele>327.14337</ele>
        <time>2026-02-05T15:49:04Z</time>
      </trkpt>
      <trkpt lat="48.46501" lon="7.20739">
        <ele>327.14337</ele>
        <time>2026-02-05T15:49:09Z</time>
      </trkpt>
      <trkpt lat="48.46503" lon="7.20745">
        <ele>327.14337</ele>
        <time>2026-02-05T15:49:13Z</time>
      </trkpt>
      <trkpt lat="48.46505" lon="7.20751">
        <ele>327.14337</ele>
        <time>2026-02-05T15:49:17Z</time>
      </trkpt>
      <trkpt lat="48.46508" lon="7.20759">
        <ele>327.14337</ele>
        <time>2026-02-05T15:49:25Z</time>
      </trkpt>
      <trkpt lat="48.46512" lon="7.20766">
        <ele>327.14337</ele>
        <time>2026-02-05T15:49:31Z</time>
      </trkpt>
      <trkpt lat="48.46515" lon="7.20772">
        <ele>327.14337</ele>
        <time>2026-02-05T15:49:35Z</time>
      </trkpt>
      <trkpt lat="48.46518" lon="7.20777">
        <ele>327.14337</ele>
        <time>2026-02-05T15:49:40Z</time>
      </trkpt>
      <trkpt lat="48.46522" lon="7.20782">
        <ele>327.14337</ele>
        <time>2026-02-05T15:49:45Z</time>
      </trkpt>
      <trkpt lat="48.46526" lon="7.20786">
        <ele>327.14337</ele>
        <time>2026-02-05T15:49:49Z</time>
      </trkpt>
      <trkpt lat="48.46529" lon="7.20791">
        <ele>327.14337</ele>
        <time>2026-02-05T15:49:54Z</time>
      </trkpt>
      <trkpt lat="48.46533" lon="7.20796">
        <ele>327.14337</ele>
        <time>2026-02-05T15:50:00Z</time>
      </trkpt>
      <trkpt lat="48.46537" lon="7.208">
        <ele>327.14337</ele>
        <time>2026-02-05T15:50:06Z</time>
      </trkpt>
      <trkpt lat="48.46542" lon="7.208">
        <ele>327.14337</ele>
        <time>2026-02-05T15:50:11Z</time>
      </trkpt>
    </trkseg>
  </trk>
</gpx>